<?xml version="1.0" encoding="UTF-8" standalone="no" ?>
<gpx xmlns="http://www.topografix.com/GPX/1/1" creator="MapSource 6.16.3" version="1.1" xmlns:xsi="http://www.w3.org/2001/XMLSchema-instance" xsi:schemaLocation="http://www.topografix.com/GPX/1/1 http://www.topografix.com/GPX/1/1/gpx.xsd">

  <metadata>
    <link href="http://www.garmin.com">
      <text>Garmin International</text>
    </link>
    <time>2013-08-18T19:12:44Z</time>
    <bounds maxlat="54.251909013837576" maxlon="27.816016981378198" minlat="54.173314003273845" minlon="27.614008001983166"/>
  </metadata>

  <trk>
    <name>Трек</name>
    <trkseg>
      <trkpt lat="54.182725958526134" lon="27.80845700763166">
        <ele>258.73000000000002</ele>
        <time>2013-08-17T08:05:52Z</time>
      </trkpt>
      <trkpt lat="54.182739034295082" lon="27.808468993753195">
        <ele>255.37</ele>
        <time>2013-08-17T08:05:56Z</time>
      </trkpt>
      <trkpt lat="54.182526972144842" lon="27.808262966573238">
        <ele>246.72</ele>
        <time>2013-08-17T08:06:10Z</time>
      </trkpt>
      <trkpt lat="54.182035038247705" lon="27.8080939874053">
        <ele>245.75</ele>
        <time>2013-08-17T08:06:27Z</time>
      </trkpt>
      <trkpt lat="54.181805038824677" lon="27.808217033743858">
        <ele>245.75</ele>
        <time>2013-08-17T08:06:34Z</time>
      </trkpt>
      <trkpt lat="54.181761033833027" lon="27.808241005986929">
        <ele>245.75</ele>
        <time>2013-08-17T08:06:35Z</time>
      </trkpt>
      <trkpt lat="54.18164100497961" lon="27.808146961033344">
        <ele>244.78999999999999</ele>
        <time>2013-08-17T08:06:38Z</time>
      </trkpt>
      <trkpt lat="54.18112400919199" lon="27.807411029934883">
        <ele>244.78999999999999</ele>
        <time>2013-08-17T08:06:54Z</time>
      </trkpt>
      <trkpt lat="54.180506011471152" lon="27.806572001427412">
        <ele>242.87</ele>
        <time>2013-08-17T08:07:09Z</time>
      </trkpt>
      <trkpt lat="54.180462006479502" lon="27.806501006707549">
        <ele>242.38999999999999</ele>
        <time>2013-08-17T08:07:10Z</time>
      </trkpt>
      <trkpt lat="54.180312976241112" lon="27.806208981201053">
        <ele>241.91</ele>
        <time>2013-08-17T08:07:14Z</time>
      </trkpt>
      <trkpt lat="54.180269977077842" lon="27.806160030886531">
        <ele>241.91</ele>
        <time>2013-08-17T08:07:15Z</time>
      </trkpt>
      <trkpt lat="54.180233012884855" lon="27.806104039773345">
        <ele>241.91</ele>
        <time>2013-08-17T08:07:16Z</time>
      </trkpt>
      <trkpt lat="54.180207028985023" lon="27.806033967062831">
        <ele>241.91</ele>
        <time>2013-08-17T08:07:17Z</time>
      </trkpt>
      <trkpt lat="54.179816013202071" lon="27.805271968245506">
        <ele>241.43000000000001</ele>
        <time>2013-08-17T08:07:31Z</time>
      </trkpt>
      <trkpt lat="54.179749963805079" lon="27.805188987404108">
        <ele>241.43000000000001</ele>
        <time>2013-08-17T08:07:33Z</time>
      </trkpt>
      <trkpt lat="54.179709982126951" lon="27.805160991847515">
        <ele>241.43000000000001</ele>
        <time>2013-08-17T08:07:34Z</time>
      </trkpt>
      <trkpt lat="54.179670000448823" lon="27.805147999897599">
        <ele>241.43000000000001</ele>
        <time>2013-08-17T08:07:35Z</time>
      </trkpt>
      <trkpt lat="54.179624989628792" lon="27.805143976584077">
        <ele>241.43000000000001</ele>
        <time>2013-08-17T08:07:36Z</time>
      </trkpt>
      <trkpt lat="54.179580984637141" lon="27.805146994069219">
        <ele>241.43000000000001</ele>
        <time>2013-08-17T08:07:37Z</time>
      </trkpt>
      <trkpt lat="54.179542008787394" lon="27.805147999897599">
        <ele>241.43000000000001</ele>
        <time>2013-08-17T08:07:38Z</time>
      </trkpt>
      <trkpt lat="54.179507978260517" lon="27.805142970755696">
        <ele>241.43000000000001</ele>
        <time>2013-08-17T08:07:39Z</time>
      </trkpt>
      <trkpt lat="54.179417034611106" lon="27.805116986855865">
        <ele>241.43000000000001</ele>
        <time>2013-08-17T08:07:42Z</time>
      </trkpt>
      <trkpt lat="54.179389961063862" lon="27.805080022662878">
        <ele>241.43000000000001</ele>
        <time>2013-08-17T08:07:43Z</time>
      </trkpt>
      <trkpt lat="54.179366994649172" lon="27.805031994357705">
        <ele>241.43000000000001</ele>
        <time>2013-08-17T08:07:44Z</time>
      </trkpt>
      <trkpt lat="54.179346961900592" lon="27.804979020729661">
        <ele>241.91</ele>
        <time>2013-08-17T08:07:45Z</time>
      </trkpt>
      <trkpt lat="54.179326007142663" lon="27.804923029616475">
        <ele>241.91</ele>
        <time>2013-08-17T08:07:46Z</time>
      </trkpt>
      <trkpt lat="54.179096007719636" lon="27.804137980565429">
        <ele>241.91</ele>
        <time>2013-08-17T08:07:59Z</time>
      </trkpt>
      <trkpt lat="54.178905989974737" lon="27.803582008928061">
        <ele>242.38999999999999</ele>
        <time>2013-08-17T08:08:08Z</time>
      </trkpt>
      <trkpt lat="54.178885035216808" lon="27.803523000329733">
        <ele>242.38999999999999</ele>
        <time>2013-08-17T08:08:09Z</time>
      </trkpt>
      <trkpt lat="54.17884798720479" lon="27.803405988961458">
        <ele>242.87</ele>
        <time>2013-08-17T08:08:11Z</time>
      </trkpt>
      <trkpt lat="54.178697029128671" lon="27.802992006763816">
        <ele>242.87</ele>
        <time>2013-08-17T08:08:18Z</time>
      </trkpt>
      <trkpt lat="54.178627962246537" lon="27.802805006504059">
        <ele>243.34999999999999</ele>
        <time>2013-08-17T08:08:21Z</time>
      </trkpt>
      <trkpt lat="54.178497958928347" lon="27.802542988210917">
        <ele>243.34999999999999</ele>
        <time>2013-08-17T08:08:26Z</time>
      </trkpt>
      <trkpt lat="54.178402991965413" lon="27.802421031519771">
        <ele>243.83000000000001</ele>
        <time>2013-08-17T08:08:29Z</time>
      </trkpt>
      <trkpt lat="54.177830005064607" lon="27.801835974678397">
        <ele>245.75</ele>
        <time>2013-08-17T08:08:45Z</time>
      </trkpt>
      <trkpt lat="54.177696984261274" lon="27.801664983853698">
        <ele>246.22999999999999</ele>
        <time>2013-08-17T08:08:49Z</time>
      </trkpt>
      <trkpt lat="54.177443012595177" lon="27.800970962271094">
        <ele>246.72</ele>
        <time>2013-08-17T08:09:02Z</time>
      </trkpt>
      <trkpt lat="54.177307980135083" lon="27.80020703561604">
        <ele>247.68000000000001</ele>
        <time>2013-08-17T08:09:15Z</time>
      </trkpt>
      <trkpt lat="54.177086027339101" lon="27.799909980967641">
        <ele>248.16</ele>
        <time>2013-08-17T08:09:25Z</time>
      </trkpt>
      <trkpt lat="54.176987959071994" lon="27.800066974014044">
        <ele>248.63999999999999</ele>
        <time>2013-08-17T08:09:35Z</time>
      </trkpt>
      <trkpt lat="54.177054008468986" lon="27.800134029239416">
        <ele>248.16</ele>
        <time>2013-08-17T08:09:58Z</time>
      </trkpt>
      <trkpt lat="54.177068006247282" lon="27.800161018967628">
        <ele>247.68000000000001</ele>
        <time>2013-08-17T08:10:18Z</time>
      </trkpt>
      <trkpt lat="54.177391966804862" lon="27.800783962011337">
        <ele>247.19999999999999</ele>
        <time>2013-08-17T08:10:28Z</time>
      </trkpt>
      <trkpt lat="54.177441000938416" lon="27.80098001472652">
        <ele>247.19999999999999</ele>
        <time>2013-08-17T08:10:30Z</time>
      </trkpt>
      <trkpt lat="54.17751400731504" lon="27.801245972514153">
        <ele>247.19999999999999</ele>
        <time>2013-08-17T08:10:33Z</time>
      </trkpt>
      <trkpt lat="54.177617020905018" lon="27.801446970552206">
        <ele>246.72</ele>
        <time>2013-08-17T08:10:36Z</time>
      </trkpt>
      <trkpt lat="54.177802009508014" lon="27.80181996524334">
        <ele>245.75</ele>
        <time>2013-08-17T08:10:42Z</time>
      </trkpt>
      <trkpt lat="54.177982974797487" lon="27.802044013515115">
        <ele>245.27000000000001</ele>
        <time>2013-08-17T08:10:46Z</time>
      </trkpt>
      <trkpt lat="54.178313976153731" lon="27.802362022921443">
        <ele>244.31</ele>
        <time>2013-08-17T08:10:53Z</time>
      </trkpt>
      <trkpt lat="54.17852402664721" lon="27.802641978487372">
        <ele>243.34999999999999</ele>
        <time>2013-08-17T08:10:58Z</time>
      </trkpt>
      <trkpt lat="54.179043034091592" lon="27.804044019430876">
        <ele>240.94999999999999</ele>
        <time>2013-08-17T08:11:15Z</time>
      </trkpt>
      <trkpt lat="54.179258029907942" lon="27.804595967754722">
        <ele>240.47</ele>
        <time>2013-08-17T08:11:22Z</time>
      </trkpt>
      <trkpt lat="54.179282002151012" lon="27.804679032415152">
        <ele>240.47</ele>
        <time>2013-08-17T08:11:23Z</time>
      </trkpt>
      <trkpt lat="54.179304968565702" lon="27.804760001599789">
        <ele>240.47</ele>
        <time>2013-08-17T08:11:24Z</time>
      </trkpt>
      <trkpt lat="54.179402031004429" lon="27.805079016834497">
        <ele>240.47</ele>
        <time>2013-08-17T08:11:28Z</time>
      </trkpt>
      <trkpt lat="54.179433966055512" lon="27.805142970755696">
        <ele>240.47</ele>
        <time>2013-08-17T08:11:29Z</time>
      </trkpt>
      <trkpt lat="54.179475037381053" lon="27.805183958262205">
        <ele>240.47</ele>
        <time>2013-08-17T08:11:30Z</time>
      </trkpt>
      <trkpt lat="54.179524993523955" lon="27.805196028202772">
        <ele>240.47</ele>
        <time>2013-08-17T08:11:31Z</time>
      </trkpt>
      <trkpt lat="54.179581990465522" lon="27.805189993232489">
        <ele>239.99000000000001</ele>
        <time>2013-08-17T08:11:32Z</time>
      </trkpt>
      <trkpt lat="54.179636975750327" lon="27.805183958262205">
        <ele>239.99000000000001</ele>
        <time>2013-08-17T08:11:33Z</time>
      </trkpt>
      <trkpt lat="54.179691039025784" lon="27.805189993232489">
        <ele>239.99000000000001</ele>
        <time>2013-08-17T08:11:34Z</time>
      </trkpt>
      <trkpt lat="54.179737977683544" lon="27.805222012102604">
        <ele>239.50999999999999</ele>
        <time>2013-08-17T08:11:35Z</time>
      </trkpt>
      <trkpt lat="54.179812995716929" lon="27.805332988500595">
        <ele>239.50999999999999</ele>
        <time>2013-08-17T08:11:37Z</time>
      </trkpt>
      <trkpt lat="54.180132010951638" lon="27.805835986509919">
        <ele>238.53999999999999</ele>
        <time>2013-08-17T08:11:46Z</time>
      </trkpt>
      <trkpt lat="54.180250028148293" lon="27.80611895956099">
        <ele>239.02000000000001</ele>
        <time>2013-08-17T08:11:50Z</time>
      </trkpt>
      <trkpt lat="54.180284980684519" lon="27.806182997301221">
        <ele>239.02000000000001</ele>
        <time>2013-08-17T08:11:51Z</time>
      </trkpt>
      <trkpt lat="54.180322028696537" lon="27.806239994242787">
        <ele>239.02000000000001</ele>
        <time>2013-08-17T08:11:52Z</time>
      </trkpt>
      <trkpt lat="54.180364022031426" lon="27.806292967870831">
        <ele>239.02000000000001</ele>
        <time>2013-08-17T08:11:53Z</time>
      </trkpt>
      <trkpt lat="54.180400986224413" lon="27.806354993954301">
        <ele>239.02000000000001</ele>
        <time>2013-08-17T08:11:54Z</time>
      </trkpt>
      <trkpt lat="54.180434010922909" lon="27.806423977017403">
        <ele>239.02000000000001</ele>
        <time>2013-08-17T08:11:55Z</time>
      </trkpt>
      <trkpt lat="54.180925022810698" lon="27.807197039946914">
        <ele>240.47</ele>
        <time>2013-08-17T08:12:08Z</time>
      </trkpt>
      <trkpt lat="54.181364988908172" lon="27.807795004919171">
        <ele>243.34999999999999</ele>
        <time>2013-08-17T08:12:22Z</time>
      </trkpt>
      <trkpt lat="54.181894976645708" lon="27.808598997071385">
        <ele>244.31</ele>
        <time>2013-08-17T08:12:40Z</time>
      </trkpt>
      <trkpt lat="54.18205096386373" lon="27.808868978172541">
        <ele>243.83000000000001</ele>
        <time>2013-08-17T08:12:45Z</time>
      </trkpt>
      <trkpt lat="54.1825429815799" lon="27.809763997793198">
        <ele>241.91</ele>
        <time>2013-08-17T08:12:59Z</time>
      </trkpt>
      <trkpt lat="54.182644989341497" lon="27.809958038851619">
        <ele>241.43000000000001</ele>
        <time>2013-08-17T08:13:02Z</time>
      </trkpt>
      <trkpt lat="54.182816985994577" lon="27.810070021077991">
        <ele>240.94999999999999</ele>
        <time>2013-08-17T08:13:07Z</time>
      </trkpt>
      <trkpt lat="54.183041034266353" lon="27.810300020501018">
        <ele>239.99000000000001</ele>
        <time>2013-08-17T08:13:14Z</time>
      </trkpt>
      <trkpt lat="54.183195009827614" lon="27.810460031032562">
        <ele>239.50999999999999</ele>
        <time>2013-08-17T08:13:18Z</time>
      </trkpt>
      <trkpt lat="54.183673029765487" lon="27.810518033802509">
        <ele>239.99000000000001</ele>
        <time>2013-08-17T08:13:30Z</time>
      </trkpt>
      <trkpt lat="54.18391702696681" lon="27.810597997158766">
        <ele>240.47</ele>
        <time>2013-08-17T08:13:38Z</time>
      </trkpt>
      <trkpt lat="54.184087011963129" lon="27.810546029359102">
        <ele>242.38999999999999</ele>
        <time>2013-08-17T08:13:46Z</time>
      </trkpt>
      <trkpt lat="54.184136968106031" lon="27.810782985761762">
        <ele>242.87</ele>
        <time>2013-08-17T08:13:55Z</time>
      </trkpt>
      <trkpt lat="54.184299996122718" lon="27.811142988502979">
        <ele>239.50999999999999</ele>
        <time>2013-08-17T08:14:01Z</time>
      </trkpt>
      <trkpt lat="54.184403009712696" lon="27.811265029013157">
        <ele>238.53999999999999</ele>
        <time>2013-08-17T08:14:03Z</time>
      </trkpt>
      <trkpt lat="54.184840964153409" lon="27.811817983165383">
        <ele>234.69999999999999</ele>
        <time>2013-08-17T08:14:15Z</time>
      </trkpt>
      <trkpt lat="54.185113962739706" lon="27.812639996409416">
        <ele>233.74000000000001</ele>
        <time>2013-08-17T08:14:30Z</time>
      </trkpt>
      <trkpt lat="54.18544203042984" lon="27.813369976356626">
        <ele>233.25999999999999</ele>
        <time>2013-08-17T08:14:44Z</time>
      </trkpt>
      <trkpt lat="54.185525011271238" lon="27.813576003536582">
        <ele>233.25999999999999</ele>
        <time>2013-08-17T08:14:47Z</time>
      </trkpt>
      <trkpt lat="54.185660965740681" lon="27.813887977972627">
        <ele>233.25999999999999</ele>
        <time>2013-08-17T08:14:51Z</time>
      </trkpt>
      <trkpt lat="54.185713017359376" lon="27.814048994332552">
        <ele>233.25999999999999</ele>
        <time>2013-08-17T08:14:53Z</time>
      </trkpt>
      <trkpt lat="54.185793986544013" lon="27.814357029274106">
        <ele>233.25999999999999</ele>
        <time>2013-08-17T08:14:58Z</time>
      </trkpt>
      <trkpt lat="54.18589498847723" lon="27.814320987090468">
        <ele>232.78</ele>
        <time>2013-08-17T08:15:02Z</time>
      </trkpt>
      <trkpt lat="54.186116019263864" lon="27.813904993236065">
        <ele>229.41</ele>
        <time>2013-08-17T08:15:12Z</time>
      </trkpt>
      <trkpt lat="54.186315005645156" lon="27.813724027946591">
        <ele>229.41</ele>
        <time>2013-08-17T08:15:20Z</time>
      </trkpt>
      <trkpt lat="54.186599990352988" lon="27.813323037698865">
        <ele>229.88999999999999</ele>
        <time>2013-08-17T08:15:34Z</time>
      </trkpt>
      <trkpt lat="54.186853962019086" lon="27.813156992197037">
        <ele>230.37</ele>
        <time>2013-08-17T08:15:45Z</time>
      </trkpt>
      <trkpt lat="54.187108017504215" lon="27.813026988878846">
        <ele>233.25999999999999</ele>
        <time>2013-08-17T08:15:57Z</time>
      </trkpt>
      <trkpt lat="54.18741999194026" lon="27.812812998890877">
        <ele>236.62</ele>
        <time>2013-08-17T08:16:11Z</time>
      </trkpt>
      <trkpt lat="54.187685027718544" lon="27.812734041363001">
        <ele>239.02000000000001</ele>
        <time>2013-08-17T08:16:25Z</time>
      </trkpt>
      <trkpt lat="54.187923995777965" lon="27.812889022752643">
        <ele>243.83000000000001</ele>
        <time>2013-08-17T08:16:37Z</time>
      </trkpt>
      <trkpt lat="54.188092974945903" lon="27.813105024397373">
        <ele>246.72</ele>
        <time>2013-08-17T08:16:46Z</time>
      </trkpt>
      <trkpt lat="54.188243011012673" lon="27.813153974711895">
        <ele>251.03999999999999</ele>
        <time>2013-08-17T08:16:51Z</time>
      </trkpt>
      <trkpt lat="54.18858197517693" lon="27.813103012740612">
        <ele>251.52000000000001</ele>
        <time>2013-08-17T08:17:05Z</time>
      </trkpt>
      <trkpt lat="54.188869977369905" lon="27.812815010547638">
        <ele>251.52000000000001</ele>
        <time>2013-08-17T08:17:18Z</time>
      </trkpt>
      <trkpt lat="54.189077010378242" lon="27.812522985041142">
        <ele>251.52000000000001</ele>
        <time>2013-08-17T08:17:31Z</time>
      </trkpt>
      <trkpt lat="54.189326958730817" lon="27.812128029763699">
        <ele>252.47999999999999</ele>
        <time>2013-08-17T08:17:46Z</time>
      </trkpt>
      <trkpt lat="54.189651003107429" lon="27.811783030629158">
        <ele>257.76999999999998</ele>
        <time>2013-08-17T08:18:00Z</time>
      </trkpt>
      <trkpt lat="54.189916960895061" lon="27.811712035909295">
        <ele>260.17000000000002</ele>
        <time>2013-08-17T08:18:16Z</time>
      </trkpt>
      <trkpt lat="54.190228013321757" lon="27.811527969315648">
        <ele>260.64999999999998</ele>
        <time>2013-08-17T08:18:29Z</time>
      </trkpt>
      <trkpt lat="54.190489025786519" lon="27.81125103123486">
        <ele>261.62</ele>
        <time>2013-08-17T08:18:43Z</time>
      </trkpt>
      <trkpt lat="54.190726988017559" lon="27.81086697243154">
        <ele>261.62</ele>
        <time>2013-08-17T08:18:58Z</time>
      </trkpt>
      <trkpt lat="54.191023958846927" lon="27.810523984953761">
        <ele>263.54000000000002</ele>
        <time>2013-08-17T08:19:12Z</time>
      </trkpt>
      <trkpt lat="54.191130995750427" lon="27.810093993321061">
        <ele>267.86000000000001</ele>
        <time>2013-08-17T08:19:24Z</time>
      </trkpt>
      <trkpt lat="54.191263010725379" lon="27.809598036110401">
        <ele>268.35000000000002</ele>
        <time>2013-08-17T08:19:41Z</time>
      </trkpt>
      <trkpt lat="54.191367030143738" lon="27.809294024482369">
        <ele>271.70999999999998</ele>
        <time>2013-08-17T08:19:55Z</time>
      </trkpt>
      <trkpt lat="54.191366024315357" lon="27.809081962332129">
        <ele>274.11000000000001</ele>
        <time>2013-08-17T08:20:04Z</time>
      </trkpt>
      <trkpt lat="54.191400976851583" lon="27.808741992339492">
        <ele>276.04000000000002</ele>
        <time>2013-08-17T08:20:18Z</time>
      </trkpt>
      <trkpt lat="54.191475994884968" lon="27.808387018740177">
        <ele>277.48000000000002</ele>
        <time>2013-08-17T08:20:31Z</time>
      </trkpt>
      <trkpt lat="54.191638017073274" lon="27.808059034869075">
        <ele>278.92000000000002</ele>
        <time>2013-08-17T08:20:46Z</time>
      </trkpt>
      <trkpt lat="54.191729966551065" lon="27.807914027944207">
        <ele>284.20999999999998</ele>
        <time>2013-08-17T08:20:55Z</time>
      </trkpt>
      <trkpt lat="54.191831974312663" lon="27.807903969660401">
        <ele>288.05000000000001</ele>
        <time>2013-08-17T08:21:01Z</time>
      </trkpt>
      <trkpt lat="54.192019980400801" lon="27.807934982702136">
        <ele>296.22000000000003</ele>
        <time>2013-08-17T08:21:12Z</time>
      </trkpt>
      <trkpt lat="54.192057028412819" lon="27.807873040437698">
        <ele>297.18000000000001</ele>
        <time>2013-08-17T08:21:16Z</time>
      </trkpt>
      <trkpt lat="54.192059962078929" lon="27.80777296051383">
        <ele>298.14999999999998</ele>
        <time>2013-08-17T08:21:20Z</time>
      </trkpt>
      <trkpt lat="54.192114025354385" lon="27.807734990492463">
        <ele>299.11000000000001</ele>
        <time>2013-08-17T08:21:25Z</time>
      </trkpt>
      <trkpt lat="54.192494982853532" lon="27.807459980249405">
        <ele>300.06999999999999</ele>
        <time>2013-08-17T08:21:43Z</time>
      </trkpt>
      <trkpt lat="54.192519960924983" lon="27.807111963629723">
        <ele>301.02999999999997</ele>
        <time>2013-08-17T08:21:54Z</time>
      </trkpt>
      <trkpt lat="54.19253203086555" lon="27.80708396807313">
        <ele>301.50999999999999</ele>
        <time>2013-08-17T08:21:56Z</time>
      </trkpt>
      <trkpt lat="54.192529013380408" lon="27.807051027193666">
        <ele>301.50999999999999</ele>
        <time>2013-08-17T08:21:58Z</time>
      </trkpt>
      <trkpt lat="54.192480985075235" lon="27.806952958926558">
        <ele>301.99000000000001</ele>
        <time>2013-08-17T08:22:03Z</time>
      </trkpt>
      <trkpt lat="54.192367997020483" lon="27.806433029472828">
        <ele>304.38999999999999</ele>
        <time>2013-08-17T08:22:20Z</time>
      </trkpt>
      <trkpt lat="54.192355005070567" lon="27.806419031694531">
        <ele>304.88</ele>
        <time>2013-08-17T08:22:22Z</time>
      </trkpt>
      <trkpt lat="54.192353999242187" lon="27.80639598146081">
        <ele>304.88</ele>
        <time>2013-08-17T08:22:29Z</time>
      </trkpt>
      <trkpt lat="54.192503029480577" lon="27.806915994733572">
        <ele>302.94999999999999</ele>
        <time>2013-08-17T08:22:44Z</time>
      </trkpt>
      <trkpt lat="54.192546028643847" lon="27.80738202854991">
        <ele>300.55000000000001</ele>
        <time>2013-08-17T08:22:57Z</time>
      </trkpt>
      <trkpt lat="54.192539993673563" lon="27.807403989136219">
        <ele>300.06999999999999</ele>
        <time>2013-08-17T08:24:34Z</time>
      </trkpt>
      <trkpt lat="54.192507974803448" lon="27.807700959965587">
        <ele>300.06999999999999</ele>
        <time>2013-08-17T08:24:46Z</time>
      </trkpt>
      <trkpt lat="54.192507974803448" lon="27.807700959965587">
        <ele>300.06999999999999</ele>
        <time>2013-08-17T08:25:11Z</time>
      </trkpt>
      <trkpt lat="54.192509986460209" lon="27.807688973844051">
        <ele>300.06999999999999</ele>
        <time>2013-08-17T08:26:05Z</time>
      </trkpt>
      <trkpt lat="54.192514009773731" lon="27.807669024914503">
        <ele>299.11000000000001</ele>
        <time>2013-08-17T08:26:40Z</time>
      </trkpt>
      <trkpt lat="54.192538987845182" lon="27.807522006332874">
        <ele>300.06999999999999</ele>
        <time>2013-08-17T08:26:45Z</time>
      </trkpt>
      <trkpt lat="54.19255499728024" lon="27.807114981114864">
        <ele>301.02999999999997</ele>
        <time>2013-08-17T08:26:54Z</time>
      </trkpt>
      <trkpt lat="54.192617023363709" lon="27.80710500665009">
        <ele>300.55000000000001</ele>
        <time>2013-08-17T08:26:58Z</time>
      </trkpt>
      <trkpt lat="54.192915000021458" lon="27.807174995541573">
        <ele>298.14999999999998</ele>
        <time>2013-08-17T08:27:13Z</time>
      </trkpt>
      <trkpt lat="54.193203002214432" lon="27.807107018306851">
        <ele>295.25999999999999</ele>
        <time>2013-08-17T08:27:27Z</time>
      </trkpt>
      <trkpt lat="54.193383967503905" lon="27.80712797306478">
        <ele>293.81999999999999</ele>
        <time>2013-08-17T08:27:39Z</time>
      </trkpt>
      <trkpt lat="54.193383967503905" lon="27.80712797306478">
        <ele>293.81999999999999</ele>
        <time>2013-08-17T08:28:05Z</time>
      </trkpt>
      <trkpt lat="54.193383967503905" lon="27.80712797306478">
        <ele>293.81999999999999</ele>
        <time>2013-08-17T08:28:11Z</time>
      </trkpt>
      <trkpt lat="54.193339962512255" lon="27.807268034666777">
        <ele>293.33999999999997</ele>
        <time>2013-08-17T08:28:15Z</time>
      </trkpt>
      <trkpt lat="54.193421015515924" lon="27.808102034032345">
        <ele>292.86000000000001</ele>
        <time>2013-08-17T08:28:29Z</time>
      </trkpt>
      <trkpt lat="54.193626958876848" lon="27.808466982096434">
        <ele>292.86000000000001</ele>
        <time>2013-08-17T08:28:34Z</time>
      </trkpt>
      <trkpt lat="54.193797027692199" lon="27.808870989829302">
        <ele>295.74000000000001</ele>
        <time>2013-08-17T08:28:46Z</time>
      </trkpt>
      <trkpt lat="54.193701976910233" lon="27.808813992887735">
        <ele>296.22000000000003</ele>
        <time>2013-08-17T08:28:50Z</time>
      </trkpt>
      <trkpt lat="54.193325964733958" lon="27.808647025376558">
        <ele>300.06999999999999</ele>
        <time>2013-08-17T08:29:04Z</time>
      </trkpt>
      <trkpt lat="54.193320013582706" lon="27.808612994849682">
        <ele>299.58999999999997</ele>
        <time>2013-08-17T08:29:07Z</time>
      </trkpt>
      <trkpt lat="54.193750005215406" lon="27.8088020067662">
        <ele>299.11000000000001</ele>
        <time>2013-08-17T08:29:21Z</time>
      </trkpt>
      <trkpt lat="54.194376971572638" lon="27.80912303365767">
        <ele>297.67000000000002</ele>
        <time>2013-08-17T08:29:34Z</time>
      </trkpt>
      <trkpt lat="54.194454001262784" lon="27.810203963890672">
        <ele>295.74000000000001</ele>
        <time>2013-08-17T08:29:47Z</time>
      </trkpt>
      <trkpt lat="54.1944669932127" lon="27.810431029647589">
        <ele>295.74000000000001</ele>
        <time>2013-08-17T08:29:49Z</time>
      </trkpt>
      <trkpt lat="54.194290973246098" lon="27.811537021771073">
        <ele>294.30000000000001</ele>
        <time>2013-08-17T08:29:59Z</time>
      </trkpt>
      <trkpt lat="54.194039013236761" lon="27.811862993985415">
        <ele>293.81999999999999</ele>
        <time>2013-08-17T08:30:06Z</time>
      </trkpt>
      <trkpt lat="54.193949997425079" lon="27.811846984550357">
        <ele>293.81999999999999</ele>
        <time>2013-08-17T08:30:09Z</time>
      </trkpt>
      <trkpt lat="54.193669036030769" lon="27.811628971248865">
        <ele>294.77999999999997</ele>
        <time>2013-08-17T08:30:23Z</time>
      </trkpt>
      <trkpt lat="54.193404000252485" lon="27.811128990724683">
        <ele>293.81999999999999</ele>
        <time>2013-08-17T08:30:36Z</time>
      </trkpt>
      <trkpt lat="54.193197973072529" lon="27.810614006593823">
        <ele>291.89999999999998</ele>
        <time>2013-08-17T08:30:49Z</time>
      </trkpt>
      <trkpt lat="54.193162014707923" lon="27.810481991618872">
        <ele>291.42000000000002</ele>
        <time>2013-08-17T08:30:53Z</time>
      </trkpt>
      <trkpt lat="54.193131001666188" lon="27.810365986078978">
        <ele>291.42000000000002</ele>
        <time>2013-08-17T08:30:57Z</time>
      </trkpt>
      <trkpt lat="54.193115998059511" lon="27.810308989137411">
        <ele>290.94</ele>
        <time>2013-08-17T08:30:59Z</time>
      </trkpt>
      <trkpt lat="54.192977026104927" lon="27.809959966689348">
        <ele>290.94</ele>
        <time>2013-08-17T08:31:13Z</time>
      </trkpt>
      <trkpt lat="54.192877030000091" lon="27.809776989743114">
        <ele>291.42000000000002</ele>
        <time>2013-08-17T08:31:21Z</time>
      </trkpt>
      <trkpt lat="54.192802011966705" lon="27.809672970324755">
        <ele>291.89999999999998</ele>
        <time>2013-08-17T08:31:25Z</time>
      </trkpt>
      <trkpt lat="54.192591039463878" lon="27.809417992830276">
        <ele>292.86000000000001</ele>
        <time>2013-08-17T08:31:39Z</time>
      </trkpt>
      <trkpt lat="54.192580981180072" lon="27.809396032243967">
        <ele>292.86000000000001</ele>
        <time>2013-08-17T08:31:40Z</time>
      </trkpt>
      <trkpt lat="54.192542005330324" lon="27.809354960918427">
        <ele>292.86000000000001</ele>
        <time>2013-08-17T08:31:53Z</time>
      </trkpt>
      <trkpt lat="54.192516021430492" lon="27.809358984231949">
        <ele>292.86000000000001</ele>
        <time>2013-08-17T08:31:55Z</time>
      </trkpt>
      <trkpt lat="54.192515015602112" lon="27.809412963688374">
        <ele>293.81999999999999</ele>
        <time>2013-08-17T08:32:18Z</time>
      </trkpt>
      <trkpt lat="54.193021031096578" lon="27.810254003852606">
        <ele>293.33999999999997</ele>
        <time>2013-08-17T08:32:33Z</time>
      </trkpt>
      <trkpt lat="54.193669036030769" lon="27.811543978750706">
        <ele>298.14999999999998</ele>
        <time>2013-08-17T08:32:50Z</time>
      </trkpt>
      <trkpt lat="54.194104978814721" lon="27.81217304058373">
        <ele>291.42000000000002</ele>
        <time>2013-08-17T08:32:57Z</time>
      </trkpt>
      <trkpt lat="54.19440102763474" lon="27.812719037756324">
        <ele>290.94</ele>
        <time>2013-08-17T08:33:05Z</time>
      </trkpt>
      <trkpt lat="54.194465987384319" lon="27.812875024974346">
        <ele>290.94</ele>
        <time>2013-08-17T08:33:07Z</time>
      </trkpt>
      <trkpt lat="54.194506974890828" lon="27.813039980828762">
        <ele>290.45999999999998</ele>
        <time>2013-08-17T08:33:09Z</time>
      </trkpt>
      <trkpt lat="54.194518039003015" lon="27.813217006623745">
        <ele>289.97000000000003</ele>
        <time>2013-08-17T08:33:11Z</time>
      </trkpt>
      <trkpt lat="54.19444402679801" lon="27.813974982127547">
        <ele>287.08999999999997</ele>
        <time>2013-08-17T08:33:20Z</time>
      </trkpt>
      <trkpt lat="54.194470010697842" lon="27.814027033746243">
        <ele>286.61000000000001</ele>
        <time>2013-08-17T08:33:21Z</time>
      </trkpt>
      <trkpt lat="54.194635972380638" lon="27.814239012077451">
        <ele>284.20999999999998</ele>
        <time>2013-08-17T08:33:30Z</time>
      </trkpt>
      <trkpt lat="54.194796988740563" lon="27.814313024282455">
        <ele>280.83999999999997</ele>
        <time>2013-08-17T08:33:39Z</time>
      </trkpt>
      <trkpt lat="54.194890027865767" lon="27.814396005123854">
        <ele>278.44</ele>
        <time>2013-08-17T08:33:45Z</time>
      </trkpt>
      <trkpt lat="54.195076022297144" lon="27.81447202898562">
        <ele>272.19</ele>
        <time>2013-08-17T08:34:00Z</time>
      </trkpt>
      <trkpt lat="54.195079039782286" lon="27.81447596848011">
        <ele>272.19</ele>
        <time>2013-08-17T08:34:02Z</time>
      </trkpt>
      <trkpt lat="54.195123966783285" lon="27.814506981521845">
        <ele>271.23000000000002</ele>
        <time>2013-08-17T08:34:06Z</time>
      </trkpt>
      <trkpt lat="54.195204013958573" lon="27.814492983743548">
        <ele>269.31</ele>
        <time>2013-08-17T08:34:13Z</time>
      </trkpt>
      <trkpt lat="54.195338962599635" lon="27.814617035910487">
        <ele>268.35000000000002</ele>
        <time>2013-08-17T08:34:21Z</time>
      </trkpt>
      <trkpt lat="54.195340974256396" lon="27.814663974568248">
        <ele>268.35000000000002</ele>
        <time>2013-08-17T08:34:23Z</time>
      </trkpt>
      <trkpt lat="54.195318007841706" lon="27.814748967066407">
        <ele>265.45999999999998</ele>
        <time>2013-08-17T08:34:38Z</time>
      </trkpt>
      <trkpt lat="54.195318007841706" lon="27.814748967066407">
        <ele>265.45999999999998</ele>
        <time>2013-08-17T08:34:41Z</time>
      </trkpt>
      <trkpt lat="54.195357989519835" lon="27.814929010346532">
        <ele>264.98000000000002</ele>
        <time>2013-08-17T08:34:46Z</time>
      </trkpt>
      <trkpt lat="54.19539000838995" lon="27.815511971712112">
        <ele>263.54000000000002</ele>
        <time>2013-08-17T08:35:01Z</time>
      </trkpt>
      <trkpt lat="54.195203008130193" lon="27.81557098031044">
        <ele>262.57999999999998</ele>
        <time>2013-08-17T08:35:17Z</time>
      </trkpt>
      <trkpt lat="54.195161014795303" lon="27.815529992803931">
        <ele>263.06</ele>
        <time>2013-08-17T08:35:18Z</time>
      </trkpt>
      <trkpt lat="54.194648964330554" lon="27.815213995054364">
        <ele>264.5</ele>
        <time>2013-08-17T08:35:34Z</time>
      </trkpt>
      <trkpt lat="54.19421000406146" lon="27.815144006162882">
        <ele>265.45999999999998</ele>
        <time>2013-08-17T08:35:47Z</time>
      </trkpt>
      <trkpt lat="54.193972963839769" lon="27.815046021714807">
        <ele>267.38</ele>
        <time>2013-08-17T08:35:57Z</time>
      </trkpt>
      <trkpt lat="54.193895012140274" lon="27.814958011731505">
        <ele>268.82999999999998</ele>
        <time>2013-08-17T08:36:07Z</time>
      </trkpt>
      <trkpt lat="54.193787975236773" lon="27.815007967874408">
        <ele>271.70999999999998</ele>
        <time>2013-08-17T08:36:22Z</time>
      </trkpt>
      <trkpt lat="54.193706000223756" lon="27.815016014501452">
        <ele>273.14999999999998</ele>
        <time>2013-08-17T08:36:35Z</time>
      </trkpt>
      <trkpt lat="54.193696025758982" lon="27.815004028379917">
        <ele>273.63</ele>
        <time>2013-08-17T08:36:38Z</time>
      </trkpt>
      <trkpt lat="54.193668030202389" lon="27.814987013116479">
        <ele>273.63</ele>
        <time>2013-08-17T08:36:41Z</time>
      </trkpt>
      <trkpt lat="54.193620001897216" lon="27.814977038651705">
        <ele>275.06999999999999</ele>
        <time>2013-08-17T08:36:50Z</time>
      </trkpt>
      <trkpt lat="54.193460997194052" lon="27.814956000074744">
        <ele>275.06999999999999</ele>
        <time>2013-08-17T08:37:07Z</time>
      </trkpt>
      <trkpt lat="54.193431995809078" lon="27.814961029216647">
        <ele>275.06999999999999</ele>
        <time>2013-08-17T08:37:09Z</time>
      </trkpt>
      <trkpt lat="54.193411963060498" lon="27.814957005903125">
        <ele>275.56</ele>
        <time>2013-08-17T08:37:13Z</time>
      </trkpt>
      <trkpt lat="54.193325964733958" lon="27.815016014501452">
        <ele>272.19</ele>
        <time>2013-08-17T08:37:29Z</time>
      </trkpt>
      <trkpt lat="54.193331999704242" lon="27.815068988129497">
        <ele>272.19</ele>
        <time>2013-08-17T08:37:34Z</time>
      </trkpt>
      <trkpt lat="54.193338034674525" lon="27.815163033083081">
        <ele>271.70999999999998</ele>
        <time>2013-08-17T08:37:39Z</time>
      </trkpt>
      <trkpt lat="54.193309033289552" lon="27.815328994765878">
        <ele>270.26999999999998</ele>
        <time>2013-08-17T08:37:48Z</time>
      </trkpt>
      <trkpt lat="54.19328598305583" lon="27.815479030832648">
        <ele>267.38</ele>
        <time>2013-08-17T08:38:01Z</time>
      </trkpt>
      <trkpt lat="54.193278020247817" lon="27.815489005297422">
        <ele>266.89999999999998</ele>
        <time>2013-08-17T08:38:02Z</time>
      </trkpt>
      <trkpt lat="54.193214988335967" lon="27.815514989197254">
        <ele>264.5</ele>
        <time>2013-08-17T08:38:07Z</time>
      </trkpt>
      <trkpt lat="54.193102000281215" lon="27.815635018050671">
        <ele>260.17000000000002</ele>
        <time>2013-08-17T08:38:20Z</time>
      </trkpt>
      <trkpt lat="54.193103006109595" lon="27.815637029707432">
        <ele>260.17000000000002</ele>
        <time>2013-08-17T08:38:27Z</time>
      </trkpt>
      <trkpt lat="54.192722970619798" lon="27.815638035535812">
        <ele>258.73000000000002</ele>
        <time>2013-08-17T08:38:39Z</time>
      </trkpt>
      <trkpt lat="54.192361040040851" lon="27.815600987523794">
        <ele>257.76999999999998</ele>
        <time>2013-08-17T08:38:52Z</time>
      </trkpt>
      <trkpt lat="54.191460991278291" lon="27.815565029159188">
        <ele>254.88999999999999</ele>
        <time>2013-08-17T08:39:11Z</time>
      </trkpt>
      <trkpt lat="54.19044996611774" lon="27.815600987523794">
        <ele>251.03999999999999</ele>
        <time>2013-08-17T08:39:30Z</time>
      </trkpt>
      <trkpt lat="54.189280020073056" lon="27.815715987235308">
        <ele>247.19999999999999</ele>
        <time>2013-08-17T08:39:48Z</time>
      </trkpt>
      <trkpt lat="54.188243011012673" lon="27.81589200720191">
        <ele>243.34999999999999</ele>
        <time>2013-08-17T08:40:03Z</time>
      </trkpt>
      <trkpt lat="54.187623001635075" lon="27.816016981378198">
        <ele>241.91</ele>
        <time>2013-08-17T08:40:14Z</time>
      </trkpt>
      <trkpt lat="54.187361989170313" lon="27.815671982243657">
        <ele>241.43000000000001</ele>
        <time>2013-08-17T08:40:25Z</time>
      </trkpt>
      <trkpt lat="54.187069041654468" lon="27.815667958930135">
        <ele>240.94999999999999</ele>
        <time>2013-08-17T08:40:36Z</time>
      </trkpt>
      <trkpt lat="54.186837030574679" lon="27.815687991678715">
        <ele>239.02000000000001</ele>
        <time>2013-08-17T08:40:42Z</time>
      </trkpt>
      <trkpt lat="54.186695963144302" lon="27.815395966172218">
        <ele>238.53999999999999</ele>
        <time>2013-08-17T08:40:49Z</time>
      </trkpt>
      <trkpt lat="54.186662016436458" lon="27.815123973414302">
        <ele>239.99000000000001</ele>
        <time>2013-08-17T08:40:56Z</time>
      </trkpt>
      <trkpt lat="54.186521032825112" lon="27.815088015049696">
        <ele>240.47</ele>
        <time>2013-08-17T08:41:01Z</time>
      </trkpt>
      <trkpt lat="54.186178967356682" lon="27.815206032246351">
        <ele>239.02000000000001</ele>
        <time>2013-08-17T08:41:16Z</time>
      </trkpt>
      <trkpt lat="54.185892976820469" lon="27.814718037843704">
        <ele>239.02000000000001</ele>
        <time>2013-08-17T08:41:28Z</time>
      </trkpt>
      <trkpt lat="54.185694996267557" lon="27.813889989629388">
        <ele>240.47</ele>
        <time>2013-08-17T08:41:40Z</time>
      </trkpt>
      <trkpt lat="54.185228040441871" lon="27.812875024974346">
        <ele>239.99000000000001</ele>
        <time>2013-08-17T08:41:53Z</time>
      </trkpt>
      <trkpt lat="54.184938026592135" lon="27.812253003939986">
        <ele>236.62</ele>
        <time>2013-08-17T08:42:05Z</time>
      </trkpt>
      <trkpt lat="54.184740968048573" lon="27.811593012884259">
        <ele>235.66</ele>
        <time>2013-08-17T08:42:20Z</time>
      </trkpt>
      <trkpt lat="54.184517003595829" lon="27.811368964612484">
        <ele>235.66</ele>
        <time>2013-08-17T08:42:34Z</time>
      </trkpt>
      <trkpt lat="54.18447501026094" lon="27.811307022348046">
        <ele>235.66</ele>
        <time>2013-08-17T08:42:37Z</time>
      </trkpt>
      <trkpt lat="54.184471992775798" lon="27.811195962131023">
        <ele>235.66</ele>
        <time>2013-08-17T08:42:41Z</time>
      </trkpt>
      <trkpt lat="54.184684976935387" lon="27.810932016000152">
        <ele>238.06</ele>
        <time>2013-08-17T08:42:56Z</time>
      </trkpt>
      <trkpt lat="54.184836018830538" lon="27.810669997707009">
        <ele>239.50999999999999</ele>
        <time>2013-08-17T08:43:09Z</time>
      </trkpt>
      <trkpt lat="54.185006003826857" lon="27.810313012450933">
        <ele>242.38999999999999</ele>
        <time>2013-08-17T08:43:23Z</time>
      </trkpt>
      <trkpt lat="54.185204990208149" lon="27.809867011383176">
        <ele>246.72</ele>
        <time>2013-08-17T08:43:40Z</time>
      </trkpt>
      <trkpt lat="54.185382016003132" lon="27.809569034725428">
        <ele>248.63999999999999</ele>
        <time>2013-08-17T08:43:54Z</time>
      </trkpt>
      <trkpt lat="54.185559963807464" lon="27.809267034754157">
        <ele>251.52000000000001</ele>
        <time>2013-08-17T08:44:09Z</time>
      </trkpt>
      <trkpt lat="54.185726009309292" lon="27.809027982875705">
        <ele>255.37</ele>
        <time>2013-08-17T08:44:22Z</time>
      </trkpt>
      <trkpt lat="54.185857018455863" lon="27.808814998716116">
        <ele>256.32999999999998</ele>
        <time>2013-08-17T08:44:32Z</time>
      </trkpt>
      <trkpt lat="54.185949973762035" lon="27.808658005669713">
        <ele>257.76999999999998</ele>
        <time>2013-08-17T08:44:40Z</time>
      </trkpt>
      <trkpt lat="54.186190031468868" lon="27.808269001543522">
        <ele>260.64999999999998</ele>
        <time>2013-08-17T08:44:59Z</time>
      </trkpt>
      <trkpt lat="54.186334032565355" lon="27.808041013777256">
        <ele>262.10000000000002</ele>
        <time>2013-08-17T08:45:11Z</time>
      </trkpt>
      <trkpt lat="54.18649697676301" lon="27.807832974940538">
        <ele>265.45999999999998</ele>
        <time>2013-08-17T08:45:25Z</time>
      </trkpt>
      <trkpt lat="54.186647012829781" lon="27.80764102935791">
        <ele>268.35000000000002</ele>
        <time>2013-08-17T08:45:38Z</time>
      </trkpt>
      <trkpt lat="54.186780033633113" lon="27.80742796137929">
        <ele>269.31</ele>
        <time>2013-08-17T08:45:50Z</time>
      </trkpt>
      <trkpt lat="54.186927974224091" lon="27.807261999696493">
        <ele>271.23000000000002</ele>
        <time>2013-08-17T08:46:03Z</time>
      </trkpt>
      <trkpt lat="54.186939038336277" lon="27.807016996666789">
        <ele>272.19</ele>
        <time>2013-08-17T08:46:16Z</time>
      </trkpt>
      <trkpt lat="54.186921017244458" lon="27.806981038302183">
        <ele>272.67000000000002</ele>
        <time>2013-08-17T08:46:18Z</time>
      </trkpt>
      <trkpt lat="54.186839964240789" lon="27.806731006130576">
        <ele>273.63</ele>
        <time>2013-08-17T08:46:32Z</time>
      </trkpt>
      <trkpt lat="54.186834013089538" lon="27.806677026674151">
        <ele>273.63</ele>
        <time>2013-08-17T08:46:34Z</time>
      </trkpt>
      <trkpt lat="54.186834013089538" lon="27.806566972285509">
        <ele>274.11000000000001</ele>
        <time>2013-08-17T08:46:38Z</time>
      </trkpt>
      <trkpt lat="54.186890004202724" lon="27.806346025317907">
        <ele>276.51999999999998</ele>
        <time>2013-08-17T08:46:49Z</time>
      </trkpt>
      <trkpt lat="54.186960998922586" lon="27.806271007284522">
        <ele>277.48000000000002</ele>
        <time>2013-08-17T08:46:55Z</time>
      </trkpt>
      <trkpt lat="54.186974996700883" lon="27.80618199147284">
        <ele>277.95999999999998</ele>
        <time>2013-08-17T08:46:59Z</time>
      </trkpt>
      <trkpt lat="54.187014978379011" lon="27.80605299398303">
        <ele>279.39999999999998</ele>
        <time>2013-08-17T08:47:06Z</time>
      </trkpt>
      <trkpt lat="54.186822026968002" lon="27.806042013689876">
        <ele>277.48000000000002</ele>
        <time>2013-08-17T08:47:18Z</time>
      </trkpt>
      <trkpt lat="54.186793025583029" lon="27.806049976497889">
        <ele>277</ele>
        <time>2013-08-17T08:47:32Z</time>
      </trkpt>
      <trkpt lat="54.186809035018086" lon="27.806038996204734">
        <ele>276.51999999999998</ele>
        <time>2013-08-17T08:47:51Z</time>
      </trkpt>
      <trkpt lat="54.186884975060821" lon="27.805940005928278">
        <ele>277.48000000000002</ele>
        <time>2013-08-17T08:48:06Z</time>
      </trkpt>
      <trkpt lat="54.186912970617414" lon="27.805916033685207">
        <ele>277.95999999999998</ele>
        <time>2013-08-17T08:48:33Z</time>
      </trkpt>
      <trkpt lat="54.186971979215741" lon="27.805826012045145">
        <ele>280.36000000000001</ele>
        <time>2013-08-17T08:48:47Z</time>
      </trkpt>
      <trkpt lat="54.187027970328927" lon="27.805748982354999">
        <ele>284.20999999999998</ele>
        <time>2013-08-17T08:49:00Z</time>
      </trkpt>
      <trkpt lat="54.187065018340945" lon="27.80568603426218">
        <ele>287.56999999999999</ele>
        <time>2013-08-17T08:49:14Z</time>
      </trkpt>
      <trkpt lat="54.187065018340945" lon="27.80568603426218">
        <ele>287.56999999999999</ele>
        <time>2013-08-17T08:49:30Z</time>
      </trkpt>
      <trkpt lat="54.187111034989357" lon="27.805582014843822">
        <ele>290.45999999999998</ele>
        <time>2013-08-17T08:49:43Z</time>
      </trkpt>
      <trkpt lat="54.187138024717569" lon="27.80547296628356">
        <ele>291.42000000000002</ele>
        <time>2013-08-17T08:49:57Z</time>
      </trkpt>
      <trkpt lat="54.187169959768653" lon="27.80542996712029">
        <ele>293.33999999999997</ele>
        <time>2013-08-17T08:50:12Z</time>
      </trkpt>
      <trkpt lat="54.18720499612391" lon="27.805367019027472">
        <ele>294.77999999999997</ele>
        <time>2013-08-17T08:50:24Z</time>
      </trkpt>
      <trkpt lat="54.187242966145277" lon="27.805309016257524">
        <ele>296.69999999999999</ele>
        <time>2013-08-17T08:50:36Z</time>
      </trkpt>
      <trkpt lat="54.187276996672153" lon="27.805286971852183">
        <ele>298.14999999999998</ele>
        <time>2013-08-17T08:50:48Z</time>
      </trkpt>
      <trkpt lat="54.187299041077495" lon="27.805241039022803">
        <ele>300.06999999999999</ele>
        <time>2013-08-17T08:50:59Z</time>
      </trkpt>
      <trkpt lat="54.187327036634088" lon="27.805177001282573">
        <ele>301.50999999999999</ele>
        <time>2013-08-17T08:51:13Z</time>
      </trkpt>
      <trkpt lat="54.187325024977326" lon="27.805152023211122">
        <ele>301.99000000000001</ele>
        <time>2013-08-17T08:51:16Z</time>
      </trkpt>
      <trkpt lat="54.187323013320565" lon="27.805084967985749">
        <ele>303.43000000000001</ele>
        <time>2013-08-17T08:51:29Z</time>
      </trkpt>
      <trkpt lat="54.187345979735255" lon="27.805052027106285">
        <ele>304.88</ele>
        <time>2013-08-17T08:51:43Z</time>
      </trkpt>
      <trkpt lat="54.187368024140596" lon="27.805010033771396">
        <ele>306.80000000000001</ele>
        <time>2013-08-17T08:51:55Z</time>
      </trkpt>
      <trkpt lat="54.187439018860459" lon="27.804953036829829">
        <ele>309.19999999999999</ele>
        <time>2013-08-17T08:52:07Z</time>
      </trkpt>
      <trkpt lat="54.187480006366968" lon="27.804939039051533">
        <ele>311.12</ele>
        <time>2013-08-17T08:52:22Z</time>
      </trkpt>
      <trkpt lat="54.187481012195349" lon="27.804937027394772">
        <ele>311.12</ele>
        <time>2013-08-17T08:52:47Z</time>
      </trkpt>
      <trkpt lat="54.187482018023729" lon="27.804820016026497">
        <ele>312.08999999999997</ele>
        <time>2013-08-17T08:53:28Z</time>
      </trkpt>
      <trkpt lat="54.187485035508871" lon="27.804808029904962">
        <ele>312.08999999999997</ele>
        <time>2013-08-17T08:53:29Z</time>
      </trkpt>
      <trkpt lat="54.187517976388335" lon="27.804637039080262">
        <ele>311.60000000000002</ele>
        <time>2013-08-17T08:53:47Z</time>
      </trkpt>
      <trkpt lat="54.187489980831742" lon="27.804649025201797">
        <ele>311.12</ele>
        <time>2013-08-17T08:54:07Z</time>
      </trkpt>
      <trkpt lat="54.187128972262144" lon="27.804706022143364">
        <ele>306.80000000000001</ele>
        <time>2013-08-17T08:54:20Z</time>
      </trkpt>
      <trkpt lat="54.18699000030756" lon="27.8046989813447">
        <ele>303.91000000000003</ele>
        <time>2013-08-17T08:54:23Z</time>
      </trkpt>
      <trkpt lat="54.186207968741655" lon="27.804902996867895">
        <ele>289.97000000000003</ele>
        <time>2013-08-17T08:54:37Z</time>
      </trkpt>
      <trkpt lat="54.185991967096925" lon="27.804976003244519">
        <ele>287.08999999999997</ele>
        <time>2013-08-17T08:54:40Z</time>
      </trkpt>
      <trkpt lat="54.185697007924318" lon="27.804966028779745">
        <ele>283.73000000000002</ele>
        <time>2013-08-17T08:54:46Z</time>
      </trkpt>
      <trkpt lat="54.185668006539345" lon="27.804498989135027">
        <ele>281.31999999999999</ele>
        <time>2013-08-17T08:54:54Z</time>
      </trkpt>
      <trkpt lat="54.185691978782415" lon="27.80403396114707">
        <ele>280.83999999999997</ele>
        <time>2013-08-17T08:55:04Z</time>
      </trkpt>
      <trkpt lat="54.185675969347358" lon="27.803819971159101">
        <ele>280.83999999999997</ele>
        <time>2013-08-17T08:55:10Z</time>
      </trkpt>
      <trkpt lat="54.185716034844518" lon="27.80360103584826">
        <ele>281.31999999999999</ele>
        <time>2013-08-17T08:55:17Z</time>
      </trkpt>
      <trkpt lat="54.185755010694265" lon="27.803386962041259">
        <ele>281.31999999999999</ele>
        <time>2013-08-17T08:55:22Z</time>
      </trkpt>
      <trkpt lat="54.185795998200774" lon="27.803102983161807">
        <ele>279.88</ele>
        <time>2013-08-17T08:55:26Z</time>
      </trkpt>
      <trkpt lat="54.185845032334328" lon="27.80250602401793">
        <ele>275.56</ele>
        <time>2013-08-17T08:55:33Z</time>
      </trkpt>
      <trkpt lat="54.185934970155358" lon="27.802479034289718">
        <ele>274.11000000000001</ele>
        <time>2013-08-17T08:55:36Z</time>
      </trkpt>
      <trkpt lat="54.186323974281549" lon="27.802499989047647">
        <ele>272.19</ele>
        <time>2013-08-17T08:55:49Z</time>
      </trkpt>
      <trkpt lat="54.186822026968002" lon="27.802480040118098">
        <ele>273.63</ele>
        <time>2013-08-17T08:56:05Z</time>
      </trkpt>
      <trkpt lat="54.187124026939273" lon="27.802451038733125">
        <ele>276.04000000000002</ele>
        <time>2013-08-17T08:56:16Z</time>
      </trkpt>
      <trkpt lat="54.18739995919168" lon="27.802413990721107">
        <ele>277</ele>
        <time>2013-08-17T08:56:27Z</time>
      </trkpt>
      <trkpt lat="54.187812013551593" lon="27.802371997386217">
        <ele>278.44</ele>
        <time>2013-08-17T08:56:41Z</time>
      </trkpt>
      <trkpt lat="54.18828098103404" lon="27.802367974072695">
        <ele>279.39999999999998</ele>
        <time>2013-08-17T08:56:57Z</time>
      </trkpt>
      <trkpt lat="54.188674008473754" lon="27.802258003503084">
        <ele>280.83999999999997</ele>
        <time>2013-08-17T08:57:11Z</time>
      </trkpt>
      <trkpt lat="54.189165020361543" lon="27.802178040146828">
        <ele>281.80000000000001</ele>
        <time>2013-08-17T08:57:27Z</time>
      </trkpt>
      <trkpt lat="54.189446987584233" lon="27.802048036828637">
        <ele>281.31999999999999</ele>
        <time>2013-08-17T08:57:38Z</time>
      </trkpt>
      <trkpt lat="54.189609009772539" lon="27.801873022690415">
        <ele>279.88</ele>
        <time>2013-08-17T08:57:43Z</time>
      </trkpt>
      <trkpt lat="54.189797015860677" lon="27.801623996347189">
        <ele>278.44</ele>
        <time>2013-08-17T08:57:48Z</time>
      </trkpt>
      <trkpt lat="54.189874967560172" lon="27.801500027999282">
        <ele>277.95999999999998</ele>
        <time>2013-08-17T08:57:50Z</time>
      </trkpt>
      <trkpt lat="54.18997798115015" lon="27.801275979727507">
        <ele>277.48000000000002</ele>
        <time>2013-08-17T08:57:53Z</time>
      </trkpt>
      <trkpt lat="54.190144026651978" lon="27.800994012504816">
        <ele>275.56</ele>
        <time>2013-08-17T08:57:57Z</time>
      </trkpt>
      <trkpt lat="54.190552979707718" lon="27.800666028633714">
        <ele>274.11000000000001</ele>
        <time>2013-08-17T08:58:08Z</time>
      </trkpt>
      <trkpt lat="54.190698992460966" lon="27.800587993115187">
        <ele>273.14999999999998</ele>
        <time>2013-08-17T08:58:12Z</time>
      </trkpt>
      <trkpt lat="54.191367030143738" lon="27.800267972052097">
        <ele>269.31</ele>
        <time>2013-08-17T08:58:24Z</time>
      </trkpt>
      <trkpt lat="54.191495021805167" lon="27.800195971503854">
        <ele>268.82999999999998</ele>
        <time>2013-08-17T08:58:26Z</time>
      </trkpt>
      <trkpt lat="54.191821999847889" lon="27.80010100454092">
        <ele>266.89999999999998</ele>
        <time>2013-08-17T08:58:31Z</time>
      </trkpt>
      <trkpt lat="54.192092986777425" lon="27.800009977072477">
        <ele>265.45999999999998</ele>
        <time>2013-08-17T08:58:36Z</time>
      </trkpt>
      <trkpt lat="54.192551979795098" lon="27.799419974908233">
        <ele>262.57999999999998</ele>
        <time>2013-08-17T08:58:50Z</time>
      </trkpt>
      <trkpt lat="54.192564971745014" lon="27.799415029585361">
        <ele>263.06</ele>
        <time>2013-08-17T08:59:04Z</time>
      </trkpt>
      <trkpt lat="54.192576035857201" lon="27.799411006271839">
        <ele>263.06</ele>
        <time>2013-08-17T08:59:06Z</time>
      </trkpt>
      <trkpt lat="54.192758006975055" lon="27.799282008782029">
        <ele>262.10000000000002</ele>
        <time>2013-08-17T08:59:18Z</time>
      </trkpt>
      <trkpt lat="54.192874012514949" lon="27.799255019053817">
        <ele>262.10000000000002</ele>
        <time>2013-08-17T08:59:24Z</time>
      </trkpt>
      <trkpt lat="54.192921034991741" lon="27.799185030162334">
        <ele>261.62</ele>
        <time>2013-08-17T08:59:28Z</time>
      </trkpt>
      <trkpt lat="54.192950958386064" lon="27.799028037115932">
        <ele>261.13999999999999</ele>
        <time>2013-08-17T08:59:35Z</time>
      </trkpt>
      <trkpt lat="54.192968979477882" lon="27.798551023006439">
        <ele>262.10000000000002</ele>
        <time>2013-08-17T08:59:47Z</time>
      </trkpt>
      <trkpt lat="54.19294198974967" lon="27.798195965588093">
        <ele>260.64999999999998</ele>
        <time>2013-08-17T08:59:58Z</time>
      </trkpt>
      <trkpt lat="54.192925980314612" lon="27.798004020005465">
        <ele>260.64999999999998</ele>
        <time>2013-08-17T09:00:04Z</time>
      </trkpt>
      <trkpt lat="54.192975014448166" lon="27.797979963943362">
        <ele>260.17000000000002</ele>
        <time>2013-08-17T09:00:20Z</time>
      </trkpt>
      <trkpt lat="54.192961016669869" lon="27.798004020005465">
        <ele>260.64999999999998</ele>
        <time>2013-08-17T09:00:31Z</time>
      </trkpt>
      <trkpt lat="54.192935032770038" lon="27.798150032758713">
        <ele>261.13999999999999</ele>
        <time>2013-08-17T09:00:38Z</time>
      </trkpt>
      <trkpt lat="54.192974008619785" lon="27.79876803047955">
        <ele>260.64999999999998</ele>
        <time>2013-08-17T09:00:53Z</time>
      </trkpt>
      <trkpt lat="54.192924974486232" lon="27.799169020727277">
        <ele>261.62</ele>
        <time>2013-08-17T09:01:05Z</time>
      </trkpt>
      <trkpt lat="54.193049026653171" lon="27.799227023497224">
        <ele>260.64999999999998</ele>
        <time>2013-08-17T09:01:16Z</time>
      </trkpt>
      <trkpt lat="54.193227980285883" lon="27.799149993807077">
        <ele>260.64999999999998</ele>
        <time>2013-08-17T09:01:20Z</time>
      </trkpt>
      <trkpt lat="54.193584965541959" lon="27.799049997702241">
        <ele>259.20999999999998</ele>
        <time>2013-08-17T09:01:32Z</time>
      </trkpt>
      <trkpt lat="54.194041024893522" lon="27.798891998827457">
        <ele>257.29000000000002</ele>
        <time>2013-08-17T09:01:46Z</time>
      </trkpt>
      <trkpt lat="54.194457018747926" lon="27.798780016601086">
        <ele>252.47999999999999</ele>
        <time>2013-08-17T09:02:00Z</time>
      </trkpt>
      <trkpt lat="54.194598002359271" lon="27.798752021044493">
        <ele>252</ele>
        <time>2013-08-17T09:02:04Z</time>
      </trkpt>
      <trkpt lat="54.194752983748913" lon="27.798695024102926">
        <ele>251.03999999999999</ele>
        <time>2013-08-17T09:02:08Z</time>
      </trkpt>
      <trkpt lat="54.194974014535546" lon="27.79864196665585">
        <ele>250.56</ele>
        <time>2013-08-17T09:02:13Z</time>
      </trkpt>
      <trkpt lat="54.195424038916826" lon="27.798542976379395">
        <ele>249.59999999999999</ele>
        <time>2013-08-17T09:02:25Z</time>
      </trkpt>
      <trkpt lat="54.19556301087141" lon="27.79848899692297">
        <ele>250.08000000000001</ele>
        <time>2013-08-17T09:02:29Z</time>
      </trkpt>
      <trkpt lat="54.195759985595942" lon="27.798406016081572">
        <ele>249.12</ele>
        <time>2013-08-17T09:02:34Z</time>
      </trkpt>
      <trkpt lat="54.196114037185907" lon="27.798249023035169">
        <ele>249.12</ele>
        <time>2013-08-17T09:02:43Z</time>
      </trkpt>
      <trkpt lat="54.196274969726801" lon="27.798181967809796">
        <ele>249.12</ele>
        <time>2013-08-17T09:02:47Z</time>
      </trkpt>
      <trkpt lat="54.196699010208249" lon="27.798001002520323">
        <ele>249.59999999999999</ele>
        <time>2013-08-17T09:02:59Z</time>
      </trkpt>
      <trkpt lat="54.197120033204556" lon="27.797951968386769">
        <ele>250.08000000000001</ele>
        <time>2013-08-17T09:03:11Z</time>
      </trkpt>
      <trkpt lat="54.197270991280675" lon="27.797922967001796">
        <ele>250.08000000000001</ele>
        <time>2013-08-17T09:03:15Z</time>
      </trkpt>
      <trkpt lat="54.197448017075658" lon="27.797812996432185">
        <ele>249.59999999999999</ele>
        <time>2013-08-17T09:03:20Z</time>
      </trkpt>
      <trkpt lat="54.197768038138747" lon="27.797752982005477">
        <ele>250.56</ele>
        <time>2013-08-17T09:03:31Z</time>
      </trkpt>
      <trkpt lat="54.198087975382805" lon="27.797804027795792">
        <ele>251.52000000000001</ele>
        <time>2013-08-17T09:03:44Z</time>
      </trkpt>
      <trkpt lat="54.198320992290974" lon="27.797853983938694">
        <ele>252</ele>
        <time>2013-08-17T09:03:55Z</time>
      </trkpt>
      <trkpt lat="54.198649981990457" lon="27.797851972281933">
        <ele>252.47999999999999</ele>
        <time>2013-08-17T09:04:08Z</time>
      </trkpt>
      <trkpt lat="54.199006967246532" lon="27.798056993633509">
        <ele>253.44</ele>
        <time>2013-08-17T09:04:22Z</time>
      </trkpt>
      <trkpt lat="54.199288012459874" lon="27.798233013600111">
        <ele>254.88999999999999</ele>
        <time>2013-08-17T09:04:34Z</time>
      </trkpt>
      <trkpt lat="54.199440982192755" lon="27.797905029729009">
        <ele>255.37</ele>
        <time>2013-08-17T09:04:45Z</time>
      </trkpt>
      <trkpt lat="54.199609961360693" lon="27.796926023438573">
        <ele>254.41</ele>
        <time>2013-08-17T09:05:00Z</time>
      </trkpt>
      <trkpt lat="54.199836021289229" lon="27.795272022485733">
        <ele>249.59999999999999</ele>
        <time>2013-08-17T09:05:14Z</time>
      </trkpt>
      <trkpt lat="54.20005202293396" lon="27.793652974069118">
        <ele>248.16</ele>
        <time>2013-08-17T09:05:28Z</time>
      </trkpt>
      <trkpt lat="54.200127040967345" lon="27.793005974963307">
        <ele>251.03999999999999</ele>
        <time>2013-08-17T09:05:38Z</time>
      </trkpt>
      <trkpt lat="54.200340025126934" lon="27.791705019772053">
        <ele>253.44</ele>
        <time>2013-08-17T09:05:57Z</time>
      </trkpt>
      <trkpt lat="54.200490983203053" lon="27.790585029870272">
        <ele>257.29000000000002</ele>
        <time>2013-08-17T09:06:14Z</time>
      </trkpt>
      <trkpt lat="54.20059097930789" lon="27.789812972769141">
        <ele>261.62</ele>
        <time>2013-08-17T09:06:28Z</time>
      </trkpt>
      <trkpt lat="54.200645964592695" lon="27.789398990571499">
        <ele>263.06</ele>
        <time>2013-08-17T09:06:39Z</time>
      </trkpt>
      <trkpt lat="54.200733974575996" lon="27.78886497952044">
        <ele>263.06</ele>
        <time>2013-08-17T09:06:52Z</time>
      </trkpt>
      <trkpt lat="54.200778985396028" lon="27.78823901899159">
        <ele>262.57999999999998</ele>
        <time>2013-08-17T09:07:03Z</time>
      </trkpt>
      <trkpt lat="54.20078401453793" lon="27.78815696015954">
        <ele>262.57999999999998</ele>
        <time>2013-08-17T09:07:04Z</time>
      </trkpt>
      <trkpt lat="54.200807986781001" lon="27.787529993802309">
        <ele>260.64999999999998</ele>
        <time>2013-08-17T09:07:11Z</time>
      </trkpt>
      <trkpt lat="54.200817039236426" lon="27.787094973027706">
        <ele>259.69</ele>
        <time>2013-08-17T09:07:17Z</time>
      </trkpt>
      <trkpt lat="54.200703967362642" lon="27.786402963101864">
        <ele>260.17000000000002</ele>
        <time>2013-08-17T09:07:29Z</time>
      </trkpt>
      <trkpt lat="54.200577987357974" lon="27.785600982606411">
        <ele>262.57999999999998</ele>
        <time>2013-08-17T09:07:44Z</time>
      </trkpt>
      <trkpt lat="54.200544040650129" lon="27.785343993455172">
        <ele>264.98000000000002</ele>
        <time>2013-08-17T09:07:50Z</time>
      </trkpt>
      <trkpt lat="54.200510010123253" lon="27.784978039562702">
        <ele>266.89999999999998</ele>
        <time>2013-08-17T09:07:59Z</time>
      </trkpt>
      <trkpt lat="54.200602965429425" lon="27.784182010218501">
        <ele>268.82999999999998</ele>
        <time>2013-08-17T09:08:16Z</time>
      </trkpt>
      <trkpt lat="54.200714025646448" lon="27.783388998359442">
        <ele>269.31</ele>
        <time>2013-08-17T09:08:33Z</time>
      </trkpt>
      <trkpt lat="54.200887028127909" lon="27.78230999596417">
        <ele>270.75</ele>
        <time>2013-08-17T09:08:53Z</time>
      </trkpt>
      <trkpt lat="54.201022982597351" lon="27.781356973573565">
        <ele>270.26999999999998</ele>
        <time>2013-08-17T09:09:10Z</time>
      </trkpt>
      <trkpt lat="54.201154997572303" lon="27.780466983094811">
        <ele>271.23000000000002</ele>
        <time>2013-08-17T09:09:27Z</time>
      </trkpt>
      <trkpt lat="54.201224986463785" lon="27.779684029519558">
        <ele>271.23000000000002</ele>
        <time>2013-08-17T09:09:42Z</time>
      </trkpt>
      <trkpt lat="54.201249964535236" lon="27.7791309915483">
        <ele>272.67000000000002</ele>
        <time>2013-08-17T09:09:55Z</time>
      </trkpt>
      <trkpt lat="54.201252982020378" lon="27.778547024354339">
        <ele>273.63</ele>
        <time>2013-08-17T09:10:07Z</time>
      </trkpt>
      <trkpt lat="54.201259016990662" lon="27.777957022190094">
        <ele>276.04000000000002</ele>
        <time>2013-08-17T09:10:20Z</time>
      </trkpt>
      <trkpt lat="54.201281983405352" lon="27.777522001415491">
        <ele>278.92000000000002</ele>
        <time>2013-08-17T09:10:32Z</time>
      </trkpt>
      <trkpt lat="54.201717004179955" lon="27.777415970340371">
        <ele>281.31999999999999</ele>
        <time>2013-08-17T09:10:47Z</time>
      </trkpt>
      <trkpt lat="54.20215998776257" lon="27.777288984507322">
        <ele>281.80000000000001</ele>
        <time>2013-08-17T09:11:01Z</time>
      </trkpt>
      <trkpt lat="54.20262903906405" lon="27.777169039472938">
        <ele>284.20999999999998</ele>
        <time>2013-08-17T09:11:16Z</time>
      </trkpt>
      <trkpt lat="54.202816039323807" lon="27.777082035318017">
        <ele>283.73000000000002</ele>
        <time>2013-08-17T09:11:21Z</time>
      </trkpt>
      <trkpt lat="54.203365975990891" lon="27.776869973167777">
        <ele>283.25</ele>
        <time>2013-08-17T09:11:35Z</time>
      </trkpt>
      <trkpt lat="54.203858999535441" lon="27.776612984016538">
        <ele>281.80000000000001</ele>
        <time>2013-08-17T09:11:47Z</time>
      </trkpt>
      <trkpt lat="54.204294020310044" lon="27.776536960154772">
        <ele>278.92000000000002</ele>
        <time>2013-08-17T09:11:58Z</time>
      </trkpt>
      <trkpt lat="54.204400973394513" lon="27.776507958769798">
        <ele>277.95999999999998</ele>
        <time>2013-08-17T09:12:08Z</time>
      </trkpt>
      <trkpt lat="54.204409020021558" lon="27.776491027325392">
        <ele>277.95999999999998</ele>
        <time>2013-08-17T09:12:20Z</time>
      </trkpt>
      <trkpt lat="54.204397033900023" lon="27.776470994576812">
        <ele>277.95999999999998</ele>
        <time>2013-08-17T09:12:22Z</time>
      </trkpt>
      <trkpt lat="54.204325033351779" lon="27.776482980698347">
        <ele>277.95999999999998</ele>
        <time>2013-08-17T09:12:28Z</time>
      </trkpt>
      <trkpt lat="54.204274993389845" lon="27.776357000693679">
        <ele>276.51999999999998</ele>
        <time>2013-08-17T09:12:33Z</time>
      </trkpt>
      <trkpt lat="54.204298965632915" lon="27.775895996019244">
        <ele>277.48000000000002</ele>
        <time>2013-08-17T09:12:44Z</time>
      </trkpt>
      <trkpt lat="54.204382030293345" lon="27.775598019361496">
        <ele>281.80000000000001</ele>
        <time>2013-08-17T09:12:53Z</time>
      </trkpt>
      <trkpt lat="54.204374989494681" lon="27.77521999552846">
        <ele>288.05000000000001</ele>
        <time>2013-08-17T09:13:03Z</time>
      </trkpt>
      <trkpt lat="54.204346993938088" lon="27.774844989180565">
        <ele>292.86000000000001</ele>
        <time>2013-08-17T09:13:15Z</time>
      </trkpt>
      <trkpt lat="54.204334001988173" lon="27.774439975619316">
        <ele>294.77999999999997</ele>
        <time>2013-08-17T09:13:26Z</time>
      </trkpt>
      <trkpt lat="54.204321010038257" lon="27.774046026170254">
        <ele>296.69999999999999</ele>
        <time>2013-08-17T09:13:40Z</time>
      </trkpt>
      <trkpt lat="54.204323021695018" lon="27.774062035605311">
        <ele>296.22000000000003</ele>
        <time>2013-08-17T09:13:45Z</time>
      </trkpt>
      <trkpt lat="54.204344982281327" lon="27.774713980033994">
        <ele>296.69999999999999</ele>
        <time>2013-08-17T09:13:58Z</time>
      </trkpt>
      <trkpt lat="54.204345988109708" lon="27.774849012494087">
        <ele>296.22000000000003</ele>
        <time>2013-08-17T09:14:00Z</time>
      </trkpt>
      <trkpt lat="54.204367026686668" lon="27.775060990825295">
        <ele>295.74000000000001</ele>
        <time>2013-08-17T09:14:03Z</time>
      </trkpt>
      <trkpt lat="54.204368032515049" lon="27.775683011859655">
        <ele>293.33999999999997</ele>
        <time>2013-08-17T09:14:11Z</time>
      </trkpt>
      <trkpt lat="54.204317992553115" lon="27.775949975475669">
        <ele>292.38</ele>
        <time>2013-08-17T09:14:14Z</time>
      </trkpt>
      <trkpt lat="54.204298965632915" lon="27.776238983497024">
        <ele>291.42000000000002</ele>
        <time>2013-08-17T09:14:17Z</time>
      </trkpt>
      <trkpt lat="54.2043930105865" lon="27.776524974033237">
        <ele>289.49000000000001</ele>
        <time>2013-08-17T09:14:23Z</time>
      </trkpt>
      <trkpt lat="54.204738009721041" lon="27.776415003463626">
        <ele>285.64999999999998</ele>
        <time>2013-08-17T09:14:34Z</time>
      </trkpt>
      <trkpt lat="54.205169007182121" lon="27.776239989325404">
        <ele>280.83999999999997</ele>
        <time>2013-08-17T09:14:45Z</time>
      </trkpt>
      <trkpt lat="54.205304039642215" lon="27.776146028190851">
        <ele>278.92000000000002</ele>
        <time>2013-08-17T09:14:48Z</time>
      </trkpt>
      <trkpt lat="54.205638980492949" lon="27.776100011542439">
        <ele>275.06999999999999</ele>
        <time>2013-08-17T09:14:53Z</time>
      </trkpt>
      <trkpt lat="54.206702979281545" lon="27.776497984305024">
        <ele>266.42000000000002</ele>
        <time>2013-08-17T09:15:06Z</time>
      </trkpt>
      <trkpt lat="54.207188040018082" lon="27.776714991778135">
        <ele>264.98000000000002</ele>
        <time>2013-08-17T09:15:16Z</time>
      </trkpt>
      <trkpt lat="54.207648960873485" lon="27.776962006464601">
        <ele>266.42000000000002</ele>
        <time>2013-08-17T09:15:27Z</time>
      </trkpt>
      <trkpt lat="54.207801008597016" lon="27.777063008397818">
        <ele>265.45999999999998</ele>
        <time>2013-08-17T09:15:31Z</time>
      </trkpt>
      <trkpt lat="54.208564013242722" lon="27.777495011687279">
        <ele>261.62</ele>
        <time>2013-08-17T09:15:43Z</time>
      </trkpt>
      <trkpt lat="54.209415027871728" lon="27.777923997491598">
        <ele>259.20999999999998</ele>
        <time>2013-08-17T09:15:56Z</time>
      </trkpt>
      <trkpt lat="54.209622982889414" lon="27.77801401913166">
        <ele>258.73000000000002</ele>
        <time>2013-08-17T09:16:00Z</time>
      </trkpt>
      <trkpt lat="54.209849964827299" lon="27.778134969994426">
        <ele>257.29000000000002</ele>
        <time>2013-08-17T09:16:05Z</time>
      </trkpt>
      <trkpt lat="54.210060015320778" lon="27.778243012726307">
        <ele>257.29000000000002</ele>
        <time>2013-08-17T09:16:10Z</time>
      </trkpt>
      <trkpt lat="54.210401996970177" lon="27.778073027729988">
        <ele>255.84999999999999</ele>
        <time>2013-08-17T09:16:17Z</time>
      </trkpt>
      <trkpt lat="54.211119990795851" lon="27.776959994807839">
        <ele>253.44</ele>
        <time>2013-08-17T09:16:33Z</time>
      </trkpt>
      <trkpt lat="54.211928006261587" lon="27.775961961597204">
        <ele>251.52000000000001</ele>
        <time>2013-08-17T09:16:51Z</time>
      </trkpt>
      <trkpt lat="54.212829982861876" lon="27.775185965001583">
        <ele>250.08000000000001</ele>
        <time>2013-08-17T09:17:10Z</time>
      </trkpt>
      <trkpt lat="54.213803960010409" lon="27.774389013648033">
        <ele>247.68000000000001</ele>
        <time>2013-08-17T09:17:27Z</time>
      </trkpt>
      <trkpt lat="54.21479101292789" lon="27.773612011224031">
        <ele>244.78999999999999</ele>
        <time>2013-08-17T09:17:42Z</time>
      </trkpt>
      <trkpt lat="54.215180017054081" lon="27.773297019302845">
        <ele>244.78999999999999</ele>
        <time>2013-08-17T09:17:49Z</time>
      </trkpt>
      <trkpt lat="54.215240031480789" lon="27.772978004068136">
        <ele>244.78999999999999</ele>
        <time>2013-08-17T09:17:57Z</time>
      </trkpt>
      <trkpt lat="54.21522100456059" lon="27.772936010733247">
        <ele>244.78999999999999</ele>
        <time>2013-08-17T09:18:14Z</time>
      </trkpt>
      <trkpt lat="54.215168030932546" lon="27.772860992699862">
        <ele>244.78999999999999</ele>
        <time>2013-08-17T09:18:18Z</time>
      </trkpt>
      <trkpt lat="54.215108016505837" lon="27.77227995917201">
        <ele>245.27000000000001</ele>
        <time>2013-08-17T09:18:31Z</time>
      </trkpt>
      <trkpt lat="54.215144980698824" lon="27.771546961739659">
        <ele>244.78999999999999</ele>
        <time>2013-08-17T09:18:45Z</time>
      </trkpt>
      <trkpt lat="54.215167025104165" lon="27.771042035892606">
        <ele>246.22999999999999</ele>
        <time>2013-08-17T09:18:57Z</time>
      </trkpt>
      <trkpt lat="54.215169036760926" lon="27.770818993449211">
        <ele>246.72</ele>
        <time>2013-08-17T09:19:03Z</time>
      </trkpt>
      <trkpt lat="54.215180017054081" lon="27.77049302123487">
        <ele>248.16</ele>
        <time>2013-08-17T09:19:11Z</time>
      </trkpt>
      <trkpt lat="54.215256962925196" lon="27.770001003518701">
        <ele>249.12</ele>
        <time>2013-08-17T09:19:24Z</time>
      </trkpt>
      <trkpt lat="54.215294010937214" lon="27.769225006923079">
        <ele>250.08000000000001</ele>
        <time>2013-08-17T09:19:41Z</time>
      </trkpt>
      <trkpt lat="54.215339021757245" lon="27.768481029197574">
        <ele>252.47999999999999</ele>
        <time>2013-08-17T09:19:57Z</time>
      </trkpt>
      <trkpt lat="54.215408004820347" lon="27.767705032601953">
        <ele>253.93000000000001</ele>
        <time>2013-08-17T09:20:13Z</time>
      </trkpt>
      <trkpt lat="54.215490985661745" lon="27.766771037131548">
        <ele>254.88999999999999</ele>
        <time>2013-08-17T09:20:32Z</time>
      </trkpt>
      <trkpt lat="54.215562986209989" lon="27.766049019992352">
        <ele>255.37</ele>
        <time>2013-08-17T09:20:46Z</time>
      </trkpt>
      <trkpt lat="54.215640015900135" lon="27.76527201756835">
        <ele>254.88999999999999</ele>
        <time>2013-08-17T09:21:01Z</time>
      </trkpt>
      <trkpt lat="54.215733977034688" lon="27.764372974634171">
        <ele>253.93000000000001</ele>
        <time>2013-08-17T09:21:18Z</time>
      </trkpt>
      <trkpt lat="54.215857023373246" lon="27.763749025762081">
        <ele>252</ele>
        <time>2013-08-17T09:21:32Z</time>
      </trkpt>
      <trkpt lat="54.215892981737852" lon="27.763499999418855">
        <ele>250.08000000000001</ele>
        <time>2013-08-17T09:21:41Z</time>
      </trkpt>
      <trkpt lat="54.21595299616456" lon="27.763520032167435">
        <ele>250.56</ele>
        <time>2013-08-17T09:21:44Z</time>
      </trkpt>
      <trkpt lat="54.216269999742508" lon="27.763421041890979">
        <ele>252</ele>
        <time>2013-08-17T09:21:56Z</time>
      </trkpt>
      <trkpt lat="54.216656992211938" lon="27.762961965054274">
        <ele>252.47999999999999</ele>
        <time>2013-08-17T09:22:11Z</time>
      </trkpt>
      <trkpt lat="54.217050019651651" lon="27.762693995609879">
        <ele>253.93000000000001</ele>
        <time>2013-08-17T09:22:25Z</time>
      </trkpt>
      <trkpt lat="54.217380015179515" lon="27.762525016441941">
        <ele>254.41</ele>
        <time>2013-08-17T09:22:38Z</time>
      </trkpt>
      <trkpt lat="54.217436006292701" lon="27.762106005102396">
        <ele>253.93000000000001</ele>
        <time>2013-08-17T09:22:50Z</time>
      </trkpt>
      <trkpt lat="54.217528039589524" lon="27.761287009343505">
        <ele>253.93000000000001</ele>
        <time>2013-08-17T09:23:06Z</time>
      </trkpt>
      <trkpt lat="54.217571038752794" lon="27.760491985827684">
        <ele>252.96000000000001</ele>
        <time>2013-08-17T09:23:22Z</time>
      </trkpt>
      <trkpt lat="54.217591993510723" lon="27.759846998378634">
        <ele>251.52000000000001</ele>
        <time>2013-08-17T09:23:36Z</time>
      </trkpt>
      <trkpt lat="54.217816963791847" lon="27.759768040850759">
        <ele>251.03999999999999</ele>
        <time>2013-08-17T09:23:46Z</time>
      </trkpt>
      <trkpt lat="54.218161962926388" lon="27.759776003658772">
        <ele>251.52000000000001</ele>
        <time>2013-08-17T09:23:59Z</time>
      </trkpt>
      <trkpt lat="54.218439990654588" lon="27.759910030290484">
        <ele>252.47999999999999</ele>
        <time>2013-08-17T09:24:10Z</time>
      </trkpt>
      <trkpt lat="54.218414006754756" lon="27.760433983057737">
        <ele>251.52000000000001</ele>
        <time>2013-08-17T09:24:21Z</time>
      </trkpt>
      <trkpt lat="54.218504028394818" lon="27.760894987732172">
        <ele>249.59999999999999</ele>
        <time>2013-08-17T09:24:33Z</time>
      </trkpt>
      <trkpt lat="54.218793958425522" lon="27.760817036032677">
        <ele>248.63999999999999</ele>
        <time>2013-08-17T09:24:44Z</time>
      </trkpt>
      <trkpt lat="54.219206012785435" lon="27.760879984125495">
        <ele>247.68000000000001</ele>
        <time>2013-08-17T09:24:57Z</time>
      </trkpt>
      <trkpt lat="54.219398964196444" lon="27.76114703156054">
        <ele>247.19999999999999</ele>
        <time>2013-08-17T09:25:08Z</time>
      </trkpt>
      <trkpt lat="54.21947599388659" lon="27.761224983260036">
        <ele>246.72</ele>
        <time>2013-08-17T09:25:23Z</time>
      </trkpt>
      <trkpt lat="54.219472976401448" lon="27.761237975209951">
        <ele>246.72</ele>
        <time>2013-08-17T09:25:30Z</time>
      </trkpt>
      <trkpt lat="54.219464007765055" lon="27.76129798963666">
        <ele>246.72</ele>
        <time>2013-08-17T09:25:34Z</time>
      </trkpt>
      <trkpt lat="54.21949602663517" lon="27.761369990184903">
        <ele>245.75</ele>
        <time>2013-08-17T09:25:41Z</time>
      </trkpt>
      <trkpt lat="54.219599962234497" lon="27.761398991569877">
        <ele>245.27000000000001</ele>
        <time>2013-08-17T09:25:53Z</time>
      </trkpt>
      <trkpt lat="54.219631981104612" lon="27.761423969641328">
        <ele>245.75</ele>
        <time>2013-08-17T09:26:09Z</time>
      </trkpt>
      <trkpt lat="54.219783022999763" lon="27.761523965746164">
        <ele>246.22999999999999</ele>
        <time>2013-08-17T09:26:21Z</time>
      </trkpt>
      <trkpt lat="54.219913026317954" lon="27.761717000976205">
        <ele>246.72</ele>
        <time>2013-08-17T09:26:34Z</time>
      </trkpt>
      <trkpt lat="54.219891987740993" lon="27.761726975440979">
        <ele>246.72</ele>
        <time>2013-08-17T09:26:51Z</time>
      </trkpt>
      <trkpt lat="54.219887964427471" lon="27.761730998754501">
        <ele>246.72</ele>
        <time>2013-08-17T09:26:52Z</time>
      </trkpt>
      <trkpt lat="54.219796014949679" lon="27.761841975152493">
        <ele>246.22999999999999</ele>
        <time>2013-08-17T09:27:00Z</time>
      </trkpt>
      <trkpt lat="54.219684032723308" lon="27.762312032282352">
        <ele>246.72</ele>
        <time>2013-08-17T09:27:14Z</time>
      </trkpt>
      <trkpt lat="54.219603985548019" lon="27.762847971171141">
        <ele>247.68000000000001</ele>
        <time>2013-08-17T09:27:28Z</time>
      </trkpt>
      <trkpt lat="54.219552017748356" lon="27.763320039957762">
        <ele>247.19999999999999</ele>
        <time>2013-08-17T09:27:43Z</time>
      </trkpt>
      <trkpt lat="54.219552017748356" lon="27.763348035514355">
        <ele>247.19999999999999</ele>
        <time>2013-08-17T09:27:44Z</time>
      </trkpt>
      <trkpt lat="54.219590993598104" lon="27.763406960293651">
        <ele>247.19999999999999</ele>
        <time>2013-08-17T09:27:47Z</time>
      </trkpt>
      <trkpt lat="54.219791991636157" lon="27.763488013297319">
        <ele>246.72</ele>
        <time>2013-08-17T09:27:53Z</time>
      </trkpt>
      <trkpt lat="54.220127016305923" lon="27.763748019933701">
        <ele>245.27000000000001</ele>
        <time>2013-08-17T09:28:04Z</time>
      </trkpt>
      <trkpt lat="54.22041904181242" lon="27.763422969728708">
        <ele>241.91</ele>
        <time>2013-08-17T09:28:15Z</time>
      </trkpt>
      <trkpt lat="54.22055097296834" lon="27.763177966699004">
        <ele>239.99000000000001</ele>
        <time>2013-08-17T09:28:19Z</time>
      </trkpt>
      <trkpt lat="54.220616016536951" lon="27.762814024463296">
        <ele>238.06</ele>
        <time>2013-08-17T09:28:24Z</time>
      </trkpt>
      <trkpt lat="54.220715006813407" lon="27.762475982308388">
        <ele>237.09999999999999</ele>
        <time>2013-08-17T09:28:28Z</time>
      </trkpt>
      <trkpt lat="54.220755994319916" lon="27.762279007583857">
        <ele>236.13999999999999</ele>
        <time>2013-08-17T09:28:30Z</time>
      </trkpt>
      <trkpt lat="54.220824977383018" lon="27.761647012084723">
        <ele>233.74000000000001</ele>
        <time>2013-08-17T09:28:36Z</time>
      </trkpt>
      <trkpt lat="54.220858002081513" lon="27.761453976854682">
        <ele>232.78</ele>
        <time>2013-08-17T09:28:38Z</time>
      </trkpt>
      <trkpt lat="54.22098197042942" lon="27.761007975786924">
        <ele>230.37</ele>
        <time>2013-08-17T09:28:43Z</time>
      </trkpt>
      <trkpt lat="54.22108800150454" lon="27.760749980807304">
        <ele>228.93000000000001</ele>
        <time>2013-08-17T09:28:47Z</time>
      </trkpt>
      <trkpt lat="54.221395030617714" lon="27.760459966957569">
        <ele>226.53</ele>
        <time>2013-08-17T09:28:53Z</time>
      </trkpt>
      <trkpt lat="54.2218810133636" lon="27.760042967274785">
        <ele>226.05000000000001</ele>
        <time>2013-08-17T09:29:02Z</time>
      </trkpt>
      <trkpt lat="54.222009005025029" lon="27.759845992550254">
        <ele>225.56999999999999</ele>
        <time>2013-08-17T09:29:05Z</time>
      </trkpt>
      <trkpt lat="54.222194999456406" lon="27.759571988135576">
        <ele>224.12</ele>
        <time>2013-08-17T09:29:09Z</time>
      </trkpt>
      <trkpt lat="54.222492976114154" lon="27.759294966235757">
        <ele>221.72</ele>
        <time>2013-08-17T09:29:14Z</time>
      </trkpt>
      <trkpt lat="54.222576040774584" lon="27.758833039551973">
        <ele>217.40000000000001</ele>
        <time>2013-08-17T09:29:21Z</time>
      </trkpt>
      <trkpt lat="54.222521977499127" lon="27.758748969063163">
        <ele>216.91</ele>
        <time>2013-08-17T09:29:23Z</time>
      </trkpt>
      <trkpt lat="54.222373031079769" lon="27.758301962167025">
        <ele>217.40000000000001</ele>
        <time>2013-08-17T09:29:33Z</time>
      </trkpt>
      <trkpt lat="54.222490964457393" lon="27.758051007986069">
        <ele>218.36000000000001</ele>
        <time>2013-08-17T09:29:40Z</time>
      </trkpt>
      <trkpt lat="54.222673019394279" lon="27.757813967764378">
        <ele>219.31999999999999</ele>
        <time>2013-08-17T09:29:51Z</time>
      </trkpt>
      <trkpt lat="54.222720041871071" lon="27.757753031328321">
        <ele>219.31999999999999</ele>
        <time>2013-08-17T09:29:53Z</time>
      </trkpt>
      <trkpt lat="54.223180040717125" lon="27.757574999704957">
        <ele>219.31999999999999</ele>
        <time>2013-08-17T09:30:07Z</time>
      </trkpt>
      <trkpt lat="54.223921000957489" lon="27.75801002047956">
        <ele>216.43000000000001</ele>
        <time>2013-08-17T09:30:20Z</time>
      </trkpt>
      <trkpt lat="54.224211014807224" lon="27.757874988019466">
        <ele>214.99000000000001</ele>
        <time>2013-08-17T09:30:25Z</time>
      </trkpt>
      <trkpt lat="54.224340012297034" lon="27.757592014968395">
        <ele>214.03</ele>
        <time>2013-08-17T09:30:29Z</time>
      </trkpt>
      <trkpt lat="54.224346969276667" lon="27.757250033318996">
        <ele>213.55000000000001</ele>
        <time>2013-08-17T09:30:34Z</time>
      </trkpt>
      <trkpt lat="54.22428603284061" lon="27.756952978670597">
        <ele>214.03</ele>
        <time>2013-08-17T09:30:45Z</time>
      </trkpt>
      <trkpt lat="54.224281003698707" lon="27.756951972842216">
        <ele>213.55000000000001</ele>
        <time>2013-08-17T09:32:03Z</time>
      </trkpt>
      <trkpt lat="54.22411797568202" lon="27.756423996761441">
        <ele>213.55000000000001</ele>
        <time>2013-08-17T09:32:17Z</time>
      </trkpt>
      <trkpt lat="54.224020997062325" lon="27.756091989576817">
        <ele>213.06999999999999</ele>
        <time>2013-08-17T09:32:26Z</time>
      </trkpt>
      <trkpt lat="54.223958970978856" lon="27.755899960175157">
        <ele>213.55000000000001</ele>
        <time>2013-08-17T09:32:33Z</time>
      </trkpt>
      <trkpt lat="54.223885964602232" lon="27.75571396574378">
        <ele>214.03</ele>
        <time>2013-08-17T09:32:38Z</time>
      </trkpt>
      <trkpt lat="54.223587987944484" lon="27.754811989143491">
        <ele>213.55000000000001</ele>
        <time>2013-08-17T09:32:54Z</time>
      </trkpt>
      <trkpt lat="54.223368968814611" lon="27.754050996154547">
        <ele>214.03</ele>
        <time>2013-08-17T09:33:07Z</time>
      </trkpt>
      <trkpt lat="54.223076021298766" lon="27.752887001261115">
        <ele>214.03</ele>
        <time>2013-08-17T09:33:25Z</time>
      </trkpt>
      <trkpt lat="54.222700009122491" lon="27.751740021631122">
        <ele>214.03</ele>
        <time>2013-08-17T09:33:42Z</time>
      </trkpt>
      <trkpt lat="54.222559025511146" lon="27.751444978639483">
        <ele>214.50999999999999</ele>
        <time>2013-08-17T09:33:47Z</time>
      </trkpt>
      <trkpt lat="54.221928035840392" lon="27.750472007319331">
        <ele>216.43000000000001</ele>
        <time>2013-08-17T09:34:06Z</time>
      </trkpt>
      <trkpt lat="54.221815969794989" lon="27.750342004001141">
        <ele>216.91</ele>
        <time>2013-08-17T09:34:09Z</time>
      </trkpt>
      <trkpt lat="54.22138899564743" lon="27.749829031527042">
        <ele>217.40000000000001</ele>
        <time>2013-08-17T09:34:20Z</time>
      </trkpt>
      <trkpt lat="54.221228985115886" lon="27.749634990468621">
        <ele>217.88</ele>
        <time>2013-08-17T09:34:24Z</time>
      </trkpt>
      <trkpt lat="54.220516020432115" lon="27.748782970011234">
        <ele>218.36000000000001</ele>
        <time>2013-08-17T09:34:41Z</time>
      </trkpt>
      <trkpt lat="54.219924006611109" lon="27.748078973963857">
        <ele>217.88</ele>
        <time>2013-08-17T09:34:55Z</time>
      </trkpt>
      <trkpt lat="54.219241971150041" lon="27.747309012338519">
        <ele>218.84</ele>
        <time>2013-08-17T09:35:11Z</time>
      </trkpt>
      <trkpt lat="54.219060000032187" lon="27.747149001806974">
        <ele>219.31999999999999</ele>
        <time>2013-08-17T09:35:15Z</time>
      </trkpt>
      <trkpt lat="54.218661021441221" lon="27.746864017099142">
        <ele>220.28</ele>
        <time>2013-08-17T09:35:24Z</time>
      </trkpt>
      <trkpt lat="54.218534035608172" lon="27.746769972145557">
        <ele>220.28</ele>
        <time>2013-08-17T09:35:27Z</time>
      </trkpt>
      <trkpt lat="54.218451976776123" lon="27.746414998546243">
        <ele>220.75999999999999</ele>
        <time>2013-08-17T09:35:33Z</time>
      </trkpt>
      <trkpt lat="54.218533029779792" lon="27.746118027716875">
        <ele>220.75999999999999</ele>
        <time>2013-08-17T09:35:37Z</time>
      </trkpt>
      <trkpt lat="54.218722963705659" lon="27.744986973702908">
        <ele>219.80000000000001</ele>
        <time>2013-08-17T09:35:54Z</time>
      </trkpt>
      <trkpt lat="54.218730004504323" lon="27.74488303810358">
        <ele>219.80000000000001</ele>
        <time>2013-08-17T09:35:56Z</time>
      </trkpt>
      <trkpt lat="54.218537975102663" lon="27.744666030630469">
        <ele>219.80000000000001</ele>
        <time>2013-08-17T09:36:03Z</time>
      </trkpt>
      <trkpt lat="54.218123992905021" lon="27.74443200789392">
        <ele>219.31999999999999</ele>
        <time>2013-08-17T09:36:16Z</time>
      </trkpt>
      <trkpt lat="54.218046041205525" lon="27.744385991245508">
        <ele>219.31999999999999</ele>
        <time>2013-08-17T09:36:21Z</time>
      </trkpt>
      <trkpt lat="54.217963982373476" lon="27.744348021224141">
        <ele>219.80000000000001</ele>
        <time>2013-08-17T09:36:25Z</time>
      </trkpt>
      <trkpt lat="54.217527033761144" lon="27.744266968220472">
        <ele>219.80000000000001</ele>
        <time>2013-08-17T09:36:40Z</time>
      </trkpt>
      <trkpt lat="54.217059994116426" lon="27.744063958525658">
        <ele>223.16</ele>
        <time>2013-08-17T09:36:54Z</time>
      </trkpt>
      <trkpt lat="54.216562025249004" lon="27.743890034034848">
        <ele>223.63999999999999</ele>
        <time>2013-08-17T09:37:07Z</time>
      </trkpt>
      <trkpt lat="54.216421041637659" lon="27.743805041536689">
        <ele>223.16</ele>
        <time>2013-08-17T09:37:10Z</time>
      </trkpt>
      <trkpt lat="54.216256001964211" lon="27.743805963546038">
        <ele>221.24000000000001</ele>
        <time>2013-08-17T09:37:14Z</time>
      </trkpt>
      <trkpt lat="54.216008987277746" lon="27.743677971884608">
        <ele>220.28</ele>
        <time>2013-08-17T09:37:23Z</time>
      </trkpt>
      <trkpt lat="54.215894993394613" lon="27.743509998545051">
        <ele>220.28</ele>
        <time>2013-08-17T09:37:28Z</time>
      </trkpt>
      <trkpt lat="54.215937992557883" lon="27.743278993293643">
        <ele>220.75999999999999</ele>
        <time>2013-08-17T09:37:34Z</time>
      </trkpt>
      <trkpt lat="54.216215014457703" lon="27.74301496334374">
        <ele>224.61000000000001</ele>
        <time>2013-08-17T09:37:47Z</time>
      </trkpt>
      <trkpt lat="54.216358009725809" lon="27.742651021108031">
        <ele>228.93000000000001</ele>
        <time>2013-08-17T09:38:00Z</time>
      </trkpt>
      <trkpt lat="54.216400003060699" lon="27.742332005873322">
        <ele>231.81</ele>
        <time>2013-08-17T09:38:12Z</time>
      </trkpt>
      <trkpt lat="54.216400003060699" lon="27.742308033630252">
        <ele>231.81</ele>
        <time>2013-08-17T09:38:13Z</time>
      </trkpt>
      <trkpt lat="54.216308975592256" lon="27.742077028378844">
        <ele>234.22</ele>
        <time>2013-08-17T09:38:23Z</time>
      </trkpt>
      <trkpt lat="54.216158017516136" lon="27.741846023127437">
        <ele>237.58000000000001</ele>
        <time>2013-08-17T09:38:35Z</time>
      </trkpt>
      <trkpt lat="54.216098003089428" lon="27.741728005930781">
        <ele>239.02000000000001</ele>
        <time>2013-08-17T09:38:43Z</time>
      </trkpt>
      <trkpt lat="54.216084005311131" lon="27.741708979010582">
        <ele>239.50999999999999</ele>
        <time>2013-08-17T09:38:45Z</time>
      </trkpt>
      <trkpt lat="54.216079981997609" lon="27.741676960140467">
        <ele>239.99000000000001</ele>
        <time>2013-08-17T09:38:59Z</time>
      </trkpt>
      <trkpt lat="54.216092973947525" lon="27.741709984838963">
        <ele>239.99000000000001</ele>
        <time>2013-08-17T09:39:03Z</time>
      </trkpt>
      <trkpt lat="54.216267988085747" lon="27.742016008123755">
        <ele>238.06</ele>
        <time>2013-08-17T09:39:16Z</time>
      </trkpt>
      <trkpt lat="54.216416012495756" lon="27.742514982819557">
        <ele>232.78</ele>
        <time>2013-08-17T09:39:29Z</time>
      </trkpt>
      <trkpt lat="54.216431016102433" lon="27.742560999467969">
        <ele>231.81</ele>
        <time>2013-08-17T09:39:31Z</time>
      </trkpt>
      <trkpt lat="54.216507961973548" lon="27.742540966719389">
        <ele>231.33000000000001</ele>
        <time>2013-08-17T09:39:44Z</time>
      </trkpt>
      <trkpt lat="54.216495975852013" lon="27.742552030831575">
        <ele>231.33000000000001</ele>
        <time>2013-08-17T09:39:48Z</time>
      </trkpt>
      <trkpt lat="54.216377958655357" lon="27.742669964209199">
        <ele>229.88999999999999</ele>
        <time>2013-08-17T09:39:54Z</time>
      </trkpt>
      <trkpt lat="54.216197999194264" lon="27.743038013577461">
        <ele>227.97</ele>
        <time>2013-08-17T09:40:01Z</time>
      </trkpt>
      <trkpt lat="54.215923994779587" lon="27.743391981348395">
        <ele>224.61000000000001</ele>
        <time>2013-08-17T09:40:08Z</time>
      </trkpt>
      <trkpt lat="54.216017033904791" lon="27.743715019896626">
        <ele>223.63999999999999</ele>
        <time>2013-08-17T09:40:13Z</time>
      </trkpt>
      <trkpt lat="54.216322973370552" lon="27.743814010173082">
        <ele>222.68000000000001</ele>
        <time>2013-08-17T09:40:23Z</time>
      </trkpt>
      <trkpt lat="54.216622961685061" lon="27.743928004056215">
        <ele>223.63999999999999</ele>
        <time>2013-08-17T09:40:34Z</time>
      </trkpt>
      <trkpt lat="54.216953041031957" lon="27.744052978232503">
        <ele>225.56999999999999</ele>
        <time>2013-08-17T09:40:47Z</time>
      </trkpt>
      <trkpt lat="54.21732603572309" lon="27.744223969057202">
        <ele>225.56999999999999</ele>
        <time>2013-08-17T09:41:01Z</time>
      </trkpt>
      <trkpt lat="54.217571038752794" lon="27.744331005960703">
        <ele>223.16</ele>
        <time>2013-08-17T09:41:08Z</time>
      </trkpt>
      <trkpt lat="54.218072025105357" lon="27.744426978752017">
        <ele>217.88</ele>
        <time>2013-08-17T09:41:21Z</time>
      </trkpt>
      <trkpt lat="54.218447031453252" lon="27.744651027023792">
        <ele>217.88</ele>
        <time>2013-08-17T09:41:34Z</time>
      </trkpt>
      <trkpt lat="54.218845004215837" lon="27.744738031178713">
        <ele>218.84</ele>
        <time>2013-08-17T09:41:48Z</time>
      </trkpt>
      <trkpt lat="54.219055976718664" lon="27.744734007865191">
        <ele>219.31999999999999</ele>
        <time>2013-08-17T09:41:58Z</time>
      </trkpt>
      <trkpt lat="54.219580013304949" lon="27.744892006739974">
        <ele>219.80000000000001</ele>
        <time>2013-08-17T09:42:13Z</time>
      </trkpt>
      <trkpt lat="54.22014101408422" lon="27.744650021195412">
        <ele>222.19999999999999</ele>
        <time>2013-08-17T09:42:29Z</time>
      </trkpt>
      <trkpt lat="54.220610987395048" lon="27.744210977107286">
        <ele>227.00999999999999</ele>
        <time>2013-08-17T09:42:44Z</time>
      </trkpt>
      <trkpt lat="54.220983982086182" lon="27.743803029879928">
        <ele>231.33000000000001</ele>
        <time>2013-08-17T09:43:00Z</time>
      </trkpt>
      <trkpt lat="54.22098096460104" lon="27.743765981867909">
        <ele>231.33000000000001</ele>
        <time>2013-08-17T09:43:02Z</time>
      </trkpt>
      <trkpt lat="54.220893960446119" lon="27.743591973558068">
        <ele>232.78</ele>
        <time>2013-08-17T09:43:09Z</time>
      </trkpt>
      <trkpt lat="54.220832018181682" lon="27.743435986340046">
        <ele>233.74000000000001</ele>
        <time>2013-08-17T09:43:15Z</time>
      </trkpt>
      <trkpt lat="54.220716012641788" lon="27.743031978607178">
        <ele>237.58000000000001</ele>
        <time>2013-08-17T09:43:27Z</time>
      </trkpt>
      <trkpt lat="54.2205720115453" lon="27.742668036371469">
        <ele>241.43000000000001</ele>
        <time>2013-08-17T09:43:41Z</time>
      </trkpt>
      <trkpt lat="54.220538986846805" lon="27.742576003074646">
        <ele>242.87</ele>
        <time>2013-08-17T09:43:45Z</time>
      </trkpt>
      <trkpt lat="54.220388028770685" lon="27.742422027513385">
        <ele>244.78999999999999</ele>
        <time>2013-08-17T09:43:58Z</time>
      </trkpt>
      <trkpt lat="54.220341006293893" lon="27.742269979789853">
        <ele>245.27000000000001</ele>
        <time>2013-08-17T09:44:06Z</time>
      </trkpt>
      <trkpt lat="54.220310999080539" lon="27.742113992571831">
        <ele>245.27000000000001</ele>
        <time>2013-08-17T09:44:12Z</time>
      </trkpt>
      <trkpt lat="54.220190970227122" lon="27.741648964583874">
        <ele>247.68000000000001</ele>
        <time>2013-08-17T09:44:27Z</time>
      </trkpt>
      <trkpt lat="54.220036994665861" lon="27.741121994331479">
        <ele>249.59999999999999</ele>
        <time>2013-08-17T09:44:42Z</time>
      </trkpt>
      <trkpt lat="54.219811018556356" lon="27.740782024338841">
        <ele>251.52000000000001</ele>
        <time>2013-08-17T09:44:54Z</time>
      </trkpt>
      <trkpt lat="54.21947599388659" lon="27.740646991878748">
        <ele>250.08000000000001</ele>
        <time>2013-08-17T09:45:09Z</time>
      </trkpt>
      <trkpt lat="54.219308020547032" lon="27.740342980250716">
        <ele>250.56</ele>
        <time>2013-08-17T09:45:21Z</time>
      </trkpt>
      <trkpt lat="54.219104005023837" lon="27.740179030224681">
        <ele>251.03999999999999</ele>
        <time>2013-08-17T09:45:34Z</time>
      </trkpt>
      <trkpt lat="54.218868976458907" lon="27.739959005266428">
        <ele>252</ele>
        <time>2013-08-17T09:45:47Z</time>
      </trkpt>
      <trkpt lat="54.218688011169434" lon="27.739786002784967">
        <ele>252.47999999999999</ele>
        <time>2013-08-17T09:45:58Z</time>
      </trkpt>
      <trkpt lat="54.218577034771442" lon="27.739744009450078">
        <ele>252.96000000000001</ele>
        <time>2013-08-17T09:46:05Z</time>
      </trkpt>
      <trkpt lat="54.218483995646238" lon="27.739765970036387">
        <ele>253.44</ele>
        <time>2013-08-17T09:46:11Z</time>
      </trkpt>
      <trkpt lat="54.218360027298331" lon="27.739759013056755">
        <ele>254.41</ele>
        <time>2013-08-17T09:46:22Z</time>
      </trkpt>
      <trkpt lat="54.218344017863274" lon="27.739698998630047">
        <ele>255.37</ele>
        <time>2013-08-17T09:46:25Z</time>
      </trkpt>
      <trkpt lat="54.21827201731503" lon="27.739654993638396">
        <ele>255.84999999999999</ele>
        <time>2013-08-17T09:46:31Z</time>
      </trkpt>
      <trkpt lat="54.218156011775136" lon="27.739714002236724">
        <ele>255.37</ele>
        <time>2013-08-17T09:46:42Z</time>
      </trkpt>
      <trkpt lat="54.218050986528397" lon="27.739806035533547">
        <ele>256.81</ele>
        <time>2013-08-17T09:46:55Z</time>
      </trkpt>
      <trkpt lat="54.218016033992171" lon="27.739777034148574">
        <ele>256.81</ele>
        <time>2013-08-17T09:47:03Z</time>
      </trkpt>
      <trkpt lat="54.21790698543191" lon="27.739688018336892">
        <ele>257.76999999999998</ele>
        <time>2013-08-17T09:47:16Z</time>
      </trkpt>
      <trkpt lat="54.217877984046936" lon="27.739644013345242">
        <ele>258.73000000000002</ele>
        <time>2013-08-17T09:47:32Z</time>
      </trkpt>
      <trkpt lat="54.217854011803865" lon="27.739531025290489">
        <ele>259.20999999999998</ele>
        <time>2013-08-17T09:47:46Z</time>
      </trkpt>
      <trkpt lat="54.217859962955117" lon="27.739515015855432">
        <ele>259.20999999999998</ele>
        <time>2013-08-17T09:47:53Z</time>
      </trkpt>
      <trkpt lat="54.218011004850268" lon="27.739128023386002">
        <ele>257.29000000000002</ele>
        <time>2013-08-17T09:48:07Z</time>
      </trkpt>
      <trkpt lat="54.218183001503348" lon="27.73867598734796">
        <ele>253.93000000000001</ele>
        <time>2013-08-17T09:48:19Z</time>
      </trkpt>
      <trkpt lat="54.218346029520035" lon="27.738295029848814">
        <ele>250.56</ele>
        <time>2013-08-17T09:48:30Z</time>
      </trkpt>
      <trkpt lat="54.218430016189814" lon="27.73790099658072">
        <ele>247.68000000000001</ele>
        <time>2013-08-17T09:48:41Z</time>
      </trkpt>
      <trkpt lat="54.218420041725039" lon="27.737838970497251">
        <ele>247.19999999999999</ele>
        <time>2013-08-17T09:48:43Z</time>
      </trkpt>
      <trkpt lat="54.218402020633221" lon="27.737807035446167">
        <ele>247.19999999999999</ele>
        <time>2013-08-17T09:48:57Z</time>
      </trkpt>
      <trkpt lat="54.218408977612853" lon="27.737823966890574">
        <ele>247.19999999999999</ele>
        <time>2013-08-17T09:48:58Z</time>
      </trkpt>
      <trkpt lat="54.218535041436553" lon="27.738022031262517">
        <ele>247.19999999999999</ele>
        <time>2013-08-17T09:49:09Z</time>
      </trkpt>
      <trkpt lat="54.218588015064597" lon="27.737991018220782">
        <ele>246.72</ele>
        <time>2013-08-17T09:49:13Z</time>
      </trkpt>
      <trkpt lat="54.218688011169434" lon="27.737822961062193">
        <ele>246.72</ele>
        <time>2013-08-17T09:49:20Z</time>
      </trkpt>
      <trkpt lat="54.218796975910664" lon="27.737713996320963">
        <ele>246.72</ele>
        <time>2013-08-17T09:49:28Z</time>
      </trkpt>
      <trkpt lat="54.218780966475606" lon="27.737674014642835">
        <ele>247.19999999999999</ele>
        <time>2013-08-17T09:49:30Z</time>
      </trkpt>
      <trkpt lat="54.218731010332704" lon="27.737645013257861">
        <ele>247.68000000000001</ele>
        <time>2013-08-17T09:49:46Z</time>
      </trkpt>
      <trkpt lat="54.218694968149066" lon="27.737754983827472">
        <ele>247.19999999999999</ele>
        <time>2013-08-17T09:50:04Z</time>
      </trkpt>
      <trkpt lat="54.21868097037077" lon="27.737703016027808">
        <ele>246.22999999999999</ele>
        <time>2013-08-17T09:50:15Z</time>
      </trkpt>
      <trkpt lat="54.218674013391137" lon="27.737840982154012">
        <ele>245.27000000000001</ele>
        <time>2013-08-17T09:51:02Z</time>
      </trkpt>
      <trkpt lat="54.218649035319686" lon="27.73787803016603">
        <ele>245.27000000000001</ele>
        <time>2013-08-17T09:51:04Z</time>
      </trkpt>
      <trkpt lat="54.218559013679624" lon="27.738005015999079">
        <ele>244.31</ele>
        <time>2013-08-17T09:51:09Z</time>
      </trkpt>
      <trkpt lat="54.218584997579455" lon="27.738380022346973">
        <ele>246.22999999999999</ele>
        <time>2013-08-17T09:51:24Z</time>
      </trkpt>
      <trkpt lat="54.218740984797478" lon="27.738723009824753">
        <ele>247.68000000000001</ele>
        <time>2013-08-17T09:51:38Z</time>
      </trkpt>
      <trkpt lat="54.218877023085952" lon="27.739092987030745">
        <ele>247.19999999999999</ele>
        <time>2013-08-17T09:51:50Z</time>
      </trkpt>
      <trkpt lat="54.219009038060904" lon="27.739441003650427">
        <ele>246.22999999999999</ele>
        <time>2013-08-17T09:52:02Z</time>
      </trkpt>
      <trkpt lat="54.219177011400461" lon="27.739738980308175">
        <ele>246.72</ele>
        <time>2013-08-17T09:52:15Z</time>
      </trkpt>
      <trkpt lat="54.219331992790103" lon="27.739992029964924">
        <ele>248.63999999999999</ele>
        <time>2013-08-17T09:52:28Z</time>
      </trkpt>
      <trkpt lat="54.219362000003457" lon="27.740046009421349">
        <ele>249.12</ele>
        <time>2013-08-17T09:52:31Z</time>
      </trkpt>
      <trkpt lat="54.219417991116643" lon="27.740151034668088">
        <ele>249.12</ele>
        <time>2013-08-17T09:52:37Z</time>
      </trkpt>
      <trkpt lat="54.219530979171395" lon="27.740468038246036">
        <ele>249.59999999999999</ele>
        <time>2013-08-17T09:52:52Z</time>
      </trkpt>
      <trkpt lat="54.219639021903276" lon="27.740709017962217">
        <ele>249.59999999999999</ele>
        <time>2013-08-17T09:53:04Z</time>
      </trkpt>
      <trkpt lat="54.219901040196419" lon="27.740786969661713">
        <ele>249.59999999999999</ele>
        <time>2013-08-17T09:53:17Z</time>
      </trkpt>
      <trkpt lat="54.220082005485892" lon="27.741019986569881">
        <ele>249.59999999999999</ele>
        <time>2013-08-17T09:53:30Z</time>
      </trkpt>
      <trkpt lat="54.22022701241076" lon="27.741837976500392">
        <ele>249.12</ele>
        <time>2013-08-17T09:53:40Z</time>
      </trkpt>
      <trkpt lat="54.220326002687216" lon="27.742317002266645">
        <ele>247.68000000000001</ele>
        <time>2013-08-17T09:53:43Z</time>
      </trkpt>
      <trkpt lat="54.220530018210411" lon="27.74262797087431">
        <ele>246.72</ele>
        <time>2013-08-17T09:53:47Z</time>
      </trkpt>
      <trkpt lat="54.220630014315248" lon="27.742880014702678">
        <ele>245.75</ele>
        <time>2013-08-17T09:53:49Z</time>
      </trkpt>
      <trkpt lat="54.22084903344512" lon="27.743547968566418">
        <ele>240.47</ele>
        <time>2013-08-17T09:53:54Z</time>
      </trkpt>
      <trkpt lat="54.221005020663142" lon="27.743722982704639">
        <ele>237.58000000000001</ele>
        <time>2013-08-17T09:53:58Z</time>
      </trkpt>
      <trkpt lat="54.221377009525895" lon="27.74348895996809">
        <ele>232.78</ele>
        <time>2013-08-17T09:54:10Z</time>
      </trkpt>
      <trkpt lat="54.221617989242077" lon="27.743291985243559">
        <ele>228.93000000000001</ele>
        <time>2013-08-17T09:54:20Z</time>
      </trkpt>
      <trkpt lat="54.221828039735556" lon="27.74301496334374">
        <ele>225.09</ele>
        <time>2013-08-17T09:54:30Z</time>
      </trkpt>
      <trkpt lat="54.221902973949909" lon="27.7429289650172">
        <ele>223.63999999999999</ele>
        <time>2013-08-17T09:54:34Z</time>
      </trkpt>
      <trkpt lat="54.222432961687446" lon="27.74239000864327">
        <ele>218.84</ele>
        <time>2013-08-17T09:54:44Z</time>
      </trkpt>
      <trkpt lat="54.223202001303434" lon="27.741598002612591">
        <ele>215.47</ele>
        <time>2013-08-17T09:54:56Z</time>
      </trkpt>
      <trkpt lat="54.223770964890718" lon="27.741112019866705">
        <ele>214.99000000000001</ele>
        <time>2013-08-17T09:55:08Z</time>
      </trkpt>
      <trkpt lat="54.224218977615237" lon="27.740669036284089">
        <ele>217.40000000000001</ele>
        <time>2013-08-17T09:55:23Z</time>
      </trkpt>
      <trkpt lat="54.224715018644929" lon="27.740164026618004">
        <ele>218.36000000000001</ele>
        <time>2013-08-17T09:55:39Z</time>
      </trkpt>
      <trkpt lat="54.225304014980793" lon="27.739979960024357">
        <ele>220.75999999999999</ele>
        <time>2013-08-17T09:55:55Z</time>
      </trkpt>
      <trkpt lat="54.22602703794837" lon="27.739897985011339">
        <ele>222.19999999999999</ele>
        <time>2013-08-17T09:56:13Z</time>
      </trkpt>
      <trkpt lat="54.226332977414131" lon="27.739432035014033">
        <ele>223.16</ele>
        <time>2013-08-17T09:56:25Z</time>
      </trkpt>
      <trkpt lat="54.226453006267548" lon="27.738595018163323">
        <ele>226.53</ele>
        <time>2013-08-17T09:56:40Z</time>
      </trkpt>
      <trkpt lat="54.226596001535654" lon="27.737765964120626">
        <ele>230.37</ele>
        <time>2013-08-17T09:56:57Z</time>
      </trkpt>
      <trkpt lat="54.226729022338986" lon="27.737300014123321">
        <ele>232.78</ele>
        <time>2013-08-17T09:57:09Z</time>
      </trkpt>
      <trkpt lat="54.226921973749995" lon="27.736710011959076">
        <ele>236.13999999999999</ele>
        <time>2013-08-17T09:57:25Z</time>
      </trkpt>
      <trkpt lat="54.227026998996735" lon="27.736285971477628">
        <ele>238.53999999999999</ele>
        <time>2013-08-17T09:57:37Z</time>
      </trkpt>
      <trkpt lat="54.227172005921602" lon="27.735835025086999">
        <ele>240.47</ele>
        <time>2013-08-17T09:57:51Z</time>
      </trkpt>
      <trkpt lat="54.227387001737952" lon="27.735336972400546">
        <ele>242.87</ele>
        <time>2013-08-17T09:58:06Z</time>
      </trkpt>
      <trkpt lat="54.227585988119245" lon="27.734888959676027">
        <ele>246.22999999999999</ele>
        <time>2013-08-17T09:58:19Z</time>
      </trkpt>
      <trkpt lat="54.22779000364244" lon="27.73442099802196">
        <ele>248.63999999999999</ele>
        <time>2013-08-17T09:58:32Z</time>
      </trkpt>
      <trkpt lat="54.228094015270472" lon="27.733918000012636">
        <ele>252.47999999999999</ele>
        <time>2013-08-17T09:58:48Z</time>
      </trkpt>
      <trkpt lat="54.228388974443078" lon="27.73368900641799">
        <ele>254.41</ele>
        <time>2013-08-17T09:59:02Z</time>
      </trkpt>
      <trkpt lat="54.228449994698167" lon="27.733619017526507">
        <ele>253.93000000000001</ele>
        <time>2013-08-17T09:59:13Z</time>
      </trkpt>
      <trkpt lat="54.228431973606348" lon="27.73356000892818">
        <ele>253.93000000000001</ele>
        <time>2013-08-17T09:59:15Z</time>
      </trkpt>
      <trkpt lat="54.22837003134191" lon="27.73373301140964">
        <ele>253.44</ele>
        <time>2013-08-17T09:59:29Z</time>
      </trkpt>
      <trkpt lat="54.228373970836401" lon="27.733752960339189">
        <ele>253.44</ele>
        <time>2013-08-17T10:02:27Z</time>
      </trkpt>
      <trkpt lat="54.22837195917964" lon="27.73375203832984">
        <ele>253.44</ele>
        <time>2013-08-17T10:03:37Z</time>
      </trkpt>
      <trkpt lat="54.228368019685149" lon="27.733756983652711">
        <ele>253.93000000000001</ele>
        <time>2013-08-17T10:05:09Z</time>
      </trkpt>
      <trkpt lat="54.228368019685149" lon="27.733756983652711">
        <ele>253.93000000000001</ele>
        <time>2013-08-17T10:06:00Z</time>
      </trkpt>
      <trkpt lat="54.22841495834291" lon="27.733688000589609">
        <ele>253.93000000000001</ele>
        <time>2013-08-17T10:06:43Z</time>
      </trkpt>
      <trkpt lat="54.22841596417129" lon="27.733679031953216">
        <ele>253.93000000000001</ele>
        <time>2013-08-17T10:06:44Z</time>
      </trkpt>
      <trkpt lat="54.22845602966845" lon="27.733446015045047">
        <ele>254.88999999999999</ele>
        <time>2013-08-17T10:07:00Z</time>
      </trkpt>
      <trkpt lat="54.228471033275127" lon="27.733244011178613">
        <ele>255.37</ele>
        <time>2013-08-17T10:07:13Z</time>
      </trkpt>
      <trkpt lat="54.228451000526547" lon="27.732874033972621">
        <ele>255.84999999999999</ele>
        <time>2013-08-17T10:07:35Z</time>
      </trkpt>
      <trkpt lat="54.228441026061773" lon="27.732582008466125">
        <ele>257.29000000000002</ele>
        <time>2013-08-17T10:07:53Z</time>
      </trkpt>
      <trkpt lat="54.22841596417129" lon="27.732240026816726">
        <ele>258.73000000000002</ele>
        <time>2013-08-17T10:08:06Z</time>
      </trkpt>
      <trkpt lat="54.228386040776968" lon="27.731568971648812">
        <ele>260.17000000000002</ele>
        <time>2013-08-17T10:08:21Z</time>
      </trkpt>
      <trkpt lat="54.228356033563614" lon="27.730780988931656">
        <ele>261.13999999999999</ele>
        <time>2013-08-17T10:08:38Z</time>
      </trkpt>
      <trkpt lat="54.228340024128556" lon="27.730027958750725">
        <ele>264.01999999999998</ele>
        <time>2013-08-17T10:08:54Z</time>
      </trkpt>
      <trkpt lat="54.22822100110352" lon="27.729279035702348">
        <ele>267.86000000000001</ele>
        <time>2013-08-17T10:09:09Z</time>
      </trkpt>
      <trkpt lat="54.227952025830746" lon="27.728692973032594">
        <ele>271.23000000000002</ele>
        <time>2013-08-17T10:09:23Z</time>
      </trkpt>
      <trkpt lat="54.227572996169329" lon="27.727983025833964">
        <ele>274.11000000000001</ele>
        <time>2013-08-17T10:09:40Z</time>
      </trkpt>
      <trkpt lat="54.227151973173022" lon="27.727153971791267">
        <ele>276.04000000000002</ele>
        <time>2013-08-17T10:09:59Z</time>
      </trkpt>
      <trkpt lat="54.226871011778712" lon="27.726558018475771">
        <ele>277.48000000000002</ele>
        <time>2013-08-17T10:10:12Z</time>
      </trkpt>
      <trkpt lat="54.226420987397432" lon="27.72567699663341">
        <ele>279.39999999999998</ele>
        <time>2013-08-17T10:10:30Z</time>
      </trkpt>
      <trkpt lat="54.226002981886268" lon="27.724890019744635">
        <ele>282.27999999999997</ele>
        <time>2013-08-17T10:10:46Z</time>
      </trkpt>
      <trkpt lat="54.225795026868582" lon="27.724404036998749">
        <ele>284.20999999999998</ele>
        <time>2013-08-17T10:10:55Z</time>
      </trkpt>
      <trkpt lat="54.225453967228532" lon="27.723167035728693">
        <ele>285.17000000000002</ele>
        <time>2013-08-17T10:11:14Z</time>
      </trkpt>
      <trkpt lat="54.225303009152412" lon="27.722494974732399">
        <ele>285.64999999999998</ele>
        <time>2013-08-17T10:11:24Z</time>
      </trkpt>
      <trkpt lat="54.224934037774801" lon="27.720914985984564">
        <ele>288.05000000000001</ele>
        <time>2013-08-17T10:11:47Z</time>
      </trkpt>
      <trkpt lat="54.224667996168137" lon="27.719800025224686">
        <ele>289.00999999999999</ele>
        <time>2013-08-17T10:12:03Z</time>
      </trkpt>
      <trkpt lat="54.224526006728411" lon="27.719245981425047">
        <ele>289.00999999999999</ele>
        <time>2013-08-17T10:12:11Z</time>
      </trkpt>
      <trkpt lat="54.224302964285016" lon="27.718205032870173">
        <ele>288.52999999999997</ele>
        <time>2013-08-17T10:12:27Z</time>
      </trkpt>
      <trkpt lat="54.224123004823923" lon="27.717442028224468">
        <ele>288.52999999999997</ele>
        <time>2013-08-17T10:12:41Z</time>
      </trkpt>
      <trkpt lat="54.223993001505733" lon="27.716934001073241">
        <ele>288.52999999999997</ele>
        <time>2013-08-17T10:12:49Z</time>
      </trkpt>
      <trkpt lat="54.223763002082705" lon="27.716041998937726">
        <ele>288.05000000000001</ele>
        <time>2013-08-17T10:13:02Z</time>
      </trkpt>
      <trkpt lat="54.22351598739624" lon="27.714940030127764">
        <ele>286.13</ele>
        <time>2013-08-17T10:13:17Z</time>
      </trkpt>
      <trkpt lat="54.223131006583571" lon="27.713389964774251">
        <ele>284.20999999999998</ele>
        <time>2013-08-17T10:13:34Z</time>
      </trkpt>
      <trkpt lat="54.222853984683752" lon="27.712170984596014">
        <ele>284.20999999999998</ele>
        <time>2013-08-17T10:13:49Z</time>
      </trkpt>
      <trkpt lat="54.222458023577929" lon="27.710564006119967">
        <ele>286.61000000000001</ele>
        <time>2013-08-17T10:14:09Z</time>
      </trkpt>
      <trkpt lat="54.222387028858066" lon="27.710243985056877">
        <ele>287.08999999999997</ele>
        <time>2013-08-17T10:14:13Z</time>
      </trkpt>
      <trkpt lat="54.222115036100149" lon="27.70913296379149">
        <ele>289.00999999999999</ele>
        <time>2013-08-17T10:14:27Z</time>
      </trkpt>
      <trkpt lat="54.221883025020361" lon="27.708193017169833">
        <ele>291.42000000000002</ele>
        <time>2013-08-17T10:14:42Z</time>
      </trkpt>
      <trkpt lat="54.221675992012024" lon="27.707351977005601">
        <ele>293.33999999999997</ele>
        <time>2013-08-17T10:14:54Z</time>
      </trkpt>
      <trkpt lat="54.221539031714201" lon="27.706804974004626">
        <ele>292.38</ele>
        <time>2013-08-17T10:15:02Z</time>
      </trkpt>
      <trkpt lat="54.221512963995337" lon="27.706669019535184">
        <ele>291.42000000000002</ele>
        <time>2013-08-17T10:15:04Z</time>
      </trkpt>
      <trkpt lat="54.221396036446095" lon="27.706068959087133">
        <ele>289.00999999999999</ele>
        <time>2013-08-17T10:15:13Z</time>
      </trkpt>
      <trkpt lat="54.221162013709545" lon="27.704876968637109">
        <ele>290.94</ele>
        <time>2013-08-17T10:15:29Z</time>
      </trkpt>
      <trkpt lat="54.220975013449788" lon="27.703876001760364">
        <ele>294.30000000000001</ele>
        <time>2013-08-17T10:15:44Z</time>
      </trkpt>
      <trkpt lat="54.220799999311566" lon="27.702915016561747">
        <ele>297.18000000000001</ele>
        <time>2013-08-17T10:15:59Z</time>
      </trkpt>
      <trkpt lat="54.220677958801389" lon="27.702125022187829">
        <ele>297.67000000000002</ele>
        <time>2013-08-17T10:16:14Z</time>
      </trkpt>
      <trkpt lat="54.220604030415416" lon="27.701681032776833">
        <ele>297.18000000000001</ele>
        <time>2013-08-17T10:16:26Z</time>
      </trkpt>
      <trkpt lat="54.220521971583366" lon="27.701284987851977">
        <ele>296.69999999999999</ele>
        <time>2013-08-17T10:16:39Z</time>
      </trkpt>
      <trkpt lat="54.220519037917256" lon="27.701244000345469">
        <ele>296.22000000000003</ele>
        <time>2013-08-17T10:17:00Z</time>
      </trkpt>
      <trkpt lat="54.220545021817088" lon="27.701265038922429">
        <ele>296.22000000000003</ele>
        <time>2013-08-17T10:17:07Z</time>
      </trkpt>
      <trkpt lat="54.22061501070857" lon="27.70182897336781">
        <ele>296.22000000000003</ele>
        <time>2013-08-17T10:17:18Z</time>
      </trkpt>
      <trkpt lat="54.220798993483186" lon="27.702808985486627">
        <ele>295.74000000000001</ele>
        <time>2013-08-17T10:17:35Z</time>
      </trkpt>
      <trkpt lat="54.22098197042942" lon="27.703860998153687">
        <ele>295.74000000000001</ele>
        <time>2013-08-17T10:17:53Z</time>
      </trkpt>
      <trkpt lat="54.221200989559293" lon="27.705037984997034">
        <ele>294.77999999999997</ele>
        <time>2013-08-17T10:18:09Z</time>
      </trkpt>
      <trkpt lat="54.221292017027736" lon="27.7055440004915">
        <ele>293.81999999999999</ele>
        <time>2013-08-17T10:18:16Z</time>
      </trkpt>
      <trkpt lat="54.22151698730886" lon="27.706734985113144">
        <ele>293.33999999999997</ele>
        <time>2013-08-17T10:18:33Z</time>
      </trkpt>
      <trkpt lat="54.221730977296829" lon="27.707536965608597">
        <ele>290.45999999999998</ele>
        <time>2013-08-17T10:18:45Z</time>
      </trkpt>
      <trkpt lat="54.221955025568604" lon="27.7085090149194">
        <ele>288.52999999999997</ele>
        <time>2013-08-17T10:18:59Z</time>
      </trkpt>
      <trkpt lat="54.222231963649392" lon="27.709230026230216">
        <ele>287.08999999999997</ele>
        <time>2013-08-17T10:19:13Z</time>
      </trkpt>
      <trkpt lat="54.222307987511158" lon="27.709159031510353">
        <ele>286.61000000000001</ele>
        <time>2013-08-17T10:19:16Z</time>
      </trkpt>
      <trkpt lat="54.222456011921167" lon="27.708992986008525">
        <ele>286.13</ele>
        <time>2013-08-17T10:19:28Z</time>
      </trkpt>
      <trkpt lat="54.222746025770903" lon="27.708833981305361">
        <ele>286.61000000000001</ele>
        <time>2013-08-17T10:19:42Z</time>
      </trkpt>
      <trkpt lat="54.222845016047359" lon="27.708770027384162">
        <ele>288.05000000000001</ele>
        <time>2013-08-17T10:19:54Z</time>
      </trkpt>
      <trkpt lat="54.223032016307116" lon="27.708632983267307">
        <ele>288.52999999999997</ele>
        <time>2013-08-17T10:20:06Z</time>
      </trkpt>
      <trkpt lat="54.223357988521457" lon="27.708398960530758">
        <ele>288.52999999999997</ele>
        <time>2013-08-17T10:20:21Z</time>
      </trkpt>
      <trkpt lat="54.223681027069688" lon="27.708283960819244">
        <ele>289.00999999999999</ele>
        <time>2013-08-17T10:20:35Z</time>
      </trkpt>
      <trkpt lat="54.223876995965838" lon="27.708219001069665">
        <ele>289.97000000000003</ele>
        <time>2013-08-17T10:20:47Z</time>
      </trkpt>
      <trkpt lat="54.224215038120747" lon="27.708149012178183">
        <ele>292.38</ele>
        <time>2013-08-17T10:21:03Z</time>
      </trkpt>
      <trkpt lat="54.224651986733079" lon="27.708029989153147">
        <ele>291.42000000000002</ele>
        <time>2013-08-17T10:21:16Z</time>
      </trkpt>
      <trkpt lat="54.224905958399177" lon="27.70801498554647">
        <ele>291.42000000000002</ele>
        <time>2013-08-17T10:21:29Z</time>
      </trkpt>
      <trkpt lat="54.225275013595819" lon="27.707914989441633">
        <ele>291.89999999999998</ele>
        <time>2013-08-17T10:21:43Z</time>
      </trkpt>
      <trkpt lat="54.225756973028183" lon="27.707807030528784">
        <ele>291.89999999999998</ele>
        <time>2013-08-17T10:21:57Z</time>
      </trkpt>
      <trkpt lat="54.225958976894617" lon="27.707837959751487">
        <ele>291.42000000000002</ele>
        <time>2013-08-17T10:22:10Z</time>
      </trkpt>
      <trkpt lat="54.226196017116308" lon="27.707753973081708">
        <ele>289.97000000000003</ele>
        <time>2013-08-17T10:22:23Z</time>
      </trkpt>
      <trkpt lat="54.226346975192428" lon="27.707678033038974">
        <ele>290.45999999999998</ele>
        <time>2013-08-17T10:22:34Z</time>
      </trkpt>
      <trkpt lat="54.226517966017127" lon="27.707641990855336">
        <ele>289.97000000000003</ele>
        <time>2013-08-17T10:22:52Z</time>
      </trkpt>
      <trkpt lat="54.226621985435486" lon="27.707620030269027">
        <ele>289.49000000000001</ele>
        <time>2013-08-17T10:22:57Z</time>
      </trkpt>
      <trkpt lat="54.226971007883549" lon="27.707556998357177">
        <ele>287.56999999999999</ele>
        <time>2013-08-17T10:23:10Z</time>
      </trkpt>
      <trkpt lat="54.227032028138638" lon="27.707550963386893">
        <ele>287.08999999999997</ele>
        <time>2013-08-17T10:23:14Z</time>
      </trkpt>
      <trkpt lat="54.227066980674863" lon="27.70756596699357">
        <ele>286.61000000000001</ele>
        <time>2013-08-17T10:23:17Z</time>
      </trkpt>
      <trkpt lat="54.227132024243474" lon="27.707549035549164">
        <ele>285.17000000000002</ele>
        <time>2013-08-17T10:23:32Z</time>
      </trkpt>
      <trkpt lat="54.227171000093222" lon="27.707491032779217">
        <ele>285.64999999999998</ele>
        <time>2013-08-17T10:23:35Z</time>
      </trkpt>
      <trkpt lat="54.22744601033628" lon="27.707372009754181">
        <ele>288.52999999999997</ele>
        <time>2013-08-17T10:23:51Z</time>
      </trkpt>
      <trkpt lat="54.227586993947625" lon="27.707375027239323">
        <ele>289.97000000000003</ele>
        <time>2013-08-17T10:23:58Z</time>
      </trkpt>
      <trkpt lat="54.227988990023732" lon="27.707265978679061">
        <ele>292.38</ele>
        <time>2013-08-17T10:24:13Z</time>
      </trkpt>
      <trkpt lat="54.228388974443078" lon="27.707232031971216">
        <ele>291.89999999999998</ele>
        <time>2013-08-17T10:24:28Z</time>
      </trkpt>
      <trkpt lat="54.22864998690784" lon="27.707141004502773">
        <ele>293.33999999999997</ele>
        <time>2013-08-17T10:24:40Z</time>
      </trkpt>
      <trkpt lat="54.229001021012664" lon="27.707107979804277">
        <ele>293.33999999999997</ele>
        <time>2013-08-17T10:24:55Z</time>
      </trkpt>
      <trkpt lat="54.229068998247385" lon="27.70711300894618">
        <ele>292.86000000000001</ele>
        <time>2013-08-17T10:24:59Z</time>
      </trkpt>
      <trkpt lat="54.229152984917164" lon="27.70713496953249">
        <ele>292.38</ele>
        <time>2013-08-17T10:25:04Z</time>
      </trkpt>
      <trkpt lat="54.22940201126039" lon="27.707001026719809">
        <ele>290.45999999999998</ele>
        <time>2013-08-17T10:25:18Z</time>
      </trkpt>
      <trkpt lat="54.2297019995749" lon="27.706925002858043">
        <ele>289.49000000000001</ele>
        <time>2013-08-17T10:25:31Z</time>
      </trkpt>
      <trkpt lat="54.22993702813983" lon="27.706869011744857">
        <ele>287.56999999999999</ele>
        <time>2013-08-17T10:25:43Z</time>
      </trkpt>
      <trkpt lat="54.230236010625958" lon="27.706772033125162">
        <ele>286.13</ele>
        <time>2013-08-17T10:25:57Z</time>
      </trkpt>
      <trkpt lat="54.230388980358839" lon="27.706758035346866">
        <ele>285.64999999999998</ele>
        <time>2013-08-17T10:26:10Z</time>
      </trkpt>
      <trkpt lat="54.230624008923769" lon="27.706556031480432">
        <ele>285.17000000000002</ele>
        <time>2013-08-17T10:26:23Z</time>
      </trkpt>
      <trkpt lat="54.230830958113074" lon="27.706362996250391">
        <ele>285.17000000000002</ele>
        <time>2013-08-17T10:26:37Z</time>
      </trkpt>
      <trkpt lat="54.230925003066659" lon="27.706251014024019">
        <ele>283.73000000000002</ele>
        <time>2013-08-17T10:26:50Z</time>
      </trkpt>
      <trkpt lat="54.231148967519403" lon="27.706149006262422">
        <ele>282.27999999999997</ele>
        <time>2013-08-17T10:27:03Z</time>
      </trkpt>
      <trkpt lat="54.231217028573155" lon="27.706068037077785">
        <ele>283.25</ele>
        <time>2013-08-17T10:27:17Z</time>
      </trkpt>
      <trkpt lat="54.231213005259633" lon="27.706066025421023">
        <ele>283.25</ele>
        <time>2013-08-17T10:28:14Z</time>
      </trkpt>
      <trkpt lat="54.231215016916394" lon="27.706040041521192">
        <ele>283.25</ele>
        <time>2013-08-17T10:28:54Z</time>
      </trkpt>
      <trkpt lat="54.231275031343102" lon="27.70584600046277">
        <ele>284.69</ele>
        <time>2013-08-17T10:29:07Z</time>
      </trkpt>
      <trkpt lat="54.231449961662292" lon="27.705584987998009">
        <ele>283.25</ele>
        <time>2013-08-17T10:29:19Z</time>
      </trkpt>
      <trkpt lat="54.231644002720714" lon="27.705424977466464">
        <ele>280.83999999999997</ele>
        <time>2013-08-17T10:29:30Z</time>
      </trkpt>
      <trkpt lat="54.23178699798882" lon="27.705249041318893">
        <ele>278.92000000000002</ele>
        <time>2013-08-17T10:29:39Z</time>
      </trkpt>
      <trkpt lat="54.231895040720701" lon="27.705162037163973">
        <ele>279.39999999999998</ele>
        <time>2013-08-17T10:29:45Z</time>
      </trkpt>
      <trkpt lat="54.232075000181794" lon="27.705238983035088">
        <ele>280.83999999999997</ele>
        <time>2013-08-17T10:29:59Z</time>
      </trkpt>
      <trkpt lat="54.232142977416515" lon="27.705303020775318">
        <ele>280.83999999999997</ele>
        <time>2013-08-17T10:30:44Z</time>
      </trkpt>
      <trkpt lat="54.232475990429521" lon="27.70543796941638">
        <ele>280.83999999999997</ele>
        <time>2013-08-17T10:30:57Z</time>
      </trkpt>
      <trkpt lat="54.232871029525995" lon="27.705363035202026">
        <ele>284.69</ele>
        <time>2013-08-17T10:31:11Z</time>
      </trkpt>
      <trkpt lat="54.233217034488916" lon="27.705293968319893">
        <ele>285.17000000000002</ele>
        <time>2013-08-17T10:31:21Z</time>
      </trkpt>
      <trkpt lat="54.23387199640274" lon="27.705108979716897">
        <ele>278.92000000000002</ele>
        <time>2013-08-17T10:31:33Z</time>
      </trkpt>
      <trkpt lat="54.233924970030785" lon="27.705089030787349">
        <ele>278.44</ele>
        <time>2013-08-17T10:31:34Z</time>
      </trkpt>
      <trkpt lat="54.234031001105905" lon="27.705076038837433">
        <ele>277.48000000000002</ele>
        <time>2013-08-17T10:31:36Z</time>
      </trkpt>
      <trkpt lat="54.234196962788701" lon="27.705033961683512">
        <ele>276.04000000000002</ele>
        <time>2013-08-17T10:31:39Z</time>
      </trkpt>
      <trkpt lat="54.234621003270149" lon="27.704955004155636">
        <ele>273.63</ele>
        <time>2013-08-17T10:31:49Z</time>
      </trkpt>
      <trkpt lat="54.235039008781314" lon="27.704852996394038">
        <ele>274.11000000000001</ele>
        <time>2013-08-17T10:32:01Z</time>
      </trkpt>
      <trkpt lat="54.235070021823049" lon="27.704846961423755">
        <ele>274.11000000000001</ele>
        <time>2013-08-17T10:32:02Z</time>
      </trkpt>
      <trkpt lat="54.23554896377027" lon="27.704740008339286">
        <ele>277.95999999999998</ele>
        <time>2013-08-17T10:32:14Z</time>
      </trkpt>
      <trkpt lat="54.23576002009213" lon="27.704760041087866">
        <ele>276.51999999999998</ele>
        <time>2013-08-17T10:32:19Z</time>
      </trkpt>
      <trkpt lat="54.235830008983612" lon="27.704933965578675">
        <ele>275.56</ele>
        <time>2013-08-17T10:32:24Z</time>
      </trkpt>
      <trkpt lat="54.235978033393621" lon="27.705407962203026">
        <ele>273.14999999999998</ele>
        <time>2013-08-17T10:32:37Z</time>
      </trkpt>
      <trkpt lat="54.236103007569909" lon="27.706099972128868">
        <ele>268.82999999999998</ele>
        <time>2013-08-17T10:32:49Z</time>
      </trkpt>
      <trkpt lat="54.236413976177573" lon="27.706548990681767">
        <ele>267.86000000000001</ele>
        <time>2013-08-17T10:33:02Z</time>
      </trkpt>
      <trkpt lat="54.236625032499433" lon="27.706730961799622">
        <ele>268.35000000000002</ele>
        <time>2013-08-17T10:33:12Z</time>
      </trkpt>
      <trkpt lat="54.237005989998579" lon="27.706856019794941">
        <ele>268.82999999999998</ele>
        <time>2013-08-17T10:33:25Z</time>
      </trkpt>
      <trkpt lat="54.237383008003235" lon="27.707124995067716">
        <ele>268.35000000000002</ele>
        <time>2013-08-17T10:33:39Z</time>
      </trkpt>
      <trkpt lat="54.237791961058974" lon="27.707480974495411">
        <ele>266.89999999999998</ele>
        <time>2013-08-17T10:33:52Z</time>
      </trkpt>
      <trkpt lat="54.238237040117383" lon="27.707852041348815">
        <ele>266.89999999999998</ele>
        <time>2013-08-17T10:34:06Z</time>
      </trkpt>
      <trkpt lat="54.238610034808517" lon="27.708328971639276">
        <ele>268.35000000000002</ele>
        <time>2013-08-17T10:34:20Z</time>
      </trkpt>
      <trkpt lat="54.238952016457915" lon="27.708691991865635">
        <ele>269.79000000000002</ele>
        <time>2013-08-17T10:34:34Z</time>
      </trkpt>
      <trkpt lat="54.239148991182446" lon="27.70880900323391">
        <ele>268.82999999999998</ele>
        <time>2013-08-17T10:34:42Z</time>
      </trkpt>
      <trkpt lat="54.239213028922677" lon="27.70885300822556">
        <ele>268.82999999999998</ele>
        <time>2013-08-17T10:34:58Z</time>
      </trkpt>
      <trkpt lat="54.239277988672256" lon="27.708912016823888">
        <ele>268.82999999999998</ele>
        <time>2013-08-17T10:35:36Z</time>
      </trkpt>
      <trkpt lat="54.239773023873568" lon="27.70926296710968">
        <ele>266.42000000000002</ele>
        <time>2013-08-17T10:35:48Z</time>
      </trkpt>
      <trkpt lat="54.240347016602755" lon="27.709635039791465">
        <ele>262.57999999999998</ele>
        <time>2013-08-17T10:35:58Z</time>
      </trkpt>
      <trkpt lat="54.240883039310575" lon="27.710192017257214">
        <ele>255.84999999999999</ele>
        <time>2013-08-17T10:36:07Z</time>
      </trkpt>
      <trkpt lat="54.24102402292192" lon="27.710583033040166">
        <ele>253.44</ele>
        <time>2013-08-17T10:36:11Z</time>
      </trkpt>
      <trkpt lat="54.24106802791357" lon="27.710818983614445">
        <ele>252</ele>
        <time>2013-08-17T10:36:13Z</time>
      </trkpt>
      <trkpt lat="54.241473963484168" lon="27.711319969967008">
        <ele>247.19999999999999</ele>
        <time>2013-08-17T10:36:20Z</time>
      </trkpt>
      <trkpt lat="54.241559039801359" lon="27.711376966908574">
        <ele>246.22999999999999</ele>
        <time>2013-08-17T10:36:21Z</time>
      </trkpt>
      <trkpt lat="54.242110988125205" lon="27.711558016017079">
        <ele>242.38999999999999</ele>
        <time>2013-08-17T10:36:27Z</time>
      </trkpt>
      <trkpt lat="54.242376023903489" lon="27.711592968553305">
        <ele>240.94999999999999</ele>
        <time>2013-08-17T10:36:30Z</time>
      </trkpt>
      <trkpt lat="54.242461016401649" lon="27.71158198826015">
        <ele>240.94999999999999</ele>
        <time>2013-08-17T10:36:31Z</time>
      </trkpt>
      <trkpt lat="54.242542991414666" lon="27.711553992703557">
        <ele>240.47</ele>
        <time>2013-08-17T10:36:32Z</time>
      </trkpt>
      <trkpt lat="54.243671027943492" lon="27.710958961397409">
        <ele>237.58000000000001</ele>
        <time>2013-08-17T10:36:48Z</time>
      </trkpt>
      <trkpt lat="54.244539979845285" lon="27.710187993943691">
        <ele>237.09999999999999</ele>
        <time>2013-08-17T10:37:04Z</time>
      </trkpt>
      <trkpt lat="54.244709964841604" lon="27.709949025884271">
        <ele>238.06</ele>
        <time>2013-08-17T10:37:09Z</time>
      </trkpt>
      <trkpt lat="54.244731003418565" lon="27.709894040599465">
        <ele>238.06</ele>
        <time>2013-08-17T10:37:10Z</time>
      </trkpt>
      <trkpt lat="54.244743995368481" lon="27.70984098315239">
        <ele>238.53999999999999</ele>
        <time>2013-08-17T10:37:11Z</time>
      </trkpt>
      <trkpt lat="54.244755981490016" lon="27.7097989898175">
        <ele>238.53999999999999</ele>
        <time>2013-08-17T10:37:12Z</time>
      </trkpt>
      <trkpt lat="54.244769979268312" lon="27.709769988432527">
        <ele>239.02000000000001</ele>
        <time>2013-08-17T10:37:13Z</time>
      </trkpt>
      <trkpt lat="54.244780959561467" lon="27.709749033674598">
        <ele>239.02000000000001</ele>
        <time>2013-08-17T10:37:14Z</time>
      </trkpt>
      <trkpt lat="54.244793029502034" lon="27.709729000926018">
        <ele>239.02000000000001</ele>
        <time>2013-08-17T10:37:15Z</time>
      </trkpt>
      <trkpt lat="54.244804009795189" lon="27.70971299149096">
        <ele>239.02000000000001</ele>
        <time>2013-08-17T10:37:16Z</time>
      </trkpt>
      <trkpt lat="54.244810966774821" lon="27.709694970399141">
        <ele>239.02000000000001</ele>
        <time>2013-08-17T10:37:17Z</time>
      </trkpt>
      <trkpt lat="54.244836028665304" lon="27.709661023691297">
        <ele>239.50999999999999</ele>
        <time>2013-08-17T10:37:35Z</time>
      </trkpt>
      <trkpt lat="54.244852960109711" lon="27.709659012034535">
        <ele>239.50999999999999</ele>
        <time>2013-08-17T10:37:36Z</time>
      </trkpt>
      <trkpt lat="54.245189996436238" lon="27.709661023691297">
        <ele>239.99000000000001</ele>
        <time>2013-08-17T10:37:49Z</time>
      </trkpt>
      <trkpt lat="54.245710009709001" lon="27.709408979862928">
        <ele>237.09999999999999</ele>
        <time>2013-08-17T10:38:02Z</time>
      </trkpt>
      <trkpt lat="54.246744001284242" lon="27.708753012120724">
        <ele>230.37</ele>
        <time>2013-08-17T10:38:19Z</time>
      </trkpt>
      <trkpt lat="54.247111966833472" lon="27.708523012697697">
        <ele>227.97</ele>
        <time>2013-08-17T10:38:24Z</time>
      </trkpt>
      <trkpt lat="54.248369000852108" lon="27.707803007215261">
        <ele>219.31999999999999</ele>
        <time>2013-08-17T10:38:38Z</time>
      </trkpt>
      <trkpt lat="54.249416990205646" lon="27.707180986180902">
        <ele>214.50999999999999</ele>
        <time>2013-08-17T10:38:51Z</time>
      </trkpt>
      <trkpt lat="54.250023001804948" lon="27.70683498121798">
        <ele>215.47</ele>
        <time>2013-08-17T10:39:02Z</time>
      </trkpt>
      <trkpt lat="54.250659020617604" lon="27.706314967945218">
        <ele>215.94999999999999</ele>
        <time>2013-08-17T10:39:16Z</time>
      </trkpt>
      <trkpt lat="54.250924978405237" lon="27.70550200715661">
        <ele>217.40000000000001</ele>
        <time>2013-08-17T10:39:30Z</time>
      </trkpt>
      <trkpt lat="54.250982981175184" lon="27.70457798615098">
        <ele>223.16</ele>
        <time>2013-08-17T10:39:48Z</time>
      </trkpt>
      <trkpt lat="54.251007959246635" lon="27.703791009262204">
        <ele>226.53</ele>
        <time>2013-08-17T10:40:05Z</time>
      </trkpt>
      <trkpt lat="54.251032015308738" lon="27.703014006838202">
        <ele>229.88999999999999</ele>
        <time>2013-08-17T10:40:22Z</time>
      </trkpt>
      <trkpt lat="54.251051964238286" lon="27.702375976368785">
        <ele>232.78</ele>
        <time>2013-08-17T10:40:36Z</time>
      </trkpt>
      <trkpt lat="54.25108197145164" lon="27.701626969501376">
        <ele>234.69999999999999</ele>
        <time>2013-08-17T10:40:52Z</time>
      </trkpt>
      <trkpt lat="54.251113990321755" lon="27.700814008712769">
        <ele>238.06</ele>
        <time>2013-08-17T10:41:10Z</time>
      </trkpt>
      <trkpt lat="54.251135028898716" lon="27.70021696574986">
        <ele>239.99000000000001</ele>
        <time>2013-08-17T10:41:23Z</time>
      </trkpt>
      <trkpt lat="54.251161012798548" lon="27.69954901188612">
        <ele>241.91</ele>
        <time>2013-08-17T10:41:37Z</time>
      </trkpt>
      <trkpt lat="54.251198982819915" lon="27.698762034997344">
        <ele>245.27000000000001</ele>
        <time>2013-08-17T10:41:54Z</time>
      </trkpt>
      <trkpt lat="54.251234019175172" lon="27.698001964017749">
        <ele>248.16</ele>
        <time>2013-08-17T10:42:11Z</time>
      </trkpt>
      <trkpt lat="54.251355975866318" lon="27.697269972413778">
        <ele>251.03999999999999</ele>
        <time>2013-08-17T10:42:27Z</time>
      </trkpt>
      <trkpt lat="54.251546999439597" lon="27.696706037968397">
        <ele>252</ele>
        <time>2013-08-17T10:42:41Z</time>
      </trkpt>
      <trkpt lat="54.251670967787504" lon="27.69641200080514">
        <ele>251.52000000000001</ele>
        <time>2013-08-17T10:42:47Z</time>
      </trkpt>
      <trkpt lat="54.251702986657619" lon="27.696356009691954">
        <ele>251.52000000000001</ele>
        <time>2013-08-17T10:42:48Z</time>
      </trkpt>
      <trkpt lat="54.251827038824558" lon="27.696096003055573">
        <ele>250.56</ele>
        <time>2013-08-17T10:42:52Z</time>
      </trkpt>
      <trkpt lat="54.251843970268965" lon="27.696014028042555">
        <ele>250.56</ele>
        <time>2013-08-17T10:42:53Z</time>
      </trkpt>
      <trkpt lat="54.251855034381151" lon="27.695925012230873">
        <ele>250.56</ele>
        <time>2013-08-17T10:42:54Z</time>
      </trkpt>
      <trkpt lat="54.251867020502687" lon="27.695826021954417">
        <ele>250.08000000000001</ele>
        <time>2013-08-17T10:42:55Z</time>
      </trkpt>
      <trkpt lat="54.251878000795841" lon="27.695723008364439">
        <ele>249.59999999999999</ele>
        <time>2013-08-17T10:42:56Z</time>
      </trkpt>
      <trkpt lat="54.251883029937744" lon="27.695613959804177">
        <ele>249.59999999999999</ele>
        <time>2013-08-17T10:42:57Z</time>
      </trkpt>
      <trkpt lat="54.251882024109364" lon="27.695493008941412">
        <ele>248.63999999999999</ele>
        <time>2013-08-17T10:42:58Z</time>
      </trkpt>
      <trkpt lat="54.251870959997177" lon="27.695092018693686">
        <ele>246.22999999999999</ele>
        <time>2013-08-17T10:43:01Z</time>
      </trkpt>
      <trkpt lat="54.251848999410868" lon="27.6931709703058">
        <ele>236.62</ele>
        <time>2013-08-17T10:43:13Z</time>
      </trkpt>
      <trkpt lat="54.251898033544421" lon="27.691909996792674">
        <ele>233.25999999999999</ele>
        <time>2013-08-17T10:43:22Z</time>
      </trkpt>
      <trkpt lat="54.251909013837576" lon="27.690894026309252">
        <ele>232.78</ele>
        <time>2013-08-17T10:43:33Z</time>
      </trkpt>
      <trkpt lat="54.251852016896009" lon="27.689973022788763">
        <ele>235.18000000000001</ele>
        <time>2013-08-17T10:43:49Z</time>
      </trkpt>
      <trkpt lat="54.251773981377482" lon="27.689261985942721">
        <ele>238.06</ele>
        <time>2013-08-17T10:44:05Z</time>
      </trkpt>
      <trkpt lat="54.251721007749438" lon="27.688702996820211">
        <ele>242.87</ele>
        <time>2013-08-17T10:44:21Z</time>
      </trkpt>
      <trkpt lat="54.251673985272646" lon="27.688238974660635">
        <ele>246.72</ele>
        <time>2013-08-17T10:44:35Z</time>
      </trkpt>
      <trkpt lat="54.251661999151111" lon="27.687870003283024">
        <ele>249.59999999999999</ele>
        <time>2013-08-17T10:44:47Z</time>
      </trkpt>
      <trkpt lat="54.251642972230911" lon="27.687383014708757">
        <ele>252.96000000000001</ele>
        <time>2013-08-17T10:45:01Z</time>
      </trkpt>
      <trkpt lat="54.251626040786505" lon="27.686855038627982">
        <ele>255.84999999999999</ele>
        <time>2013-08-17T10:45:15Z</time>
      </trkpt>
      <trkpt lat="54.251611959189177" lon="27.686124974861741">
        <ele>257.76999999999998</ele>
        <time>2013-08-17T10:45:34Z</time>
      </trkpt>
      <trkpt lat="54.251592010259628" lon="27.685553999617696">
        <ele>259.69</ele>
        <time>2013-08-17T10:45:49Z</time>
      </trkpt>
      <trkpt lat="54.251560997217894" lon="27.685084026306868">
        <ele>259.69</ele>
        <time>2013-08-17T10:46:02Z</time>
      </trkpt>
      <trkpt lat="54.251556973904371" lon="27.68451196141541">
        <ele>260.64999999999998</ele>
        <time>2013-08-17T10:46:15Z</time>
      </trkpt>
      <trkpt lat="54.251538030803204" lon="27.683771001175046">
        <ele>262.10000000000002</ele>
        <time>2013-08-17T10:46:29Z</time>
      </trkpt>
      <trkpt lat="54.25146896392107" lon="27.683088965713978">
        <ele>264.01999999999998</ele>
        <time>2013-08-17T10:46:43Z</time>
      </trkpt>
      <trkpt lat="54.251427976414561" lon="27.682465016841888">
        <ele>268.35000000000002</ele>
        <time>2013-08-17T10:46:57Z</time>
      </trkpt>
      <trkpt lat="54.25138003192842" lon="27.681787004694343">
        <ele>270.75</ele>
        <time>2013-08-17T10:47:11Z</time>
      </trkpt>
      <trkpt lat="54.251384977251291" lon="27.681241007521749">
        <ele>272.19</ele>
        <time>2013-08-17T10:47:22Z</time>
      </trkpt>
      <trkpt lat="54.251329991966486" lon="27.680570958182216">
        <ele>273.63</ele>
        <time>2013-08-17T10:47:36Z</time>
      </trkpt>
      <trkpt lat="54.251429988071322" lon="27.680099979043007">
        <ele>274.58999999999997</ele>
        <time>2013-08-17T10:47:49Z</time>
      </trkpt>
      <trkpt lat="54.251458989456296" lon="27.679576026275754">
        <ele>276.51999999999998</ele>
        <time>2013-08-17T10:48:02Z</time>
      </trkpt>
      <trkpt lat="54.251367039978504" lon="27.678899019956589">
        <ele>279.39999999999998</ele>
        <time>2013-08-17T10:48:19Z</time>
      </trkpt>
      <trkpt lat="54.251459995284677" lon="27.678394010290504">
        <ele>280.36000000000001</ele>
        <time>2013-08-17T10:48:33Z</time>
      </trkpt>
      <trkpt lat="54.251579018309712" lon="27.678001988679171">
        <ele>279.88</ele>
        <time>2013-08-17T10:48:46Z</time>
      </trkpt>
      <trkpt lat="54.251377014443278" lon="27.67761399038136">
        <ele>279.88</ele>
        <time>2013-08-17T10:48:53Z</time>
      </trkpt>
      <trkpt lat="54.251110972836614" lon="27.67703496851027">
        <ele>283.25</ele>
        <time>2013-08-17T10:49:08Z</time>
      </trkpt>
      <trkpt lat="54.251054981723428" lon="27.676586033776402">
        <ele>285.17000000000002</ele>
        <time>2013-08-17T10:49:19Z</time>
      </trkpt>
      <trkpt lat="54.251051964238286" lon="27.67623701132834">
        <ele>288.52999999999997</ele>
        <time>2013-08-17T10:49:31Z</time>
      </trkpt>
      <trkpt lat="54.250959008932114" lon="27.675879020243883">
        <ele>292.38</ele>
        <time>2013-08-17T10:49:43Z</time>
      </trkpt>
      <trkpt lat="54.250947022810578" lon="27.675841972231865">
        <ele>292.86000000000001</ele>
        <time>2013-08-17T10:49:45Z</time>
      </trkpt>
      <trkpt lat="54.250915003940463" lon="27.675684979185462">
        <ele>294.30000000000001</ele>
        <time>2013-08-17T10:49:53Z</time>
      </trkpt>
      <trkpt lat="54.25090603530407" lon="27.675408963114023">
        <ele>295.25999999999999</ele>
        <time>2013-08-17T10:50:01Z</time>
      </trkpt>
      <trkpt lat="54.250792041420937" lon="27.674847040325403">
        <ele>295.25999999999999</ele>
        <time>2013-08-17T10:50:16Z</time>
      </trkpt>
      <trkpt lat="54.250760022550821" lon="27.674428028985858">
        <ele>300.06999999999999</ele>
        <time>2013-08-17T10:50:28Z</time>
      </trkpt>
      <trkpt lat="54.250788018107414" lon="27.674026032909751">
        <ele>302.47000000000003</ele>
        <time>2013-08-17T10:50:41Z</time>
      </trkpt>
      <trkpt lat="54.250720040872693" lon="27.673698971047997">
        <ele>305.36000000000001</ele>
        <time>2013-08-17T10:50:52Z</time>
      </trkpt>
      <trkpt lat="54.250690033659339" lon="27.673561004921794">
        <ele>306.31999999999999</ele>
        <time>2013-08-17T10:50:58Z</time>
      </trkpt>
      <trkpt lat="54.250667989253998" lon="27.67295197583735">
        <ele>306.80000000000001</ele>
        <time>2013-08-17T10:51:15Z</time>
      </trkpt>
      <trkpt lat="54.250747030600905" lon="27.672626003623009">
        <ele>306.80000000000001</ele>
        <time>2013-08-17T10:51:29Z</time>
      </trkpt>
      <trkpt lat="54.250796986743808" lon="27.67247898504138">
        <ele>306.80000000000001</ele>
        <time>2013-08-17T10:51:35Z</time>
      </trkpt>
      <trkpt lat="54.250854989513755" lon="27.672342024743557">
        <ele>307.27999999999997</ele>
        <time>2013-08-17T10:51:42Z</time>
      </trkpt>
      <trkpt lat="54.250890025869012" lon="27.672153012827039">
        <ele>307.75999999999999</ele>
        <time>2013-08-17T10:51:52Z</time>
      </trkpt>
      <trkpt lat="54.25086697563529" lon="27.672140020877123">
        <ele>308.24000000000001</ele>
        <time>2013-08-17T10:51:55Z</time>
      </trkpt>
      <trkpt lat="54.250852977856994" lon="27.672334983944893">
        <ele>308.72000000000003</ele>
        <time>2013-08-17T10:52:04Z</time>
      </trkpt>
      <trkpt lat="54.250810984522104" lon="27.672530030831695">
        <ele>308.24000000000001</ele>
        <time>2013-08-17T10:52:13Z</time>
      </trkpt>
      <trkpt lat="54.250688022002578" lon="27.672923980280757">
        <ele>307.27999999999997</ele>
        <time>2013-08-17T10:52:27Z</time>
      </trkpt>
      <trkpt lat="54.250695984810591" lon="27.673334022983909">
        <ele>306.31999999999999</ele>
        <time>2013-08-17T10:52:40Z</time>
      </trkpt>
      <trkpt lat="54.250749964267015" lon="27.6737040001899">
        <ele>306.31999999999999</ele>
        <time>2013-08-17T10:52:54Z</time>
      </trkpt>
      <trkpt lat="54.250755999237299" lon="27.673784969374537">
        <ele>305.36000000000001</ele>
        <time>2013-08-17T10:52:58Z</time>
      </trkpt>
      <trkpt lat="54.250781983137131" lon="27.673820005729795">
        <ele>304.88</ele>
        <time>2013-08-17T10:53:01Z</time>
      </trkpt>
      <trkpt lat="54.25077703781426" lon="27.673857975751162">
        <ele>304.38999999999999</ele>
        <time>2013-08-17T10:53:19Z</time>
      </trkpt>
      <trkpt lat="54.250766979530454" lon="27.673842972144485">
        <ele>304.38999999999999</ele>
        <time>2013-08-17T10:55:53Z</time>
      </trkpt>
      <trkpt lat="54.250677041709423" lon="27.673242995515466">
        <ele>305.36000000000001</ele>
        <time>2013-08-17T10:56:06Z</time>
      </trkpt>
      <trkpt lat="54.250771002843976" lon="27.672550985589623">
        <ele>307.27999999999997</ele>
        <time>2013-08-17T10:56:18Z</time>
      </trkpt>
      <trkpt lat="54.250877033919096" lon="27.67191999591887">
        <ele>308.24000000000001</ele>
        <time>2013-08-17T10:56:30Z</time>
      </trkpt>
      <trkpt lat="54.250861024484038" lon="27.670935038477182">
        <ele>307.75999999999999</ele>
        <time>2013-08-17T10:56:46Z</time>
      </trkpt>
      <trkpt lat="54.250826993957162" lon="27.669933987781405">
        <ele>309.19999999999999</ele>
        <time>2013-08-17T10:57:02Z</time>
      </trkpt>
      <trkpt lat="54.250798998400569" lon="27.668931009247899">
        <ele>311.60000000000002</ele>
        <time>2013-08-17T10:57:18Z</time>
      </trkpt>
      <trkpt lat="54.250760022550821" lon="27.667920989915729">
        <ele>312.56999999999999</ele>
        <time>2013-08-17T10:57:34Z</time>
      </trkpt>
      <trkpt lat="54.250767985358834" lon="27.667029993608594">
        <ele>313.05000000000001</ele>
        <time>2013-08-17T10:57:48Z</time>
      </trkpt>
      <trkpt lat="54.250726997852325" lon="27.666069008409977">
        <ele>314.49000000000001</ele>
        <time>2013-08-17T10:58:03Z</time>
      </trkpt>
      <trkpt lat="54.250691961497068" lon="27.665354032069445">
        <ele>314.97000000000003</ele>
        <time>2013-08-17T10:58:15Z</time>
      </trkpt>
      <trkpt lat="54.250652985647321" lon="27.664188025519252">
        <ele>315.93000000000001</ele>
        <time>2013-08-17T10:58:33Z</time>
      </trkpt>
      <trkpt lat="54.250617027282715" lon="27.663299040868878">
        <ele>315.93000000000001</ele>
        <time>2013-08-17T10:58:47Z</time>
      </trkpt>
      <trkpt lat="54.250566987320781" lon="27.662450959905982">
        <ele>315.93000000000001</ele>
        <time>2013-08-17T10:59:01Z</time>
      </trkpt>
      <trkpt lat="54.25050001591444" lon="27.661415040493011">
        <ele>314.00999999999999</ele>
        <time>2013-08-17T10:59:15Z</time>
      </trkpt>
      <trkpt lat="54.250445030629635" lon="27.660049041733146">
        <ele>313.52999999999997</ele>
        <time>2013-08-17T10:59:34Z</time>
      </trkpt>
      <trkpt lat="54.250388033688068" lon="27.658890997990966">
        <ele>314.97000000000003</ele>
        <time>2013-08-17T10:59:51Z</time>
      </trkpt>
      <trkpt lat="54.250291977077723" lon="27.658063033595681">
        <ele>316.41000000000003</ele>
        <time>2013-08-17T11:00:05Z</time>
      </trkpt>
      <trkpt lat="54.250375963747501" lon="27.65741603448987">
        <ele>317.37</ele>
        <time>2013-08-17T11:00:17Z</time>
      </trkpt>
      <trkpt lat="54.250360038131475" lon="27.656731987372041">
        <ele>319.77999999999997</ele>
        <time>2013-08-17T11:00:31Z</time>
      </trkpt>
      <trkpt lat="54.250282002612948" lon="27.656253967434168">
        <ele>321.22000000000003</ele>
        <time>2013-08-17T11:00:44Z</time>
      </trkpt>
      <trkpt lat="54.250192986801267" lon="27.655605962499976">
        <ele>323.13999999999999</ele>
        <time>2013-08-17T11:00:58Z</time>
      </trkpt>
      <trkpt lat="54.250074969604611" lon="27.654943037778139">
        <ele>323.62</ele>
        <time>2013-08-17T11:01:11Z</time>
      </trkpt>
      <trkpt lat="54.250031970441341" lon="27.654382036998868">
        <ele>324.57999999999998</ele>
        <time>2013-08-17T11:01:24Z</time>
      </trkpt>
      <trkpt lat="54.249911019578576" lon="27.653885995969176">
        <ele>326.5</ele>
        <time>2013-08-17T11:01:37Z</time>
      </trkpt>
      <trkpt lat="54.249802976846695" lon="27.653611991554499">
        <ele>327.94999999999999</ele>
        <time>2013-08-17T11:01:49Z</time>
      </trkpt>
      <trkpt lat="54.249627962708473" lon="27.653295993804932">
        <ele>326.01999999999998</ele>
        <time>2013-08-17T11:02:03Z</time>
      </trkpt>
      <trkpt lat="54.249493014067411" lon="27.652680007740855">
        <ele>327.47000000000003</ele>
        <time>2013-08-17T11:02:17Z</time>
      </trkpt>
      <trkpt lat="54.249537019059062" lon="27.652468029409647">
        <ele>328.43000000000001</ele>
        <time>2013-08-17T11:02:23Z</time>
      </trkpt>
      <trkpt lat="54.249623017385602" lon="27.652390999719501">
        <ele>328.43000000000001</ele>
        <time>2013-08-17T11:02:27Z</time>
      </trkpt>
      <trkpt lat="54.249976985156536" lon="27.652295026928186">
        <ele>329.38999999999999</ele>
        <time>2013-08-17T11:02:43Z</time>
      </trkpt>
      <trkpt lat="54.25022098235786" lon="27.652240041643381">
        <ele>329.38999999999999</ele>
        <time>2013-08-17T11:02:56Z</time>
      </trkpt>
      <trkpt lat="54.250272028148174" lon="27.652172986418009">
        <ele>329.87</ele>
        <time>2013-08-17T11:03:00Z</time>
      </trkpt>
      <trkpt lat="54.250404965132475" lon="27.651834022253752">
        <ele>330.82999999999998</ele>
        <time>2013-08-17T11:03:12Z</time>
      </trkpt>
      <trkpt lat="54.250657008960843" lon="27.651074035093188">
        <ele>330.35000000000002</ele>
        <time>2013-08-17T11:03:27Z</time>
      </trkpt>
      <trkpt lat="54.250687016174197" lon="27.65022000297904">
        <ele>327.94999999999999</ele>
        <time>2013-08-17T11:03:40Z</time>
      </trkpt>
      <trkpt lat="54.25073797814548" lon="27.649260023608804">
        <ele>325.54000000000002</ele>
        <time>2013-08-17T11:03:53Z</time>
      </trkpt>
      <trkpt lat="54.250792041420937" lon="27.649005968123674">
        <ele>325.06</ele>
        <time>2013-08-17T11:03:56Z</time>
      </trkpt>
      <trkpt lat="54.250846020877361" lon="27.64876096509397">
        <ele>324.57999999999998</ele>
        <time>2013-08-17T11:03:59Z</time>
      </trkpt>
      <trkpt lat="54.250867981463671" lon="27.648510010913014">
        <ele>323.62</ele>
        <time>2013-08-17T11:04:02Z</time>
      </trkpt>
      <trkpt lat="54.250936964526772" lon="27.648011958226562">
        <ele>321.22000000000003</ele>
        <time>2013-08-17T11:04:08Z</time>
      </trkpt>
      <trkpt lat="54.251039978116751" lon="27.646939996629953">
        <ele>317.37</ele>
        <time>2013-08-17T11:04:19Z</time>
      </trkpt>
      <trkpt lat="54.251104015856981" lon="27.646680995821953">
        <ele>314.00999999999999</ele>
        <time>2013-08-17T11:04:22Z</time>
      </trkpt>
      <trkpt lat="54.251179033890367" lon="27.645983034744859">
        <ele>303.91000000000003</ele>
        <time>2013-08-17T11:04:29Z</time>
      </trkpt>
      <trkpt lat="54.251237958669662" lon="27.645356990396976">
        <ele>303.43000000000001</ele>
        <time>2013-08-17T11:04:37Z</time>
      </trkpt>
      <trkpt lat="54.251214992254972" lon="27.644580993801355">
        <ele>301.99000000000001</ele>
        <time>2013-08-17T11:04:48Z</time>
      </trkpt>
      <trkpt lat="54.251209041103721" lon="27.644313024356961">
        <ele>300.55000000000001</ele>
        <time>2013-08-17T11:04:52Z</time>
      </trkpt>
      <trkpt lat="54.251205017790198" lon="27.643954027444124">
        <ele>299.11000000000001</ele>
        <time>2013-08-17T11:04:57Z</time>
      </trkpt>
      <trkpt lat="54.251161012798548" lon="27.643702989444137">
        <ele>296.69999999999999</ele>
        <time>2013-08-17T11:05:01Z</time>
      </trkpt>
      <trkpt lat="54.251091023907065" lon="27.643481958657503">
        <ele>293.33999999999997</ele>
        <time>2013-08-17T11:05:05Z</time>
      </trkpt>
      <trkpt lat="54.251048024743795" lon="27.642818028107285">
        <ele>290.45999999999998</ele>
        <time>2013-08-17T11:05:15Z</time>
      </trkpt>
      <trkpt lat="54.251032015308738" lon="27.64252700842917">
        <ele>289.00999999999999</ele>
        <time>2013-08-17T11:05:19Z</time>
      </trkpt>
      <trkpt lat="54.251021035015583" lon="27.642245963215828">
        <ele>288.52999999999997</ele>
        <time>2013-08-17T11:05:22Z</time>
      </trkpt>
      <trkpt lat="54.25099203363061" lon="27.641817983239889">
        <ele>286.13</ele>
        <time>2013-08-17T11:05:27Z</time>
      </trkpt>
      <trkpt lat="54.250941993668675" lon="27.641469966620207">
        <ele>284.69</ele>
        <time>2013-08-17T11:05:31Z</time>
      </trkpt>
      <trkpt lat="54.250898994505405" lon="27.64130299910903">
        <ele>286.61000000000001</ele>
        <time>2013-08-17T11:05:33Z</time>
      </trkpt>
      <trkpt lat="54.250798998400569" lon="27.641078028827906">
        <ele>289.00999999999999</ele>
        <time>2013-08-17T11:05:36Z</time>
      </trkpt>
      <trkpt lat="54.25077703781426" lon="27.640660023316741">
        <ele>292.38</ele>
        <time>2013-08-17T11:05:41Z</time>
      </trkpt>
      <trkpt lat="54.250775026157498" lon="27.640280993655324">
        <ele>297.18000000000001</ele>
        <time>2013-08-17T11:05:46Z</time>
      </trkpt>
      <trkpt lat="54.250751975923777" lon="27.639985028654337">
        <ele>300.06999999999999</ele>
        <time>2013-08-17T11:05:50Z</time>
      </trkpt>
      <trkpt lat="54.250724986195564" lon="27.639684034511447">
        <ele>301.02999999999997</ele>
        <time>2013-08-17T11:05:54Z</time>
      </trkpt>
      <trkpt lat="54.25071400590241" lon="27.639531986787915">
        <ele>301.99000000000001</ele>
        <time>2013-08-17T11:05:56Z</time>
      </trkpt>
      <trkpt lat="54.250677963718772" lon="27.639226969331503">
        <ele>302.94999999999999</ele>
        <time>2013-08-17T11:06:00Z</time>
      </trkpt>
      <trkpt lat="54.250667989253998" lon="27.639061007648706">
        <ele>303.43000000000001</ele>
        <time>2013-08-17T11:06:02Z</time>
      </trkpt>
      <trkpt lat="54.250653991475701" lon="27.638907032087445">
        <ele>303.43000000000001</ele>
        <time>2013-08-17T11:06:04Z</time>
      </trkpt>
      <trkpt lat="54.250619038939476" lon="27.638539988547564">
        <ele>304.38999999999999</ele>
        <time>2013-08-17T11:06:09Z</time>
      </trkpt>
      <trkpt lat="54.25060504116118" lon="27.638156013563275">
        <ele>303.91000000000003</ele>
        <time>2013-08-17T11:06:14Z</time>
      </trkpt>
      <trkpt lat="54.250523988157511" lon="27.63745604082942">
        <ele>302.94999999999999</ele>
        <time>2013-08-17T11:06:22Z</time>
      </trkpt>
      <trkpt lat="54.250202961266041" lon="27.636799989268184">
        <ele>298.63</ele>
        <time>2013-08-17T11:06:30Z</time>
      </trkpt>
      <trkpt lat="54.2497250251472" lon="27.636094987392426">
        <ele>291.42000000000002</ele>
        <time>2013-08-17T11:06:38Z</time>
      </trkpt>
      <trkpt lat="54.249544981867075" lon="27.635897006839514">
        <ele>288.52999999999997</ele>
        <time>2013-08-17T11:06:41Z</time>
      </trkpt>
      <trkpt lat="54.249459989368916" lon="27.635616967454553">
        <ele>285.17000000000002</ele>
        <time>2013-08-17T11:06:45Z</time>
      </trkpt>
      <trkpt lat="54.249497037380934" lon="27.635024031624198">
        <ele>280.83999999999997</ele>
        <time>2013-08-17T11:06:52Z</time>
      </trkpt>
      <trkpt lat="54.249485973268747" lon="27.634870978072286">
        <ele>280.36000000000001</ele>
        <time>2013-08-17T11:06:54Z</time>
      </trkpt>
      <trkpt lat="54.249458983540535" lon="27.634725971147418">
        <ele>279.88</ele>
        <time>2013-08-17T11:06:56Z</time>
      </trkpt>
      <trkpt lat="54.249400980770588" lon="27.634248035028577">
        <ele>279.88</ele>
        <time>2013-08-17T11:07:02Z</time>
      </trkpt>
      <trkpt lat="54.249291010200977" lon="27.633780995383859">
        <ele>278.92000000000002</ele>
        <time>2013-08-17T11:07:07Z</time>
      </trkpt>
      <trkpt lat="54.249031003564596" lon="27.632327992469072">
        <ele>273.14999999999998</ele>
        <time>2013-08-17T11:07:17Z</time>
      </trkpt>
      <trkpt lat="54.248951962217689" lon="27.631913004443049">
        <ele>272.19</ele>
        <time>2013-08-17T11:07:20Z</time>
      </trkpt>
      <trkpt lat="54.248850960284472" lon="27.6304080337286">
        <ele>266.89999999999998</ele>
        <time>2013-08-17T11:07:30Z</time>
      </trkpt>
      <trkpt lat="54.24890804104507" lon="27.629721974954009">
        <ele>264.01999999999998</ele>
        <time>2013-08-17T11:07:38Z</time>
      </trkpt>
      <trkpt lat="54.248922960832715" lon="27.629371024668217">
        <ele>263.06</ele>
        <time>2013-08-17T11:07:43Z</time>
      </trkpt>
      <trkpt lat="54.24893201328814" lon="27.629230041056871">
        <ele>263.06</ele>
        <time>2013-08-17T11:07:45Z</time>
      </trkpt>
      <trkpt lat="54.248985992744565" lon="27.628835001960397">
        <ele>262.10000000000002</ele>
        <time>2013-08-17T11:07:50Z</time>
      </trkpt>
      <trkpt lat="54.248955985531211" lon="27.628421019762754">
        <ele>260.64999999999998</ele>
        <time>2013-08-17T11:08:00Z</time>
      </trkpt>
      <trkpt lat="54.248950034379959" lon="27.628385983407497">
        <ele>260.17000000000002</ele>
        <time>2013-08-17T11:08:02Z</time>
      </trkpt>
      <trkpt lat="54.248904017731547" lon="27.628243993967772">
        <ele>260.17000000000002</ele>
        <time>2013-08-17T11:08:08Z</time>
      </trkpt>
      <trkpt lat="54.248893959447742" lon="27.627868987619877">
        <ele>257.76999999999998</ele>
        <time>2013-08-17T11:08:23Z</time>
      </trkpt>
      <trkpt lat="54.248887002468109" lon="27.62765902094543">
        <ele>257.29000000000002</ele>
        <time>2013-08-17T11:08:31Z</time>
      </trkpt>
      <trkpt lat="54.248885996639729" lon="27.627555001527071">
        <ele>256.81</ele>
        <time>2013-08-17T11:08:35Z</time>
      </trkpt>
      <trkpt lat="54.248869987204671" lon="27.627119980752468">
        <ele>256.81</ele>
        <time>2013-08-17T11:08:47Z</time>
      </trkpt>
      <trkpt lat="54.248851966112852" lon="27.626712033525109">
        <ele>256.32999999999998</ele>
        <time>2013-08-17T11:09:00Z</time>
      </trkpt>
      <trkpt lat="54.248862024396658" lon="27.626465018838644">
        <ele>256.32999999999998</ele>
        <time>2013-08-17T11:09:13Z</time>
      </trkpt>
      <trkpt lat="54.24886797554791" lon="27.626253040507436">
        <ele>256.81</ele>
        <time>2013-08-17T11:09:24Z</time>
      </trkpt>
      <trkpt lat="54.248881973326206" lon="27.626149021089077">
        <ele>256.81</ele>
        <time>2013-08-17T11:09:30Z</time>
      </trkpt>
      <trkpt lat="54.248869987204671" lon="27.626112978905439">
        <ele>256.81</ele>
        <time>2013-08-17T11:09:50Z</time>
      </trkpt>
      <trkpt lat="54.248860012739897" lon="27.626092024147511">
        <ele>257.29000000000002</ele>
        <time>2013-08-17T11:10:46Z</time>
      </trkpt>
      <trkpt lat="54.24886797554791" lon="27.625949028879404">
        <ele>257.76999999999998</ele>
        <time>2013-08-17T11:10:51Z</time>
      </trkpt>
      <trkpt lat="54.248901000246406" lon="27.624944960698485">
        <ele>255.37</ele>
        <time>2013-08-17T11:11:05Z</time>
      </trkpt>
      <trkpt lat="54.248904017731547" lon="27.624852005392313">
        <ele>254.88999999999999</ele>
        <time>2013-08-17T11:11:06Z</time>
      </trkpt>
      <trkpt lat="54.248722968623042" lon="27.623621039092541">
        <ele>251.03999999999999</ele>
        <time>2013-08-17T11:11:18Z</time>
      </trkpt>
      <trkpt lat="54.248603023588657" lon="27.623088033869863">
        <ele>248.16</ele>
        <time>2013-08-17T11:11:23Z</time>
      </trkpt>
      <trkpt lat="54.248396996408701" lon="27.622358975932002">
        <ele>245.27000000000001</ele>
        <time>2013-08-17T11:11:29Z</time>
      </trkpt>
      <trkpt lat="54.248361960053444" lon="27.622243976220489">
        <ele>244.78999999999999</ele>
        <time>2013-08-17T11:11:30Z</time>
      </trkpt>
      <trkpt lat="54.24833295866847" lon="27.622132999822497">
        <ele>244.31</ele>
        <time>2013-08-17T11:11:31Z</time>
      </trkpt>
      <trkpt lat="54.248204967007041" lon="27.621593959629536">
        <ele>242.87</ele>
        <time>2013-08-17T11:11:39Z</time>
      </trkpt>
      <trkpt lat="54.248106982558966" lon="27.621281985193491">
        <ele>242.87</ele>
        <time>2013-08-17T11:11:45Z</time>
      </trkpt>
      <trkpt lat="54.248085021972656" lon="27.621218031272292">
        <ele>242.38999999999999</ele>
        <time>2013-08-17T11:11:46Z</time>
      </trkpt>
      <trkpt lat="54.248060965910554" lon="27.6211519818753">
        <ele>242.38999999999999</ele>
        <time>2013-08-17T11:11:47Z</time>
      </trkpt>
      <trkpt lat="54.2480309586972" lon="27.621084004640579">
        <ele>241.91</ele>
        <time>2013-08-17T11:11:48Z</time>
      </trkpt>
      <trkpt lat="54.248001035302877" lon="27.621013009920716">
        <ele>241.91</ele>
        <time>2013-08-17T11:11:49Z</time>
      </trkpt>
      <trkpt lat="54.247972033917904" lon="27.620933968573809">
        <ele>241.43000000000001</ele>
        <time>2013-08-17T11:11:50Z</time>
      </trkpt>
      <trkpt lat="54.247915958985686" lon="27.620745962485671">
        <ele>240.94999999999999</ele>
        <time>2013-08-17T11:11:52Z</time>
      </trkpt>
      <trkpt lat="54.247893998399377" lon="27.620638003572822">
        <ele>240.47</ele>
        <time>2013-08-17T11:11:53Z</time>
      </trkpt>
      <trkpt lat="54.2478789947927" lon="27.620528033003211">
        <ele>239.99000000000001</ele>
        <time>2013-08-17T11:11:54Z</time>
      </trkpt>
      <trkpt lat="54.247861979529262" lon="27.620424013584852">
        <ele>239.99000000000001</ele>
        <time>2013-08-17T11:11:55Z</time>
      </trkpt>
      <trkpt lat="54.247849993407726" lon="27.620325023308396">
        <ele>239.50999999999999</ele>
        <time>2013-08-17T11:11:56Z</time>
      </trkpt>
      <trkpt lat="54.24783700145781" lon="27.62022502720356">
        <ele>239.50999999999999</ele>
        <time>2013-08-17T11:11:57Z</time>
      </trkpt>
      <trkpt lat="54.247818980365992" lon="27.620129976421595">
        <ele>239.02000000000001</ele>
        <time>2013-08-17T11:11:58Z</time>
      </trkpt>
      <trkpt lat="54.247799031436443" lon="27.620043978095055">
        <ele>239.02000000000001</ele>
        <time>2013-08-17T11:11:59Z</time>
      </trkpt>
      <trkpt lat="54.247712027281523" lon="27.619750024750829">
        <ele>238.06</ele>
        <time>2013-08-17T11:12:03Z</time>
      </trkpt>
      <trkpt lat="54.24768403172493" lon="27.619693027809262">
        <ele>238.06</ele>
        <time>2013-08-17T11:12:04Z</time>
      </trkpt>
      <trkpt lat="54.247653018683195" lon="27.619651034474373">
        <ele>237.58000000000001</ele>
        <time>2013-08-17T11:12:05Z</time>
      </trkpt>
      <trkpt lat="54.247618988156319" lon="27.619619015604258">
        <ele>237.58000000000001</ele>
        <time>2013-08-17T11:12:06Z</time>
      </trkpt>
      <trkpt lat="54.24757900647819" lon="27.619593031704426">
        <ele>237.09999999999999</ele>
        <time>2013-08-17T11:12:07Z</time>
      </trkpt>
      <trkpt lat="54.247540030628443" lon="27.619569981470704">
        <ele>237.09999999999999</ele>
        <time>2013-08-17T11:12:08Z</time>
      </trkpt>
      <trkpt lat="54.247373985126615" lon="27.619385998696089">
        <ele>237.09999999999999</ele>
        <time>2013-08-17T11:12:13Z</time>
      </trkpt>
      <trkpt lat="54.24734297208488" lon="27.619335036724806">
        <ele>237.09999999999999</ele>
        <time>2013-08-17T11:12:14Z</time>
      </trkpt>
      <trkpt lat="54.247312964871526" lon="27.61928197927773">
        <ele>237.09999999999999</ele>
        <time>2013-08-17T11:12:15Z</time>
      </trkpt>
      <trkpt lat="54.247220009565353" lon="27.619111994281411">
        <ele>236.62</ele>
        <time>2013-08-17T11:12:18Z</time>
      </trkpt>
      <trkpt lat="54.247158989310265" lon="27.618931028991938">
        <ele>236.62</ele>
        <time>2013-08-17T11:12:21Z</time>
      </trkpt>
      <trkpt lat="54.247150020673871" lon="27.618863973766565">
        <ele>237.09999999999999</ele>
        <time>2013-08-17T11:12:22Z</time>
      </trkpt>
      <trkpt lat="54.247000990435481" lon="27.617998039349914">
        <ele>236.62</ele>
        <time>2013-08-17T11:12:35Z</time>
      </trkpt>
      <trkpt lat="54.246975006535649" lon="27.617428991943598">
        <ele>238.06</ele>
        <time>2013-08-17T11:12:45Z</time>
      </trkpt>
      <trkpt lat="54.246881967410445" lon="27.616832032799721">
        <ele>239.50999999999999</ele>
        <time>2013-08-17T11:12:56Z</time>
      </trkpt>
      <trkpt lat="54.246938964352012" lon="27.616373961791396">
        <ele>240.94999999999999</ele>
        <time>2013-08-17T11:13:07Z</time>
      </trkpt>
      <trkpt lat="54.247109033167362" lon="27.616543024778366">
        <ele>242.87</ele>
        <time>2013-08-17T11:13:17Z</time>
      </trkpt>
      <trkpt lat="54.24710601568222" lon="27.616543024778366">
        <ele>243.34999999999999</ele>
        <time>2013-08-17T11:14:13Z</time>
      </trkpt>
      <trkpt lat="54.247107021510601" lon="27.616545036435127">
        <ele>243.34999999999999</ele>
        <time>2013-08-17T11:14:51Z</time>
      </trkpt>
      <trkpt lat="54.247352024540305" lon="27.616720972582698">
        <ele>244.78999999999999</ele>
        <time>2013-08-17T11:15:03Z</time>
      </trkpt>
      <trkpt lat="54.247112972661853" lon="27.617328995838761">
        <ele>246.22999999999999</ele>
        <time>2013-08-17T11:15:14Z</time>
      </trkpt>
      <trkpt lat="54.247115990146995" lon="27.617316003888845">
        <ele>247.68000000000001</ele>
        <time>2013-08-17T11:15:26Z</time>
      </trkpt>
      <trkpt lat="54.247096041217446" lon="27.617317009717226">
        <ele>247.19999999999999</ele>
        <time>2013-08-17T11:16:06Z</time>
      </trkpt>
      <trkpt lat="54.247096041217446" lon="27.617320027202368">
        <ele>247.19999999999999</ele>
        <time>2013-08-17T11:17:01Z</time>
      </trkpt>
      <trkpt lat="54.247099980711937" lon="27.617322038859129">
        <ele>246.22999999999999</ele>
        <time>2013-08-17T11:18:32Z</time>
      </trkpt>
      <trkpt lat="54.247098974883556" lon="27.617349028587341">
        <ele>245.27000000000001</ele>
        <time>2013-08-17T11:18:35Z</time>
      </trkpt>
      <trkpt lat="54.247188996523619" lon="27.616989025846124">
        <ele>244.31</ele>
        <time>2013-08-17T11:18:47Z</time>
      </trkpt>
      <trkpt lat="54.247337020933628" lon="27.61668199673295">
        <ele>244.31</ele>
        <time>2013-08-17T11:18:59Z</time>
      </trkpt>
      <trkpt lat="54.247182961553335" lon="27.616542018949986">
        <ele>245.27000000000001</ele>
        <time>2013-08-17T11:19:05Z</time>
      </trkpt>
      <trkpt lat="54.247130993753672" lon="27.616506982594728">
        <ele>245.27000000000001</ele>
        <time>2013-08-17T11:19:06Z</time>
      </trkpt>
      <trkpt lat="54.24699897877872" lon="27.616365998983383">
        <ele>244.78999999999999</ele>
        <time>2013-08-17T11:19:09Z</time>
      </trkpt>
      <trkpt lat="54.246960002928972" lon="27.616304978728294">
        <ele>244.78999999999999</ele>
        <time>2013-08-17T11:19:10Z</time>
      </trkpt>
      <trkpt lat="54.246923960745335" lon="27.616242030635476">
        <ele>244.78999999999999</ele>
        <time>2013-08-17T11:19:11Z</time>
      </trkpt>
      <trkpt lat="54.246896971017122" lon="27.616172041743994">
        <ele>244.78999999999999</ele>
        <time>2013-08-17T11:19:12Z</time>
      </trkpt>
      <trkpt lat="54.246875010430813" lon="27.616095012053847">
        <ele>244.78999999999999</ele>
        <time>2013-08-17T11:19:13Z</time>
      </trkpt>
      <trkpt lat="54.246851038187742" lon="27.616024017333984">
        <ele>244.78999999999999</ele>
        <time>2013-08-17T11:19:14Z</time>
      </trkpt>
      <trkpt lat="54.24678398296237" lon="27.615667032077909">
        <ele>244.31</ele>
        <time>2013-08-17T11:19:19Z</time>
      </trkpt>
      <trkpt lat="54.246748024597764" lon="27.615309963002801">
        <ele>244.31</ele>
        <time>2013-08-17T11:19:24Z</time>
      </trkpt>
      <trkpt lat="54.246668983250856" lon="27.61448903940618">
        <ele>244.78999999999999</ele>
        <time>2013-08-17T11:19:37Z</time>
      </trkpt>
      <trkpt lat="54.246637970209122" lon="27.614364987239242">
        <ele>245.27000000000001</ele>
        <time>2013-08-17T11:19:39Z</time>
      </trkpt>
      <trkpt lat="54.246335970237851" lon="27.614010013639927">
        <ele>244.78999999999999</ele>
        <time>2013-08-17T11:19:47Z</time>
      </trkpt>
      <trkpt lat="54.245395017787814" lon="27.614015964791179">
        <ele>244.31</ele>
        <time>2013-08-17T11:20:06Z</time>
      </trkpt>
      <trkpt lat="54.244965026155114" lon="27.61401898227632">
        <ele>244.78999999999999</ele>
        <time>2013-08-17T11:20:15Z</time>
      </trkpt>
      <trkpt lat="54.2447429895401" lon="27.614008001983166">
        <ele>244.78999999999999</ele>
        <time>2013-08-17T11:20:20Z</time>
      </trkpt>
      <trkpt lat="54.243986019864678" lon="27.614086037501693">
        <ele>245.75</ele>
        <time>2013-08-17T11:20:38Z</time>
      </trkpt>
      <trkpt lat="54.243887029588223" lon="27.614184021949768">
        <ele>246.22999999999999</ele>
        <time>2013-08-17T11:20:42Z</time>
      </trkpt>
      <trkpt lat="54.24386196769774" lon="27.614191984757781">
        <ele>246.22999999999999</ele>
        <time>2013-08-17T11:20:43Z</time>
      </trkpt>
      <trkpt lat="54.243833972141147" lon="27.614207994192839">
        <ele>246.22999999999999</ele>
        <time>2013-08-17T11:20:44Z</time>
      </trkpt>
      <trkpt lat="54.243803964927793" lon="27.61423297226429">
        <ele>246.22999999999999</ele>
        <time>2013-08-17T11:20:45Z</time>
      </trkpt>
      <trkpt lat="54.243774963542819" lon="27.614264991134405">
        <ele>246.72</ele>
        <time>2013-08-17T11:20:46Z</time>
      </trkpt>
      <trkpt lat="54.243746967986226" lon="27.61429701000452">
        <ele>246.72</ele>
        <time>2013-08-17T11:20:47Z</time>
      </trkpt>
      <trkpt lat="54.243393000215292" lon="27.61457696557045">
        <ele>246.72</ele>
        <time>2013-08-17T11:20:58Z</time>
      </trkpt>
      <trkpt lat="54.242976000532508" lon="27.614909978583455">
        <ele>249.12</ele>
        <time>2013-08-17T11:21:11Z</time>
      </trkpt>
      <trkpt lat="54.242600994184613" lon="27.615234022960067">
        <ele>252</ele>
        <time>2013-08-17T11:21:24Z</time>
      </trkpt>
      <trkpt lat="54.242282984778285" lon="27.615496963262558">
        <ele>255.37</ele>
        <time>2013-08-17T11:21:35Z</time>
      </trkpt>
      <trkpt lat="54.241898003965616" lon="27.615702990442514">
        <ele>258.25</ele>
        <time>2013-08-17T11:21:49Z</time>
      </trkpt>
      <trkpt lat="54.241621987894177" lon="27.615882027894258">
        <ele>260.64999999999998</ele>
        <time>2013-08-17T11:22:01Z</time>
      </trkpt>
      <trkpt lat="54.241575971245766" lon="27.616214035078883">
        <ele>263.54000000000002</ele>
        <time>2013-08-17T11:22:10Z</time>
      </trkpt>
      <trkpt lat="54.241313030943274" lon="27.616676967591047">
        <ele>264.5</ele>
        <time>2013-08-17T11:22:21Z</time>
      </trkpt>
      <trkpt lat="54.240856971591711" lon="27.617297982797027">
        <ele>263.06</ele>
        <time>2013-08-17T11:22:34Z</time>
      </trkpt>
      <trkpt lat="54.240475008264184" lon="27.617752030491829">
        <ele>264.01999999999998</ele>
        <time>2013-08-17T11:22:46Z</time>
      </trkpt>
      <trkpt lat="54.240014003589749" lon="27.618242958560586">
        <ele>263.54000000000002</ele>
        <time>2013-08-17T11:23:00Z</time>
      </trkpt>
      <trkpt lat="54.239547969773412" lon="27.618620982393622">
        <ele>263.54000000000002</ele>
        <time>2013-08-17T11:23:15Z</time>
      </trkpt>
      <trkpt lat="54.239187967032194" lon="27.619079975411296">
        <ele>266.42000000000002</ele>
        <time>2013-08-17T11:23:29Z</time>
      </trkpt>
      <trkpt lat="54.238860988989472" lon="27.619610968977213">
        <ele>264.98000000000002</ele>
        <time>2013-08-17T11:23:42Z</time>
      </trkpt>
      <trkpt lat="54.238569969311357" lon="27.619921015575528">
        <ele>267.38</ele>
        <time>2013-08-17T11:23:55Z</time>
      </trkpt>
      <trkpt lat="54.238227987661958" lon="27.620381014421582">
        <ele>272.67000000000002</ele>
        <time>2013-08-17T11:24:12Z</time>
      </trkpt>
      <trkpt lat="54.237858010455966" lon="27.620839001610875">
        <ele>274.11000000000001</ele>
        <time>2013-08-17T11:24:27Z</time>
      </trkpt>
      <trkpt lat="54.237557016313076" lon="27.621159022673965">
        <ele>275.06999999999999</ele>
        <time>2013-08-17T11:24:39Z</time>
      </trkpt>
      <trkpt lat="54.23715703189373" lon="27.621522964909673">
        <ele>278.44</ele>
        <time>2013-08-17T11:24:56Z</time>
      </trkpt>
      <trkpt lat="54.23679300583899" lon="27.621878022328019">
        <ele>280.83999999999997</ele>
        <time>2013-08-17T11:25:11Z</time>
      </trkpt>
      <trkpt lat="54.236371982842684" lon="27.622249005362391">
        <ele>283.25</ele>
        <time>2013-08-17T11:25:27Z</time>
      </trkpt>
      <trkpt lat="54.235864039510489" lon="27.622600961476564">
        <ele>285.64999999999998</ele>
        <time>2013-08-17T11:25:47Z</time>
      </trkpt>
      <trkpt lat="54.23554603010416" lon="27.622668016701937">
        <ele>287.56999999999999</ele>
        <time>2013-08-17T11:26:01Z</time>
      </trkpt>
      <trkpt lat="54.235278982669115" lon="27.622640021145344">
        <ele>289.49000000000001</ele>
        <time>2013-08-17T11:26:14Z</time>
      </trkpt>
      <trkpt lat="54.234974971041083" lon="27.622906984761357">
        <ele>289.49000000000001</ele>
        <time>2013-08-17T11:26:27Z</time>
      </trkpt>
      <trkpt lat="54.234517989680171" lon="27.622993988916278">
        <ele>289.97000000000003</ele>
        <time>2013-08-17T11:26:39Z</time>
      </trkpt>
      <trkpt lat="54.234053967520595" lon="27.623119968920946">
        <ele>291.89999999999998</ele>
        <time>2013-08-17T11:26:52Z</time>
      </trkpt>
      <trkpt lat="54.233688013628125" lon="27.623190963640809">
        <ele>289.97000000000003</ele>
        <time>2013-08-17T11:27:04Z</time>
      </trkpt>
      <trkpt lat="54.233171017840505" lon="27.623132038861513">
        <ele>289.00999999999999</ele>
        <time>2013-08-17T11:27:17Z</time>
      </trkpt>
      <trkpt lat="54.232976976782084" lon="27.623153999447823">
        <ele>289.49000000000001</ele>
        <time>2013-08-17T11:27:23Z</time>
      </trkpt>
      <trkpt lat="54.232677994295955" lon="27.623445019125938">
        <ele>289.97000000000003</ele>
        <time>2013-08-17T11:27:37Z</time>
      </trkpt>
      <trkpt lat="54.232398038730025" lon="27.623573010787368">
        <ele>293.81999999999999</ele>
        <time>2013-08-17T11:27:51Z</time>
      </trkpt>
      <trkpt lat="54.232384040951729" lon="27.623573010787368">
        <ele>294.30000000000001</ele>
        <time>2013-08-17T11:27:52Z</time>
      </trkpt>
      <trkpt lat="54.232361996546388" lon="27.623582985252142">
        <ele>294.77999999999997</ele>
        <time>2013-08-17T11:27:54Z</time>
      </trkpt>
      <trkpt lat="54.232248002663255" lon="27.623616009950638">
        <ele>295.25999999999999</ele>
        <time>2013-08-17T11:28:09Z</time>
      </trkpt>
      <trkpt lat="54.231935022398829" lon="27.623636964708567">
        <ele>293.33999999999997</ele>
        <time>2013-08-17T11:28:58Z</time>
      </trkpt>
      <trkpt lat="54.231885988265276" lon="27.623649034649134">
        <ele>292.86000000000001</ele>
        <time>2013-08-17T11:28:59Z</time>
      </trkpt>
      <trkpt lat="54.231199007481337" lon="27.623549038544297">
        <ele>292.38</ele>
        <time>2013-08-17T11:29:13Z</time>
      </trkpt>
      <trkpt lat="54.230682011693716" lon="27.623405959457159">
        <ele>292.38</ele>
        <time>2013-08-17T11:29:24Z</time>
      </trkpt>
      <trkpt lat="54.230005005374551" lon="27.623058026656508">
        <ele>292.38</ele>
        <time>2013-08-17T11:29:40Z</time>
      </trkpt>
      <trkpt lat="54.229519022628665" lon="27.622755020856857">
        <ele>292.38</ele>
        <time>2013-08-17T11:29:54Z</time>
      </trkpt>
      <trkpt lat="54.229293968528509" lon="27.622103998437524">
        <ele>294.30000000000001</ele>
        <time>2013-08-17T11:30:08Z</time>
      </trkpt>
      <trkpt lat="54.229191960766912" lon="27.621478037908673">
        <ele>291.89999999999998</ele>
        <time>2013-08-17T11:30:18Z</time>
      </trkpt>
      <trkpt lat="54.229045026004314" lon="27.620814023539424">
        <ele>288.52999999999997</ele>
        <time>2013-08-17T11:30:27Z</time>
      </trkpt>
      <trkpt lat="54.228861965239048" lon="27.620705980807543">
        <ele>285.17000000000002</ele>
        <time>2013-08-17T11:30:33Z</time>
      </trkpt>
      <trkpt lat="54.228739002719522" lon="27.620772030204535">
        <ele>284.69</ele>
        <time>2013-08-17T11:30:37Z</time>
      </trkpt>
      <trkpt lat="54.228260982781649" lon="27.620617970824242">
        <ele>287.56999999999999</ele>
        <time>2013-08-17T11:30:52Z</time>
      </trkpt>
      <trkpt lat="54.227713979780674" lon="27.620560973882675">
        <ele>287.56999999999999</ele>
        <time>2013-08-17T11:31:09Z</time>
      </trkpt>
      <trkpt lat="54.227254986763" lon="27.620644038543105">
        <ele>290.45999999999998</ele>
        <time>2013-08-17T11:31:24Z</time>
      </trkpt>
      <trkpt lat="54.226830024272203" lon="27.620562985539436">
        <ele>294.77999999999997</ele>
        <time>2013-08-17T11:31:38Z</time>
      </trkpt>
      <trkpt lat="54.226383017376065" lon="27.620359975844622">
        <ele>296.22000000000003</ele>
        <time>2013-08-17T11:31:52Z</time>
      </trkpt>
      <trkpt lat="54.225973980501294" lon="27.620198959484696">
        <ele>299.58999999999997</ele>
        <time>2013-08-17T11:32:06Z</time>
      </trkpt>
      <trkpt lat="54.225549018010497" lon="27.620013970881701">
        <ele>301.02999999999997</ele>
        <time>2013-08-17T11:32:20Z</time>
      </trkpt>
      <trkpt lat="54.225251041352749" lon="27.619604011997581">
        <ele>302.47000000000003</ele>
        <time>2013-08-17T11:32:33Z</time>
      </trkpt>
      <trkpt lat="54.224944012239575" lon="27.619844991713762">
        <ele>303.91000000000003</ele>
        <time>2013-08-17T11:32:45Z</time>
      </trkpt>
      <trkpt lat="54.224573029205203" lon="27.620207006111741">
        <ele>306.31999999999999</ele>
        <time>2013-08-17T11:32:58Z</time>
      </trkpt>
      <trkpt lat="54.224258959293365" lon="27.620697012171149">
        <ele>306.80000000000001</ele>
        <time>2013-08-17T11:33:11Z</time>
      </trkpt>
      <trkpt lat="54.223785968497396" lon="27.620863979682326">
        <ele>304.88</ele>
        <time>2013-08-17T11:33:24Z</time>
      </trkpt>
      <trkpt lat="54.223206024616957" lon="27.621039999648929">
        <ele>303.91000000000003</ele>
        <time>2013-08-17T11:33:40Z</time>
      </trkpt>
      <trkpt lat="54.222707971930504" lon="27.621197998523712">
        <ele>304.88</ele>
        <time>2013-08-17T11:33:55Z</time>
      </trkpt>
      <trkpt lat="54.222385017201304" lon="27.621302017942071">
        <ele>305.83999999999997</ele>
        <time>2013-08-17T11:34:08Z</time>
      </trkpt>
      <trkpt lat="54.222014034166932" lon="27.621433027088642">
        <ele>306.80000000000001</ele>
        <time>2013-08-17T11:34:21Z</time>
      </trkpt>
      <trkpt lat="54.221633998677135" lon="27.62155800126493">
        <ele>307.27999999999997</ele>
        <time>2013-08-17T11:34:34Z</time>
      </trkpt>
      <trkpt lat="54.221222028136253" lon="27.621680963784456">
        <ele>306.31999999999999</ele>
        <time>2013-08-17T11:34:49Z</time>
      </trkpt>
      <trkpt lat="54.221137035638094" lon="27.621770985424519">
        <ele>305.83999999999997</ele>
        <time>2013-08-17T11:34:56Z</time>
      </trkpt>
      <trkpt lat="54.221142986789346" lon="27.621866036206484">
        <ele>306.31999999999999</ele>
        <time>2013-08-17T11:35:17Z</time>
      </trkpt>
      <trkpt lat="54.221141980960965" lon="27.621867964044213">
        <ele>306.31999999999999</ele>
        <time>2013-08-17T11:35:48Z</time>
      </trkpt>
      <trkpt lat="54.221205012872815" lon="27.621914986521006">
        <ele>306.31999999999999</ele>
        <time>2013-08-17T11:35:56Z</time>
      </trkpt>
      <trkpt lat="54.221232002601027" lon="27.621952034533024">
        <ele>306.80000000000001</ele>
        <time>2013-08-17T11:36:00Z</time>
      </trkpt>
      <trkpt lat="54.221233008429408" lon="27.622014982625842">
        <ele>306.31999999999999</ele>
        <time>2013-08-17T11:36:07Z</time>
      </trkpt>
      <trkpt lat="54.221233008429408" lon="27.621914986521006">
        <ele>306.31999999999999</ele>
        <time>2013-08-17T11:36:11Z</time>
      </trkpt>
      <trkpt lat="54.221218004822731" lon="27.621910963207483">
        <ele>306.80000000000001</ele>
        <time>2013-08-17T11:36:14Z</time>
      </trkpt>
      <trkpt lat="54.221281036734581" lon="27.622108021751046">
        <ele>307.27999999999997</ele>
        <time>2013-08-17T11:36:18Z</time>
      </trkpt>
      <trkpt lat="54.221369968727231" lon="27.622327040880919">
        <ele>307.75999999999999</ele>
        <time>2013-08-17T11:36:22Z</time>
      </trkpt>
      <trkpt lat="54.221425037831068" lon="27.622528960928321">
        <ele>307.27999999999997</ele>
        <time>2013-08-17T11:36:25Z</time>
      </trkpt>
      <trkpt lat="54.221866009756923" lon="27.623632019385695">
        <ele>305.36000000000001</ele>
        <time>2013-08-17T11:36:41Z</time>
      </trkpt>
      <trkpt lat="54.222490964457393" lon="27.625347962602973">
        <ele>300.06999999999999</ele>
        <time>2013-08-17T11:37:01Z</time>
      </trkpt>
      <trkpt lat="54.222691040486097" lon="27.626945972442627">
        <ele>294.30000000000001</ele>
        <time>2013-08-17T11:37:14Z</time>
      </trkpt>
      <trkpt lat="54.222819032147527" lon="27.628603996708989">
        <ele>294.30000000000001</ele>
        <time>2013-08-17T11:37:31Z</time>
      </trkpt>
      <trkpt lat="54.222946017980576" lon="27.630078038200736">
        <ele>297.18000000000001</ele>
        <time>2013-08-17T11:37:48Z</time>
      </trkpt>
      <trkpt lat="54.223076021298766" lon="27.631665989756584">
        <ele>299.11000000000001</ele>
        <time>2013-08-17T11:38:07Z</time>
      </trkpt>
      <trkpt lat="54.223119020462036" lon="27.632110984995961">
        <ele>299.58999999999997</ele>
        <time>2013-08-17T11:38:12Z</time>
      </trkpt>
      <trkpt lat="54.223252963274717" lon="27.633541021496058">
        <ele>297.67000000000002</ele>
        <time>2013-08-17T11:38:28Z</time>
      </trkpt>
      <trkpt lat="54.223275007680058" lon="27.633799016475677">
        <ele>297.67000000000002</ele>
        <time>2013-08-17T11:38:31Z</time>
      </trkpt>
      <trkpt lat="54.223360000178218" lon="27.635143976658583">
        <ele>296.69999999999999</ele>
        <time>2013-08-17T11:38:47Z</time>
      </trkpt>
      <trkpt lat="54.223405010998249" lon="27.635604981333017">
        <ele>296.69999999999999</ele>
        <time>2013-08-17T11:38:53Z</time>
      </trkpt>
      <trkpt lat="54.223501989617944" lon="27.636706028133631">
        <ele>298.63</ele>
        <time>2013-08-17T11:39:10Z</time>
      </trkpt>
      <trkpt lat="54.223544988781214" lon="27.637309022247791">
        <ele>300.06999999999999</ele>
        <time>2013-08-17T11:39:22Z</time>
      </trkpt>
      <trkpt lat="54.223798038437963" lon="27.63833899050951">
        <ele>303.43000000000001</ele>
        <time>2013-08-17T11:39:42Z</time>
      </trkpt>
      <trkpt lat="54.224001970142126" lon="27.639036029577255">
        <ele>305.83999999999997</ele>
        <time>2013-08-17T11:39:56Z</time>
      </trkpt>
      <trkpt lat="54.224167009815574" lon="27.639675987884402">
        <ele>308.24000000000001</ele>
        <time>2013-08-17T11:40:12Z</time>
      </trkpt>
      <trkpt lat="54.224168015643954" lon="27.639737008139491">
        <ele>308.72000000000003</ele>
        <time>2013-08-17T11:40:16Z</time>
      </trkpt>
      <trkpt lat="54.224173966795206" lon="27.639750000089407">
        <ele>308.72000000000003</ele>
        <time>2013-08-17T11:40:17Z</time>
      </trkpt>
      <trkpt lat="54.224184025079012" lon="27.639762992039323">
        <ele>308.72000000000003</ele>
        <time>2013-08-17T11:40:18Z</time>
      </trkpt>
      <trkpt lat="54.224190982058644" lon="27.639784030616283">
        <ele>308.72000000000003</ele>
        <time>2013-08-17T11:40:19Z</time>
      </trkpt>
      <trkpt lat="54.224195005372167" lon="27.639804985374212">
        <ele>308.72000000000003</ele>
        <time>2013-08-17T11:40:20Z</time>
      </trkpt>
      <trkpt lat="54.224315034225583" lon="27.64016599394381">
        <ele>308.72000000000003</ele>
        <time>2013-08-17T11:40:32Z</time>
      </trkpt>
      <trkpt lat="54.224561965093017" lon="27.641049027442932">
        <ele>310.16000000000003</ele>
        <time>2013-08-17T11:40:46Z</time>
      </trkpt>
      <trkpt lat="54.224883997812867" lon="27.642308995127678">
        <ele>309.19999999999999</ele>
        <time>2013-08-17T11:41:03Z</time>
      </trkpt>
      <trkpt lat="54.225218016654253" lon="27.643333012238145">
        <ele>309.68000000000001</ele>
        <time>2013-08-17T11:41:18Z</time>
      </trkpt>
      <trkpt lat="54.225783962756395" lon="27.644241023808718">
        <ele>310.63999999999999</ele>
        <time>2013-08-17T11:41:35Z</time>
      </trkpt>
      <trkpt lat="54.226172966882586" lon="27.644833959639072">
        <ele>312.08999999999997</ele>
        <time>2013-08-17T11:41:47Z</time>
      </trkpt>
      <trkpt lat="54.226295007392764" lon="27.645059013739228">
        <ele>312.56999999999999</ele>
        <time>2013-08-17T11:41:52Z</time>
      </trkpt>
      <trkpt lat="54.226298024877906" lon="27.645108969882131">
        <ele>312.56999999999999</ele>
        <time>2013-08-17T11:41:53Z</time>
      </trkpt>
      <trkpt lat="54.226290984079242" lon="27.645155992358923">
        <ele>312.56999999999999</ele>
        <time>2013-08-17T11:41:54Z</time>
      </trkpt>
      <trkpt lat="54.226283021271229" lon="27.645197985693812">
        <ele>312.56999999999999</ele>
        <time>2013-08-17T11:41:55Z</time>
      </trkpt>
      <trkpt lat="54.225913966074586" lon="27.64577298425138">
        <ele>314.97000000000003</ele>
        <time>2013-08-17T11:42:08Z</time>
      </trkpt>
      <trkpt lat="54.225793015211821" lon="27.645967025309801">
        <ele>316.41000000000003</ele>
        <time>2013-08-17T11:42:12Z</time>
      </trkpt>
      <trkpt lat="54.225281970575452" lon="27.64669599942863">
        <ele>320.74000000000001</ele>
        <time>2013-08-17T11:42:29Z</time>
      </trkpt>
      <trkpt lat="54.224788025021553" lon="27.647436959668994">
        <ele>321.22000000000003</ele>
        <time>2013-08-17T11:42:47Z</time>
      </trkpt>
      <trkpt lat="54.22454402782023" lon="27.647864017635584">
        <ele>320.74000000000001</ele>
        <time>2013-08-17T11:42:57Z</time>
      </trkpt>
      <trkpt lat="54.224450988695025" lon="27.648022016510367">
        <ele>319.77999999999997</ele>
        <time>2013-08-17T11:43:00Z</time>
      </trkpt>
      <trkpt lat="54.223936004564166" lon="27.648734981194139">
        <ele>316.41000000000003</ele>
        <time>2013-08-17T11:43:12Z</time>
      </trkpt>
      <trkpt lat="54.223412973806262" lon="27.649478958919644">
        <ele>311.60000000000002</ele>
        <time>2013-08-17T11:43:23Z</time>
      </trkpt>
      <trkpt lat="54.222446959465742" lon="27.650654017925262">
        <ele>301.99000000000001</ele>
        <time>2013-08-17T11:43:37Z</time>
      </trkpt>
      <trkpt lat="54.221652019768953" lon="27.651731008663774">
        <ele>298.14999999999998</ele>
        <time>2013-08-17T11:43:51Z</time>
      </trkpt>
      <trkpt lat="54.221543977037072" lon="27.651935024186969">
        <ele>297.18000000000001</ele>
        <time>2013-08-17T11:43:58Z</time>
      </trkpt>
      <trkpt lat="54.221543977037072" lon="27.651941981166601">
        <ele>297.18000000000001</ele>
        <time>2013-08-17T11:44:21Z</time>
      </trkpt>
      <trkpt lat="54.22154095955193" lon="27.651974000036716">
        <ele>296.69999999999999</ele>
        <time>2013-08-17T11:44:23Z</time>
      </trkpt>
      <trkpt lat="54.221510030329227" lon="27.652049018070102">
        <ele>297.18000000000001</ele>
        <time>2013-08-17T11:44:27Z</time>
      </trkpt>
      <trkpt lat="54.221462002024055" lon="27.652210034430027">
        <ele>297.18000000000001</ele>
        <time>2013-08-17T11:44:32Z</time>
      </trkpt>
      <trkpt lat="54.22134599648416" lon="27.652630973607302">
        <ele>296.69999999999999</ele>
        <time>2013-08-17T11:44:44Z</time>
      </trkpt>
      <trkpt lat="54.22123602591455" lon="27.65296901576221">
        <ele>295.25999999999999</ele>
        <time>2013-08-17T11:44:55Z</time>
      </trkpt>
      <trkpt lat="54.221055982634425" lon="27.65337998047471">
        <ele>293.33999999999997</ele>
        <time>2013-08-17T11:45:09Z</time>
      </trkpt>
      <trkpt lat="54.220868982374668" lon="27.653740989044309">
        <ele>293.81999999999999</ele>
        <time>2013-08-17T11:45:22Z</time>
      </trkpt>
      <trkpt lat="54.220665972679853" lon="27.653985992074013">
        <ele>292.86000000000001</ele>
        <time>2013-08-17T11:45:35Z</time>
      </trkpt>
      <trkpt lat="54.22050797380507" lon="27.6544080208987">
        <ele>296.69999999999999</ele>
        <time>2013-08-17T11:45:48Z</time>
      </trkpt>
      <trkpt lat="54.220306975767016" lon="27.654829965904355">
        <ele>300.55000000000001</ele>
        <time>2013-08-17T11:46:01Z</time>
      </trkpt>
      <trkpt lat="54.220267999917269" lon="27.654867013916373">
        <ele>301.50999999999999</ele>
        <time>2013-08-17T11:46:04Z</time>
      </trkpt>
      <trkpt lat="54.220082005485892" lon="27.655235985293984">
        <ele>305.36000000000001</ele>
        <time>2013-08-17T11:46:17Z</time>
      </trkpt>
      <trkpt lat="54.21994898468256" lon="27.655356014147401">
        <ele>303.91000000000003</ele>
        <time>2013-08-17T11:46:28Z</time>
      </trkpt>
      <trkpt lat="54.219769025221467" lon="27.655577966943383">
        <ele>303.43000000000001</ele>
        <time>2013-08-17T11:46:42Z</time>
      </trkpt>
      <trkpt lat="54.219756033271551" lon="27.655596993863583">
        <ele>303.43000000000001</ele>
        <time>2013-08-17T11:47:19Z</time>
      </trkpt>
      <trkpt lat="54.219767013564706" lon="27.655586013570428">
        <ele>302.94999999999999</ele>
        <time>2013-08-17T11:47:21Z</time>
      </trkpt>
      <trkpt lat="54.21984001994133" lon="27.655451986938715">
        <ele>299.11000000000001</ele>
        <time>2013-08-17T11:47:29Z</time>
      </trkpt>
      <trkpt lat="54.219973040744662" lon="27.655317038297653">
        <ele>295.74000000000001</ele>
        <time>2013-08-17T11:47:37Z</time>
      </trkpt>
      <trkpt lat="54.220185019075871" lon="27.654949994757771">
        <ele>292.86000000000001</ele>
        <time>2013-08-17T11:47:51Z</time>
      </trkpt>
      <trkpt lat="54.220413006842136" lon="27.654529977589846">
        <ele>284.69</ele>
        <time>2013-08-17T11:48:08Z</time>
      </trkpt>
      <trkpt lat="54.220591960474849" lon="27.654126975685358">
        <ele>277.95999999999998</ele>
        <time>2013-08-17T11:48:20Z</time>
      </trkpt>
      <trkpt lat="54.22076596878469" lon="27.65367703512311">
        <ele>279.88</ele>
        <time>2013-08-17T11:48:33Z</time>
      </trkpt>
      <trkpt lat="54.220983982086182" lon="27.653230028226972">
        <ele>278.44</ele>
        <time>2013-08-17T11:48:46Z</time>
      </trkpt>
      <trkpt lat="54.221206018701196" lon="27.652788972482085">
        <ele>277</ele>
        <time>2013-08-17T11:49:00Z</time>
      </trkpt>
      <trkpt lat="54.22123703174293" lon="27.652689982205629">
        <ele>276.51999999999998</ele>
        <time>2013-08-17T11:49:13Z</time>
      </trkpt>
      <trkpt lat="54.221246000379324" lon="27.65271202661097">
        <ele>277.48000000000002</ele>
        <time>2013-08-17T11:49:31Z</time>
      </trkpt>
      <trkpt lat="54.221453033387661" lon="27.65297002159059">
        <ele>285.17000000000002</ele>
        <time>2013-08-17T11:49:44Z</time>
      </trkpt>
      <trkpt lat="54.221713040024042" lon="27.653355002403259">
        <ele>293.33999999999997</ele>
        <time>2013-08-17T11:49:58Z</time>
      </trkpt>
      <trkpt lat="54.221819993108511" lon="27.65372397378087">
        <ele>298.14999999999998</ele>
        <time>2013-08-17T11:50:12Z</time>
      </trkpt>
      <trkpt lat="54.221784034743905" lon="27.654126975685358">
        <ele>300.55000000000001</ele>
        <time>2013-08-17T11:50:24Z</time>
      </trkpt>
      <trkpt lat="54.221745980903506" lon="27.654725024476647">
        <ele>306.80000000000001</ele>
        <time>2013-08-17T11:50:38Z</time>
      </trkpt>
      <trkpt lat="54.22162301838398" lon="27.655345033854246">
        <ele>309.19999999999999</ele>
        <time>2013-08-17T11:50:51Z</time>
      </trkpt>
      <trkpt lat="54.221611032262444" lon="27.656025979667902">
        <ele>309.68000000000001</ele>
        <time>2013-08-17T11:51:06Z</time>
      </trkpt>
      <trkpt lat="54.221652019768953" lon="27.656132010743022">
        <ele>310.16000000000003</ele>
        <time>2013-08-17T11:51:09Z</time>
      </trkpt>
      <trkpt lat="54.221723014488816" lon="27.656231001019478">
        <ele>310.63999999999999</ele>
        <time>2013-08-17T11:51:13Z</time>
      </trkpt>
      <trkpt lat="54.22199098393321" lon="27.656525038182735">
        <ele>313.05000000000001</ele>
        <time>2013-08-17T11:51:28Z</time>
      </trkpt>
      <trkpt lat="54.222029037773609" lon="27.656552027910948">
        <ele>313.05000000000001</ele>
        <time>2013-08-17T11:51:37Z</time>
      </trkpt>
      <trkpt lat="54.222102966159582" lon="27.656782027333975">
        <ele>313.05000000000001</ele>
        <time>2013-08-17T11:51:50Z</time>
      </trkpt>
      <trkpt lat="54.222124004736543" lon="27.657260969281197">
        <ele>310.63999999999999</ele>
        <time>2013-08-17T11:52:02Z</time>
      </trkpt>
      <trkpt lat="54.222114030271769" lon="27.657277984544635">
        <ele>310.63999999999999</ele>
        <time>2013-08-17T11:52:34Z</time>
      </trkpt>
      <trkpt lat="54.222117969766259" lon="27.657273039221764">
        <ele>310.63999999999999</ele>
        <time>2013-08-17T11:52:57Z</time>
      </trkpt>
      <trkpt lat="54.222098020836711" lon="27.657328024506569">
        <ele>310.16000000000003</ele>
        <time>2013-08-17T11:53:21Z</time>
      </trkpt>
      <trkpt lat="54.222042029723525" lon="27.657894976437092">
        <ele>309.68000000000001</ele>
        <time>2013-08-17T11:53:35Z</time>
      </trkpt>
      <trkpt lat="54.221999030560255" lon="27.658584974706173">
        <ele>309.19999999999999</ele>
        <time>2013-08-17T11:53:51Z</time>
      </trkpt>
      <trkpt lat="54.221996013075113" lon="27.658614981919527">
        <ele>309.19999999999999</ele>
        <time>2013-08-17T11:53:52Z</time>
      </trkpt>
      <trkpt lat="54.222071031108499" lon="27.658612970262766">
        <ele>307.27999999999997</ele>
        <time>2013-08-17T11:54:00Z</time>
      </trkpt>
      <trkpt lat="54.222449976950884" lon="27.658323962241411">
        <ele>306.80000000000001</ele>
        <time>2013-08-17T11:54:14Z</time>
      </trkpt>
      <trkpt lat="54.222682993859053" lon="27.658711038529873">
        <ele>306.31999999999999</ele>
        <time>2013-08-17T11:54:24Z</time>
      </trkpt>
      <trkpt lat="54.222557013854384" lon="27.659276984632015">
        <ele>305.36000000000001</ele>
        <time>2013-08-17T11:54:34Z</time>
      </trkpt>
      <trkpt lat="54.222259037196636" lon="27.659956002607942">
        <ele>304.38999999999999</ele>
        <time>2013-08-17T11:54:49Z</time>
      </trkpt>
      <trkpt lat="54.222212014719844" lon="27.659981986507773">
        <ele>303.91000000000003</ele>
        <time>2013-08-17T11:55:02Z</time>
      </trkpt>
      <trkpt lat="54.222072036936879" lon="27.660223972052336">
        <ele>303.91000000000003</ele>
        <time>2013-08-17T11:55:13Z</time>
      </trkpt>
      <trkpt lat="54.221901968121529" lon="27.66059503890574">
        <ele>304.38999999999999</ele>
        <time>2013-08-17T11:55:26Z</time>
      </trkpt>
      <trkpt lat="54.221858968958259" lon="27.660681959241629">
        <ele>304.38999999999999</ele>
        <time>2013-08-17T11:55:32Z</time>
      </trkpt>
      <trkpt lat="54.221833990886807" lon="27.660653963685036">
        <ele>304.38999999999999</ele>
        <time>2013-08-17T11:55:45Z</time>
      </trkpt>
      <trkpt lat="54.222001964226365" lon="27.660325979813933">
        <ele>301.99000000000001</ele>
        <time>2013-08-17T11:55:57Z</time>
      </trkpt>
      <trkpt lat="54.222215032204986" lon="27.659976035356522">
        <ele>302.94999999999999</ele>
        <time>2013-08-17T11:56:10Z</time>
      </trkpt>
      <trkpt lat="54.222294995561242" lon="27.659945022314787">
        <ele>301.99000000000001</ele>
        <time>2013-08-17T11:56:14Z</time>
      </trkpt>
      <trkpt lat="54.222346041351557" lon="27.660086005926132">
        <ele>300.06999999999999</ele>
        <time>2013-08-17T11:56:19Z</time>
      </trkpt>
      <trkpt lat="54.222386023029685" lon="27.660665027797222">
        <ele>298.63</ele>
        <time>2013-08-17T11:56:34Z</time>
      </trkpt>
      <trkpt lat="54.222500016912818" lon="27.660999968647957">
        <ele>300.55000000000001</ele>
        <time>2013-08-17T11:56:46Z</time>
      </trkpt>
      <trkpt lat="54.222515020519495" lon="27.661067023873329">
        <ele>301.50999999999999</ele>
        <time>2013-08-17T11:56:49Z</time>
      </trkpt>
      <trkpt lat="54.222668996080756" lon="27.661346979439259">
        <ele>302.47000000000003</ele>
        <time>2013-08-17T11:57:00Z</time>
      </trkpt>
      <trkpt lat="54.222776032984257" lon="27.661663983017206">
        <ele>303.91000000000003</ele>
        <time>2013-08-17T11:57:15Z</time>
      </trkpt>
      <trkpt lat="54.222774021327496" lon="27.661644034087658">
        <ele>304.38999999999999</ele>
        <time>2013-08-17T11:57:18Z</time>
      </trkpt>
      <trkpt lat="54.222702020779252" lon="27.66141596250236">
        <ele>306.31999999999999</ele>
        <time>2013-08-17T11:57:29Z</time>
      </trkpt>
      <trkpt lat="54.222690034657717" lon="27.661390984430909">
        <ele>306.31999999999999</ele>
        <time>2013-08-17T11:57:31Z</time>
      </trkpt>
      <trkpt lat="54.222679976373911" lon="27.661354020237923">
        <ele>306.31999999999999</ele>
        <time>2013-08-17T11:57:33Z</time>
      </trkpt>
      <trkpt lat="54.222603030502796" lon="27.661236003041267">
        <ele>306.31999999999999</ele>
        <time>2013-08-17T11:57:42Z</time>
      </trkpt>
      <trkpt lat="54.222429022192955" lon="27.660826966166496">
        <ele>306.31999999999999</ele>
        <time>2013-08-17T11:57:57Z</time>
      </trkpt>
      <trkpt lat="54.222365990281105" lon="27.660373002290726">
        <ele>307.75999999999999</ele>
        <time>2013-08-17T11:58:10Z</time>
      </trkpt>
      <trkpt lat="54.22229097224772" lon="27.6599529851228">
        <ele>308.24000000000001</ele>
        <time>2013-08-17T11:58:23Z</time>
      </trkpt>
      <trkpt lat="54.22242097556591" lon="27.659494997933507">
        <ele>307.27999999999997</ele>
        <time>2013-08-17T11:58:36Z</time>
      </trkpt>
      <trkpt lat="54.22267603687942" lon="27.65872897580266">
        <ele>306.31999999999999</ele>
        <time>2013-08-17T11:58:53Z</time>
      </trkpt>
      <trkpt lat="54.222495993599296" lon="27.658346006646752">
        <ele>306.31999999999999</ele>
        <time>2013-08-17T11:59:03Z</time>
      </trkpt>
      <trkpt lat="54.222191981971264" lon="27.65842798165977">
        <ele>306.31999999999999</ele>
        <time>2013-08-17T11:59:13Z</time>
      </trkpt>
      <trkpt lat="54.221992995589972" lon="27.657958008348942">
        <ele>306.31999999999999</ele>
        <time>2013-08-17T11:59:23Z</time>
      </trkpt>
      <trkpt lat="54.222079999744892" lon="27.657126020640135">
        <ele>304.88</ele>
        <time>2013-08-17T11:59:34Z</time>
      </trkpt>
      <trkpt lat="54.221939016133547" lon="27.656222032383084">
        <ele>301.99000000000001</ele>
        <time>2013-08-17T11:59:48Z</time>
      </trkpt>
      <trkpt lat="54.221765007823706" lon="27.655921038240194">
        <ele>303.91000000000003</ele>
        <time>2013-08-17T12:00:02Z</time>
      </trkpt>
      <trkpt lat="54.221811024472117" lon="27.655193991959095">
        <ele>301.99000000000001</ele>
        <time>2013-08-17T12:00:15Z</time>
      </trkpt>
      <trkpt lat="54.221820998936892" lon="27.654213979840279">
        <ele>301.99000000000001</ele>
        <time>2013-08-17T12:00:27Z</time>
      </trkpt>
      <trkpt lat="54.22177598811686" lon="27.653410993516445">
        <ele>302.47000000000003</ele>
        <time>2013-08-17T12:00:42Z</time>
      </trkpt>
      <trkpt lat="54.221785962581635" lon="27.652875976637006">
        <ele>301.02999999999997</ele>
        <time>2013-08-17T12:00:54Z</time>
      </trkpt>
      <trkpt lat="54.221636010333896" lon="27.652151025831699">
        <ele>299.11000000000001</ele>
        <time>2013-08-17T12:01:07Z</time>
      </trkpt>
      <trkpt lat="54.221635004505515" lon="27.651680968701839">
        <ele>297.67000000000002</ele>
        <time>2013-08-17T12:01:18Z</time>
      </trkpt>
      <trkpt lat="54.221867015585303" lon="27.651366982609034">
        <ele>298.14999999999998</ele>
        <time>2013-08-17T12:01:29Z</time>
      </trkpt>
      <trkpt lat="54.222341012209654" lon="27.650736998766661">
        <ele>300.55000000000001</ele>
        <time>2013-08-17T12:01:47Z</time>
      </trkpt>
      <trkpt lat="54.222765974700451" lon="27.650213968008757">
        <ele>302.47000000000003</ele>
        <time>2013-08-17T12:02:02Z</time>
      </trkpt>
      <trkpt lat="54.223111979663372" lon="27.649763021618128">
        <ele>304.88</ele>
        <time>2013-08-17T12:02:16Z</time>
      </trkpt>
      <trkpt lat="54.223412973806262" lon="27.649406958371401">
        <ele>307.75999999999999</ele>
        <time>2013-08-17T12:02:31Z</time>
      </trkpt>
      <trkpt lat="54.223638027906418" lon="27.649172013625503">
        <ele>309.19999999999999</ele>
        <time>2013-08-17T12:02:43Z</time>
      </trkpt>
      <trkpt lat="54.223778005689383" lon="27.648965986445546">
        <ele>311.60000000000002</ele>
        <time>2013-08-17T12:02:54Z</time>
      </trkpt>
      <trkpt lat="54.223918989300728" lon="27.648722995072603">
        <ele>312.56999999999999</ele>
        <time>2013-08-17T12:03:07Z</time>
      </trkpt>
      <trkpt lat="54.223928041756153" lon="27.648711008951068">
        <ele>312.56999999999999</ele>
        <time>2013-08-17T12:03:08Z</time>
      </trkpt>
      <trkpt lat="54.223971962928772" lon="27.648610007017851">
        <ele>313.05000000000001</ele>
        <time>2013-08-17T12:03:14Z</time>
      </trkpt>
      <trkpt lat="54.224036000669003" lon="27.64856499619782">
        <ele>313.52999999999997</ele>
        <time>2013-08-17T12:03:19Z</time>
      </trkpt>
      <trkpt lat="54.22407497651875" lon="27.648520991206169">
        <ele>314.00999999999999</ele>
        <time>2013-08-17T12:03:22Z</time>
      </trkpt>
      <trkpt lat="54.224148988723755" lon="27.648572036996484">
        <ele>314.00999999999999</ele>
        <time>2013-08-17T12:03:27Z</time>
      </trkpt>
      <trkpt lat="54.224135996773839" lon="27.648616963997483">
        <ele>314.49000000000001</ele>
        <time>2013-08-17T12:03:39Z</time>
      </trkpt>
      <trkpt lat="54.224131973460317" lon="27.648592991754413">
        <ele>314.49000000000001</ele>
        <time>2013-08-17T12:03:50Z</time>
      </trkpt>
      <trkpt lat="54.224219983443618" lon="27.648270037025213">
        <ele>314.97000000000003</ele>
        <time>2013-08-17T12:04:01Z</time>
      </trkpt>
      <trkpt lat="54.224514020606875" lon="27.647828981280327">
        <ele>316.41000000000003</ele>
        <time>2013-08-17T12:04:17Z</time>
      </trkpt>
      <trkpt lat="54.224790036678314" lon="27.647387003526092">
        <ele>319.77999999999997</ele>
        <time>2013-08-17T12:04:30Z</time>
      </trkpt>
      <trkpt lat="54.22512698918581" lon="27.64684896916151">
        <ele>320.25999999999999</ele>
        <time>2013-08-17T12:04:45Z</time>
      </trkpt>
      <trkpt lat="54.225172000005841" lon="27.646776968613267">
        <ele>320.25999999999999</ele>
        <time>2013-08-17T12:04:56Z</time>
      </trkpt>
      <trkpt lat="54.225167976692319" lon="27.646793983876705">
        <ele>319.77999999999997</ele>
        <time>2013-08-17T12:07:38Z</time>
      </trkpt>
      <trkpt lat="54.225406022742391" lon="27.646463988348842">
        <ele>319.30000000000001</ele>
        <time>2013-08-17T12:07:51Z</time>
      </trkpt>
      <trkpt lat="54.225939027965069" lon="27.645712969824672">
        <ele>317.37</ele>
        <time>2013-08-17T12:08:06Z</time>
      </trkpt>
      <trkpt lat="54.226185958832502" lon="27.645366964861751">
        <ele>315.93000000000001</ele>
        <time>2013-08-17T12:08:11Z</time>
      </trkpt>
      <trkpt lat="54.226296013221145" lon="27.645046021789312">
        <ele>314.97000000000003</ele>
        <time>2013-08-17T12:08:15Z</time>
      </trkpt>
      <trkpt lat="54.2262879665941" lon="27.644969997927547">
        <ele>314.49000000000001</ele>
        <time>2013-08-17T12:08:16Z</time>
      </trkpt>
      <trkpt lat="54.226267011836171" lon="27.644904032349586">
        <ele>314.49000000000001</ele>
        <time>2013-08-17T12:08:17Z</time>
      </trkpt>
      <trkpt lat="54.226237004622817" lon="27.644843012094498">
        <ele>314.49000000000001</ele>
        <time>2013-08-17T12:08:18Z</time>
      </trkpt>
      <trkpt lat="54.226203979924321" lon="27.644786015152931">
        <ele>314.49000000000001</ele>
        <time>2013-08-17T12:08:19Z</time>
      </trkpt>
      <trkpt lat="54.226168021559715" lon="27.644732035696507">
        <ele>314.49000000000001</ele>
        <time>2013-08-17T12:08:20Z</time>
      </trkpt>
      <trkpt lat="54.225525967776775" lon="27.643770966678858">
        <ele>310.63999999999999</ele>
        <time>2013-08-17T12:08:36Z</time>
      </trkpt>
      <trkpt lat="54.225209970027208" lon="27.643251959234476">
        <ele>310.16000000000003</ele>
        <time>2013-08-17T12:08:44Z</time>
      </trkpt>
      <trkpt lat="54.22489196062088" lon="27.642177985981107">
        <ele>309.19999999999999</ele>
        <time>2013-08-17T12:09:00Z</time>
      </trkpt>
      <trkpt lat="54.22458996064961" lon="27.641090014949441">
        <ele>309.19999999999999</ele>
        <time>2013-08-17T12:09:17Z</time>
      </trkpt>
      <trkpt lat="54.224508991464972" lon="27.640796983614564">
        <ele>309.19999999999999</ele>
        <time>2013-08-17T12:09:22Z</time>
      </trkpt>
      <trkpt lat="54.224540004506707" lon="27.640729006379843">
        <ele>308.24000000000001</ele>
        <time>2013-08-17T12:09:34Z</time>
      </trkpt>
      <trkpt lat="54.224534975364804" lon="27.640728000551462">
        <ele>308.72000000000003</ele>
        <time>2013-08-17T12:12:24Z</time>
      </trkpt>
      <trkpt lat="54.224527012556791" lon="27.640730012208223">
        <ele>309.19999999999999</ele>
        <time>2013-08-17T12:12:48Z</time>
      </trkpt>
      <trkpt lat="54.224527012556791" lon="27.640730012208223">
        <ele>309.19999999999999</ele>
        <time>2013-08-17T12:12:49Z</time>
      </trkpt>
      <trkpt lat="54.224478984251618" lon="27.640672009438276">
        <ele>309.19999999999999</ele>
        <time>2013-08-17T12:12:53Z</time>
      </trkpt>
      <trkpt lat="54.224263988435268" lon="27.639919985085726">
        <ele>308.72000000000003</ele>
        <time>2013-08-17T12:13:06Z</time>
      </trkpt>
      <trkpt lat="54.224128033965826" lon="27.639529975131154">
        <ele>308.24000000000001</ele>
        <time>2013-08-17T12:13:12Z</time>
      </trkpt>
      <trkpt lat="54.224106995388865" lon="27.639601975679398">
        <ele>307.75999999999999</ele>
        <time>2013-08-17T12:13:18Z</time>
      </trkpt>
      <trkpt lat="54.224106995388865" lon="27.639601975679398">
        <ele>307.75999999999999</ele>
        <time>2013-08-17T12:13:30Z</time>
      </trkpt>
      <trkpt lat="54.224056033417583" lon="27.639277009293437">
        <ele>308.24000000000001</ele>
        <time>2013-08-17T12:13:39Z</time>
      </trkpt>
      <trkpt lat="54.223972968757153" lon="27.638951959088445">
        <ele>307.27999999999997</ele>
        <time>2013-08-17T12:13:44Z</time>
      </trkpt>
      <trkpt lat="54.223958970978856" lon="27.638879958540201">
        <ele>307.27999999999997</ele>
        <time>2013-08-17T12:13:45Z</time>
      </trkpt>
      <trkpt lat="54.223628975450993" lon="27.637579003348947">
        <ele>303.43000000000001</ele>
        <time>2013-08-17T12:13:59Z</time>
      </trkpt>
      <trkpt lat="54.2234490159899" lon="27.63597303070128">
        <ele>298.63</ele>
        <time>2013-08-17T12:14:11Z</time>
      </trkpt>
      <trkpt lat="54.22332001850009" lon="27.634616000577807">
        <ele>297.18000000000001</ele>
        <time>2013-08-17T12:14:23Z</time>
      </trkpt>
      <trkpt lat="54.223309960216284" lon="27.634510975331068">
        <ele>297.18000000000001</ele>
        <time>2013-08-17T12:14:24Z</time>
      </trkpt>
      <trkpt lat="54.22314902767539" lon="27.632768964394927">
        <ele>297.18000000000001</ele>
        <time>2013-08-17T12:14:39Z</time>
      </trkpt>
      <trkpt lat="54.22304199077189" lon="27.631615027785301">
        <ele>298.63</ele>
        <time>2013-08-17T12:14:50Z</time>
      </trkpt>
      <trkpt lat="54.223011983558536" lon="27.63111898675561">
        <ele>299.11000000000001</ele>
        <time>2013-08-17T12:14:55Z</time>
      </trkpt>
      <trkpt lat="54.222981976345181" lon="27.630737023428082">
        <ele>298.63</ele>
        <time>2013-08-17T12:14:59Z</time>
      </trkpt>
      <trkpt lat="54.22291399911046" lon="27.629947029054165">
        <ele>298.14999999999998</ele>
        <time>2013-08-17T12:15:07Z</time>
      </trkpt>
      <trkpt lat="54.222793970257044" lon="27.628293028101325">
        <ele>294.77999999999997</ele>
        <time>2013-08-17T12:15:23Z</time>
      </trkpt>
      <trkpt lat="54.222747031599283" lon="27.627685004845262">
        <ele>294.77999999999997</ele>
        <time>2013-08-17T12:15:29Z</time>
      </trkpt>
      <trkpt lat="54.22272096388042" lon="27.627489035949111">
        <ele>294.30000000000001</ele>
        <time>2013-08-17T12:15:31Z</time>
      </trkpt>
      <trkpt lat="54.222608981654048" lon="27.626136029139161">
        <ele>292.38</ele>
        <time>2013-08-17T12:15:45Z</time>
      </trkpt>
      <trkpt lat="54.22252600081265" lon="27.625539992004633">
        <ele>292.38</ele>
        <time>2013-08-17T12:15:52Z</time>
      </trkpt>
      <trkpt lat="54.222455006092787" lon="27.625203961506486">
        <ele>291.89999999999998</ele>
        <time>2013-08-17T12:15:56Z</time>
      </trkpt>
      <trkpt lat="54.222357021644711" lon="27.624901961535215">
        <ele>293.33999999999997</ele>
        <time>2013-08-17T12:16:00Z</time>
      </trkpt>
      <trkpt lat="54.222078993916512" lon="27.624233001843095">
        <ele>296.69999999999999</ele>
        <time>2013-08-17T12:16:10Z</time>
      </trkpt>
      <trkpt lat="54.221730977296829" lon="27.623434960842133">
        <ele>301.50999999999999</ele>
        <time>2013-08-17T12:16:24Z</time>
      </trkpt>
      <trkpt lat="54.221445992588997" lon="27.622673967853189">
        <ele>303.43000000000001</ele>
        <time>2013-08-17T12:16:40Z</time>
      </trkpt>
      <trkpt lat="54.221250023692846" lon="27.622182033956051">
        <ele>304.38999999999999</ele>
        <time>2013-08-17T12:16:51Z</time>
      </trkpt>
      <trkpt lat="54.221053970977664" lon="27.621395979076624">
        <ele>305.83999999999997</ele>
        <time>2013-08-17T12:17:05Z</time>
      </trkpt>
      <trkpt lat="54.220879040658474" lon="27.620593998581171">
        <ele>304.88</ele>
        <time>2013-08-17T12:17:18Z</time>
      </trkpt>
      <trkpt lat="54.220594977959991" lon="27.61953997425735">
        <ele>302.94999999999999</ele>
        <time>2013-08-17T12:17:32Z</time>
      </trkpt>
      <trkpt lat="54.220444019883871" lon="27.619116017594934">
        <ele>303.91000000000003</ele>
        <time>2013-08-17T12:17:38Z</time>
      </trkpt>
      <trkpt lat="54.220243021845818" lon="27.618754003196955">
        <ele>304.38999999999999</ele>
        <time>2013-08-17T12:17:44Z</time>
      </trkpt>
      <trkpt lat="54.219818981364369" lon="27.618158971890807">
        <ele>304.88</ele>
        <time>2013-08-17T12:17:55Z</time>
      </trkpt>
      <trkpt lat="54.219495020806789" lon="27.617725962772965">
        <ele>303.43000000000001</ele>
        <time>2013-08-17T12:18:04Z</time>
      </trkpt>
      <trkpt lat="54.219139041379094" lon="27.617313992232084">
        <ele>301.99000000000001</ele>
        <time>2013-08-17T12:18:13Z</time>
      </trkpt>
      <trkpt lat="54.218784989789128" lon="27.617172002792358">
        <ele>300.06999999999999</ele>
        <time>2013-08-17T12:18:24Z</time>
      </trkpt>
      <trkpt lat="54.218759005889297" lon="27.617184994742274">
        <ele>299.58999999999997</ele>
        <time>2013-08-17T12:18:39Z</time>
      </trkpt>
      <trkpt lat="54.218759005889297" lon="27.617184994742274">
        <ele>299.58999999999997</ele>
        <time>2013-08-17T12:18:55Z</time>
      </trkpt>
      <trkpt lat="54.218606958165765" lon="27.617594031617045">
        <ele>296.69999999999999</ele>
        <time>2013-08-17T12:19:07Z</time>
      </trkpt>
      <trkpt lat="54.218584997579455" lon="27.617644993588328">
        <ele>296.69999999999999</ele>
        <time>2013-08-17T12:19:08Z</time>
      </trkpt>
      <trkpt lat="54.218363966792822" lon="27.6183130312711">
        <ele>294.77999999999997</ele>
        <time>2013-08-17T12:19:19Z</time>
      </trkpt>
      <trkpt lat="54.21801301650703" lon="27.619321038946509">
        <ele>292.38</ele>
        <time>2013-08-17T12:19:32Z</time>
      </trkpt>
      <trkpt lat="54.217528039589524" lon="27.620595004409552">
        <ele>290.45999999999998</ele>
        <time>2013-08-17T12:19:48Z</time>
      </trkpt>
      <trkpt lat="54.217374986037612" lon="27.621168997138739">
        <ele>288.05000000000001</ele>
        <time>2013-08-17T12:19:54Z</time>
      </trkpt>
      <trkpt lat="54.21698397025466" lon="27.622433993965387">
        <ele>286.13</ele>
        <time>2013-08-17T12:20:07Z</time>
      </trkpt>
      <trkpt lat="54.216925967484713" lon="27.622577995061874">
        <ele>285.64999999999998</ele>
        <time>2013-08-17T12:20:09Z</time>
      </trkpt>
      <trkpt lat="54.216470997780561" lon="27.623927984386683">
        <ele>282.27999999999997</ele>
        <time>2013-08-17T12:20:25Z</time>
      </trkpt>
      <trkpt lat="54.21616698615253" lon="27.625123998150229">
        <ele>286.13</ele>
        <time>2013-08-17T12:20:38Z</time>
      </trkpt>
      <trkpt lat="54.216109989210963" lon="27.625274034217">
        <ele>286.61000000000001</ele>
        <time>2013-08-17T12:20:40Z</time>
      </trkpt>
      <trkpt lat="54.2157799936831" lon="27.626302996650338">
        <ele>286.61000000000001</ele>
        <time>2013-08-17T12:20:52Z</time>
      </trkpt>
      <trkpt lat="54.215451003983617" lon="27.627334976568818">
        <ele>284.20999999999998</ele>
        <time>2013-08-17T12:21:03Z</time>
      </trkpt>
      <trkpt lat="54.215356037020683" lon="27.627613004297018">
        <ele>285.17000000000002</ele>
        <time>2013-08-17T12:21:06Z</time>
      </trkpt>
      <trkpt lat="54.214982958510518" lon="27.62871497310698">
        <ele>283.25</ele>
        <time>2013-08-17T12:21:20Z</time>
      </trkpt>
      <trkpt lat="54.214604012668133" lon="27.629989022389054">
        <ele>282.27999999999997</ele>
        <time>2013-08-17T12:21:33Z</time>
      </trkpt>
      <trkpt lat="54.214293966069818" lon="27.631083028391004">
        <ele>285.17000000000002</ele>
        <time>2013-08-17T12:21:45Z</time>
      </trkpt>
      <trkpt lat="54.214038988575339" lon="27.631862964481115">
        <ele>289.49000000000001</ele>
        <time>2013-08-17T12:21:56Z</time>
      </trkpt>
      <trkpt lat="54.213978974148631" lon="27.632062034681439">
        <ele>290.94</ele>
        <time>2013-08-17T12:21:59Z</time>
      </trkpt>
      <trkpt lat="54.213913008570671" lon="27.632261021062732">
        <ele>292.38</ele>
        <time>2013-08-17T12:22:02Z</time>
      </trkpt>
      <trkpt lat="54.213843019679189" lon="27.632459001615644">
        <ele>292.86000000000001</ele>
        <time>2013-08-17T12:22:05Z</time>
      </trkpt>
      <trkpt lat="54.213732965290546" lon="27.632798971608281">
        <ele>293.81999999999999</ele>
        <time>2013-08-17T12:22:10Z</time>
      </trkpt>
      <trkpt lat="54.213643027469516" lon="27.633075993508101">
        <ele>294.30000000000001</ele>
        <time>2013-08-17T12:22:14Z</time>
      </trkpt>
      <trkpt lat="54.213317977264524" lon="27.634054999798536">
        <ele>294.77999999999997</ele>
        <time>2013-08-17T12:22:27Z</time>
      </trkpt>
      <trkpt lat="54.213045984506607" lon="27.634945996105671">
        <ele>293.33999999999997</ele>
        <time>2013-08-17T12:22:38Z</time>
      </trkpt>
      <trkpt lat="54.212739961221814" lon="27.635773038491607">
        <ele>290.94</ele>
        <time>2013-08-17T12:22:52Z</time>
      </trkpt>
      <trkpt lat="54.212411977350712" lon="27.636772999539971">
        <ele>290.45999999999998</ele>
        <time>2013-08-17T12:23:06Z</time>
      </trkpt>
      <trkpt lat="54.21227702870965" lon="27.637082040309906">
        <ele>291.42000000000002</ele>
        <time>2013-08-17T12:23:11Z</time>
      </trkpt>
      <trkpt lat="54.212072007358074" lon="27.637614039704204">
        <ele>291.89999999999998</ele>
        <time>2013-08-17T12:23:19Z</time>
      </trkpt>
      <trkpt lat="54.211961030960083" lon="27.637856025248766">
        <ele>291.42000000000002</ele>
        <time>2013-08-17T12:23:23Z</time>
      </trkpt>
      <trkpt lat="54.211824992671609" lon="27.638200018554926">
        <ele>290.45999999999998</ele>
        <time>2013-08-17T12:23:28Z</time>
      </trkpt>
      <trkpt lat="54.211559034883976" lon="27.639084979891777">
        <ele>286.61000000000001</ele>
        <time>2013-08-17T12:23:40Z</time>
      </trkpt>
      <trkpt lat="54.211256029084325" lon="27.639872962608933">
        <ele>278.92000000000002</ele>
        <time>2013-08-17T12:23:52Z</time>
      </trkpt>
      <trkpt lat="54.211168019101024" lon="27.640260960906744">
        <ele>277</ele>
        <time>2013-08-17T12:23:57Z</time>
      </trkpt>
      <trkpt lat="54.211127031594515" lon="27.640418037772179">
        <ele>276.51999999999998</ele>
        <time>2013-08-17T12:23:59Z</time>
      </trkpt>
      <trkpt lat="54.211090989410877" lon="27.640554998070002">
        <ele>275.56</ele>
        <time>2013-08-17T12:24:01Z</time>
      </trkpt>
      <trkpt lat="54.210782032459974" lon="27.641602987423539">
        <ele>273.14999999999998</ele>
        <time>2013-08-17T12:24:17Z</time>
      </trkpt>
      <trkpt lat="54.210524037480354" lon="27.642449978739023">
        <ele>269.79000000000002</ele>
        <time>2013-08-17T12:24:31Z</time>
      </trkpt>
      <trkpt lat="54.21027802862227" lon="27.643096977844834">
        <ele>271.70999999999998</ele>
        <time>2013-08-17T12:24:44Z</time>
      </trkpt>
      <trkpt lat="54.210006035864353" lon="27.643570974469185">
        <ele>269.31</ele>
        <time>2013-08-17T12:24:58Z</time>
      </trkpt>
      <trkpt lat="54.209761032834649" lon="27.644361974671483">
        <ele>266.89999999999998</ele>
        <time>2013-08-17T12:25:13Z</time>
      </trkpt>
      <trkpt lat="54.209477975964546" lon="27.645443994551897">
        <ele>273.14999999999998</ele>
        <time>2013-08-17T12:25:29Z</time>
      </trkpt>
      <trkpt lat="54.209416033700109" lon="27.645709030330181">
        <ele>274.58999999999997</ele>
        <time>2013-08-17T12:25:32Z</time>
      </trkpt>
      <trkpt lat="54.209268009290099" lon="27.646517967805266">
        <ele>289.00999999999999</ele>
        <time>2013-08-17T12:25:40Z</time>
      </trkpt>
      <trkpt lat="54.20894899405539" lon="27.647563023492694">
        <ele>298.63</ele>
        <time>2013-08-17T12:25:57Z</time>
      </trkpt>
      <trkpt lat="54.208778003230691" lon="27.648059986531734">
        <ele>298.63</ele>
        <time>2013-08-17T12:26:11Z</time>
      </trkpt>
      <trkpt lat="54.208660991862416" lon="27.64860900118947">
        <ele>304.88</ele>
        <time>2013-08-17T12:26:24Z</time>
      </trkpt>
      <trkpt lat="54.208381958305836" lon="27.649439983069897">
        <ele>313.05000000000001</ele>
        <time>2013-08-17T12:26:41Z</time>
      </trkpt>
      <trkpt lat="54.208104014396667" lon="27.650311030447483">
        <ele>313.05000000000001</ele>
        <time>2013-08-17T12:26:54Z</time>
      </trkpt>
      <trkpt lat="54.207823975011706" lon="27.651085015386343">
        <ele>311.12</ele>
        <time>2013-08-17T12:27:08Z</time>
      </trkpt>
      <trkpt lat="54.207463972270489" lon="27.652044994756579">
        <ele>305.36000000000001</ele>
        <time>2013-08-17T12:27:25Z</time>
      </trkpt>
      <trkpt lat="54.207163983955979" lon="27.652913024649024">
        <ele>297.18000000000001</ele>
        <time>2013-08-17T12:27:40Z</time>
      </trkpt>
      <trkpt lat="54.206837005913258" lon="27.654181038960814">
        <ele>299.58999999999997</ele>
        <time>2013-08-17T12:27:55Z</time>
      </trkpt>
      <trkpt lat="54.206593008711934" lon="27.654943037778139">
        <ele>300.06999999999999</ele>
        <time>2013-08-17T12:28:03Z</time>
      </trkpt>
      <trkpt lat="54.206518996506929" lon="27.655132971704006">
        <ele>300.06999999999999</ele>
        <time>2013-08-17T12:28:05Z</time>
      </trkpt>
      <trkpt lat="54.206055980175734" lon="27.656551022082567">
        <ele>300.55000000000001</ele>
        <time>2013-08-17T12:28:18Z</time>
      </trkpt>
      <trkpt lat="54.205887001007795" lon="27.657089978456497">
        <ele>299.58999999999997</ele>
        <time>2013-08-17T12:28:25Z</time>
      </trkpt>
      <trkpt lat="54.205750040709972" lon="27.65748099423945">
        <ele>299.58999999999997</ele>
        <time>2013-08-17T12:28:31Z</time>
      </trkpt>
      <trkpt lat="54.205365981906652" lon="27.658557984977961">
        <ele>297.67000000000002</ele>
        <time>2013-08-17T12:28:46Z</time>
      </trkpt>
      <trkpt lat="54.205001033842564" lon="27.659922977909446">
        <ele>292.38</ele>
        <time>2013-08-17T12:29:00Z</time>
      </trkpt>
      <trkpt lat="54.204550003632903" lon="27.661372041329741">
        <ele>286.61000000000001</ele>
        <time>2013-08-17T12:29:12Z</time>
      </trkpt>
      <trkpt lat="54.20434900559485" lon="27.661998001858592">
        <ele>285.17000000000002</ele>
        <time>2013-08-17T12:29:18Z</time>
      </trkpt>
      <trkpt lat="54.204098973423243" lon="27.662672996520996">
        <ele>284.69</ele>
        <time>2013-08-17T12:29:30Z</time>
      </trkpt>
      <trkpt lat="54.203848019242287" lon="27.663526022806764">
        <ele>287.08999999999997</ele>
        <time>2013-08-17T12:29:42Z</time>
      </trkpt>
      <trkpt lat="54.203519029542804" lon="27.664535958319902">
        <ele>288.05000000000001</ele>
        <time>2013-08-17T12:29:55Z</time>
      </trkpt>
      <trkpt lat="54.203365975990891" lon="27.664986988529563">
        <ele>287.56999999999999</ele>
        <time>2013-08-17T12:30:01Z</time>
      </trkpt>
      <trkpt lat="54.203135976567864" lon="27.665686039254069">
        <ele>284.20999999999998</ele>
        <time>2013-08-17T12:30:11Z</time>
      </trkpt>
      <trkpt lat="54.202874964103103" lon="27.666552979499102">
        <ele>283.25</ele>
        <time>2013-08-17T12:30:23Z</time>
      </trkpt>
      <trkpt lat="54.202574975788593" lon="27.667447999119759">
        <ele>287.08999999999997</ele>
        <time>2013-08-17T12:30:37Z</time>
      </trkpt>
      <trkpt lat="54.202488977462053" lon="27.667782017961144">
        <ele>289.97000000000003</ele>
        <time>2013-08-17T12:30:44Z</time>
      </trkpt>
      <trkpt lat="54.20250398106873" lon="27.667874973267317">
        <ele>290.94</ele>
        <time>2013-08-17T12:30:47Z</time>
      </trkpt>
      <trkpt lat="54.202458970248699" lon="27.668017968535423">
        <ele>292.86000000000001</ele>
        <time>2013-08-17T12:30:53Z</time>
      </trkpt>
      <trkpt lat="54.202391998842359" lon="27.668059961870313">
        <ele>292.86000000000001</ele>
        <time>2013-08-17T12:30:56Z</time>
      </trkpt>
      <trkpt lat="54.202329972758889" lon="27.668215027078986">
        <ele>293.33999999999997</ele>
        <time>2013-08-17T12:31:00Z</time>
      </trkpt>
      <trkpt lat="54.202210027724504" lon="27.668629009276628">
        <ele>295.74000000000001</ele>
        <time>2013-08-17T12:31:12Z</time>
      </trkpt>
      <trkpt lat="54.201928982511163" lon="27.669500978663564">
        <ele>295.74000000000001</ele>
        <time>2013-08-17T12:31:27Z</time>
      </trkpt>
      <trkpt lat="54.201605021953583" lon="27.670434974133968">
        <ele>293.81999999999999</ele>
        <time>2013-08-17T12:31:43Z</time>
      </trkpt>
      <trkpt lat="54.201355995610356" lon="27.671157997101545">
        <ele>296.22000000000003</ele>
        <time>2013-08-17T12:31:59Z</time>
      </trkpt>
      <trkpt lat="54.201203025877476" lon="27.671753028407693">
        <ele>296.69999999999999</ele>
        <time>2013-08-17T12:32:11Z</time>
      </trkpt>
      <trkpt lat="54.200973026454449" lon="27.672367002815008">
        <ele>297.18000000000001</ele>
        <time>2013-08-17T12:32:23Z</time>
      </trkpt>
      <trkpt lat="54.200725005939603" lon="27.673104023560882">
        <ele>299.11000000000001</ele>
        <time>2013-08-17T12:32:39Z</time>
      </trkpt>
      <trkpt lat="54.200489977374673" lon="27.673798967152834">
        <ele>299.58999999999997</ele>
        <time>2013-08-17T12:32:54Z</time>
      </trkpt>
      <trkpt lat="54.200180014595389" lon="27.674800017848611">
        <ele>302.47000000000003</ele>
        <time>2013-08-17T12:33:11Z</time>
      </trkpt>
      <trkpt lat="54.199845995754004" lon="27.675655977800488">
        <ele>304.88</ele>
        <time>2013-08-17T12:33:26Z</time>
      </trkpt>
      <trkpt lat="54.199568973854184" lon="27.676595002412796">
        <ele>306.31999999999999</ele>
        <time>2013-08-17T12:33:40Z</time>
      </trkpt>
      <trkpt lat="54.19936696998775" lon="27.677391031756997">
        <ele>307.75999999999999</ele>
        <time>2013-08-17T12:33:53Z</time>
      </trkpt>
      <trkpt lat="54.199206037446856" lon="27.677962007001042">
        <ele>312.56999999999999</ele>
        <time>2013-08-17T12:34:09Z</time>
      </trkpt>
      <trkpt lat="54.198972014710307" lon="27.678606994450092">
        <ele>310.16000000000003</ele>
        <time>2013-08-17T12:34:22Z</time>
      </trkpt>
      <trkpt lat="54.198626009747386" lon="27.679631011560559">
        <ele>303.91000000000003</ele>
        <time>2013-08-17T12:34:36Z</time>
      </trkpt>
      <trkpt lat="54.198338007554412" lon="27.680589985102415">
        <ele>299.11000000000001</ele>
        <time>2013-08-17T12:34:50Z</time>
      </trkpt>
      <trkpt lat="54.19809996150434" lon="27.681497996672988">
        <ele>293.81999999999999</ele>
        <time>2013-08-17T12:35:05Z</time>
      </trkpt>
      <trkpt lat="54.197814976796508" lon="27.682380024343729">
        <ele>297.67000000000002</ele>
        <time>2013-08-17T12:35:21Z</time>
      </trkpt>
      <trkpt lat="54.197651026770473" lon="27.683064993470907">
        <ele>301.99000000000001</ele>
        <time>2013-08-17T12:35:34Z</time>
      </trkpt>
      <trkpt lat="54.197320025414228" lon="27.684003012254834">
        <ele>302.47000000000003</ele>
        <time>2013-08-17T12:35:49Z</time>
      </trkpt>
      <trkpt lat="54.196921968832612" lon="27.685043960809708">
        <ele>301.99000000000001</ele>
        <time>2013-08-17T12:36:04Z</time>
      </trkpt>
      <trkpt lat="54.196372032165527" lon="27.68648698925972">
        <ele>297.18000000000001</ele>
        <time>2013-08-17T12:36:18Z</time>
      </trkpt>
      <trkpt lat="54.19577700085938" lon="27.688045017421246">
        <ele>291.89999999999998</ele>
        <time>2013-08-17T12:36:31Z</time>
      </trkpt>
      <trkpt lat="54.195319013670087" lon="27.689290987327695">
        <ele>287.56999999999999</ele>
        <time>2013-08-17T12:36:44Z</time>
      </trkpt>
      <trkpt lat="54.195110974833369" lon="27.689822986721992">
        <ele>287.56999999999999</ele>
        <time>2013-08-17T12:36:51Z</time>
      </trkpt>
      <trkpt lat="54.195002010092139" lon="27.69011702388525">
        <ele>288.05000000000001</ele>
        <time>2013-08-17T12:36:55Z</time>
      </trkpt>
      <trkpt lat="54.194834036752582" lon="27.690571993589401">
        <ele>290.45999999999998</ele>
        <time>2013-08-17T12:37:01Z</time>
      </trkpt>
      <trkpt lat="54.194637984037399" lon="27.69108303822577">
        <ele>292.38</ele>
        <time>2013-08-17T12:37:08Z</time>
      </trkpt>
      <trkpt lat="54.194475961849093" lon="27.691544964909554">
        <ele>292.38</ele>
        <time>2013-08-17T12:37:14Z</time>
      </trkpt>
      <trkpt lat="54.194332966580987" lon="27.691932041198015">
        <ele>291.89999999999998</ele>
        <time>2013-08-17T12:37:19Z</time>
      </trkpt>
      <trkpt lat="54.193960977718234" lon="27.693096958100796">
        <ele>289.49000000000001</ele>
        <time>2013-08-17T12:37:32Z</time>
      </trkpt>
      <trkpt lat="54.193483963608742" lon="27.694413000717759">
        <ele>288.05000000000001</ele>
        <time>2013-08-17T12:37:44Z</time>
      </trkpt>
      <trkpt lat="54.192858003079891" lon="27.696065995842218">
        <ele>281.80000000000001</ele>
        <time>2013-08-17T12:37:56Z</time>
      </trkpt>
      <trkpt lat="54.192194994539022" lon="27.697914037853479">
        <ele>277</ele>
        <time>2013-08-17T12:38:09Z</time>
      </trkpt>
      <trkpt lat="54.191799033433199" lon="27.698936965316534">
        <ele>276.51999999999998</ele>
        <time>2013-08-17T12:38:19Z</time>
      </trkpt>
      <trkpt lat="54.191206013783813" lon="27.700552996248007">
        <ele>278.44</ele>
        <time>2013-08-17T12:38:35Z</time>
      </trkpt>
      <trkpt lat="54.191140970215201" lon="27.700762040913105">
        <ele>278.44</ele>
        <time>2013-08-17T12:38:37Z</time>
      </trkpt>
      <trkpt lat="54.190715001896024" lon="27.701927041634917">
        <ele>280.83999999999997</ele>
        <time>2013-08-17T12:38:49Z</time>
      </trkpt>
      <trkpt lat="54.190216027200222" lon="27.70343997515738">
        <ele>283.73000000000002</ele>
        <time>2013-08-17T12:39:05Z</time>
      </trkpt>
      <trkpt lat="54.189657960087061" lon="27.704989034682512">
        <ele>282.27999999999997</ele>
        <time>2013-08-17T12:39:22Z</time>
      </trkpt>
      <trkpt lat="54.188996041193604" lon="27.706821989268064">
        <ele>280.36000000000001</ele>
        <time>2013-08-17T12:39:41Z</time>
      </trkpt>
      <trkpt lat="54.188321968540549" lon="27.708683023229241">
        <ele>278.44</ele>
        <time>2013-08-17T12:40:00Z</time>
      </trkpt>
      <trkpt lat="54.187858030200005" lon="27.709957994520664">
        <ele>277.48000000000002</ele>
        <time>2013-08-17T12:40:15Z</time>
      </trkpt>
      <trkpt lat="54.187420997768641" lon="27.711136993020773">
        <ele>275.56</ele>
        <time>2013-08-17T12:40:28Z</time>
      </trkpt>
      <trkpt lat="54.186800988391042" lon="27.712882021442056">
        <ele>274.11000000000001</ele>
        <time>2013-08-17T12:40:47Z</time>
      </trkpt>
      <trkpt lat="54.186295978724957" lon="27.714237961918116">
        <ele>273.63</ele>
        <time>2013-08-17T12:41:03Z</time>
      </trkpt>
      <trkpt lat="54.185723997652531" lon="27.715825997292995">
        <ele>272.67000000000002</ele>
        <time>2013-08-17T12:41:21Z</time>
      </trkpt>
      <trkpt lat="54.185285959392786" lon="27.717055035755038">
        <ele>274.11000000000001</ele>
        <time>2013-08-17T12:41:35Z</time>
      </trkpt>
      <trkpt lat="54.184872983023524" lon="27.718224981799722">
        <ele>277.48000000000002</ele>
        <time>2013-08-17T12:41:48Z</time>
      </trkpt>
      <trkpt lat="54.18432598002255" lon="27.719711009413004">
        <ele>278.92000000000002</ele>
        <time>2013-08-17T12:42:05Z</time>
      </trkpt>
      <trkpt lat="54.183880984783173" lon="27.720875004306436">
        <ele>279.88</ele>
        <time>2013-08-17T12:42:19Z</time>
      </trkpt>
      <trkpt lat="54.183356026187539" lon="27.722397996112704">
        <ele>280.36000000000001</ele>
        <time>2013-08-17T12:42:36Z</time>
      </trkpt>
      <trkpt lat="54.182840036228299" lon="27.723812023177743">
        <ele>278.44</ele>
        <time>2013-08-17T12:42:51Z</time>
      </trkpt>
      <trkpt lat="54.182350030168891" lon="27.725205011665821">
        <ele>276.51999999999998</ele>
        <time>2013-08-17T12:43:05Z</time>
      </trkpt>
      <trkpt lat="54.181802021339536" lon="27.726517030969262">
        <ele>278.44</ele>
        <time>2013-08-17T12:43:20Z</time>
      </trkpt>
      <trkpt lat="54.181350991129875" lon="27.727257991209626">
        <ele>280.83999999999997</ele>
        <time>2013-08-17T12:43:30Z</time>
      </trkpt>
      <trkpt lat="54.180912030860782" lon="27.72773802280426">
        <ele>280.83999999999997</ele>
        <time>2013-08-17T12:43:39Z</time>
      </trkpt>
      <trkpt lat="54.18022102676332" lon="27.728500021621585">
        <ele>283.73000000000002</ele>
        <time>2013-08-17T12:43:53Z</time>
      </trkpt>
      <trkpt lat="54.17970797047019" lon="27.729065967723727">
        <ele>286.13</ele>
        <time>2013-08-17T12:44:03Z</time>
      </trkpt>
      <trkpt lat="54.178993999958038" lon="27.729842970147729">
        <ele>286.61000000000001</ele>
        <time>2013-08-17T12:44:16Z</time>
      </trkpt>
      <trkpt lat="54.178743967786431" lon="27.730128960683942">
        <ele>286.13</ele>
        <time>2013-08-17T12:44:20Z</time>
      </trkpt>
      <trkpt lat="54.178320011124015" lon="27.730809990316629">
        <ele>283.73000000000002</ele>
        <time>2013-08-17T12:44:27Z</time>
      </trkpt>
      <trkpt lat="54.177947016432881" lon="27.732543032616377">
        <ele>276.51999999999998</ele>
        <time>2013-08-17T12:44:38Z</time>
      </trkpt>
      <trkpt lat="54.177608974277973" lon="27.734533986076713">
        <ele>267.86000000000001</ele>
        <time>2013-08-17T12:44:49Z</time>
      </trkpt>
      <trkpt lat="54.177375035360456" lon="27.735973997041583">
        <ele>262.57999999999998</ele>
        <time>2013-08-17T12:44:59Z</time>
      </trkpt>
      <trkpt lat="54.177145035937428" lon="27.737264977768064">
        <ele>257.76999999999998</ele>
        <time>2013-08-17T12:45:11Z</time>
      </trkpt>
      <trkpt lat="54.176921993494034" lon="27.738584037870169">
        <ele>253.44</ele>
        <time>2013-08-17T12:45:25Z</time>
      </trkpt>
      <trkpt lat="54.176884023472667" lon="27.738844966515899">
        <ele>252.47999999999999</ele>
        <time>2013-08-17T12:45:28Z</time>
      </trkpt>
      <trkpt lat="54.17674102820456" lon="27.739700004458427">
        <ele>251.03999999999999</ele>
        <time>2013-08-17T12:45:40Z</time>
      </trkpt>
      <trkpt lat="54.176481021568179" lon="27.74056401103735">
        <ele>252</ele>
        <time>2013-08-17T12:45:52Z</time>
      </trkpt>
      <trkpt lat="54.176365016028285" lon="27.740773977711797">
        <ele>253.93000000000001</ele>
        <time>2013-08-17T12:45:55Z</time>
      </trkpt>
      <trkpt lat="54.175836034119129" lon="27.741661034524441">
        <ele>265.45999999999998</ele>
        <time>2013-08-17T12:46:11Z</time>
      </trkpt>
      <trkpt lat="54.175459016114473" lon="27.742251036688685">
        <ele>269.79000000000002</ele>
        <time>2013-08-17T12:46:25Z</time>
      </trkpt>
      <trkpt lat="54.17517201974988" lon="27.742792004719377">
        <ele>276.04000000000002</ele>
        <time>2013-08-17T12:46:39Z</time>
      </trkpt>
      <trkpt lat="54.174949983134866" lon="27.743427017703652">
        <ele>283.73000000000002</ele>
        <time>2013-08-17T12:46:54Z</time>
      </trkpt>
      <trkpt lat="54.174859961494803" lon="27.744319019839168">
        <ele>286.61000000000001</ele>
        <time>2013-08-17T12:47:12Z</time>
      </trkpt>
      <trkpt lat="54.174887035042048" lon="27.744854958727956">
        <ele>288.52999999999997</ele>
        <time>2013-08-17T12:47:24Z</time>
      </trkpt>
      <trkpt lat="54.175016032531857" lon="27.745754001662135">
        <ele>289.49000000000001</ele>
        <time>2013-08-17T12:47:41Z</time>
      </trkpt>
      <trkpt lat="54.175177970901132" lon="27.746446011587977">
        <ele>289.97000000000003</ele>
        <time>2013-08-17T12:47:55Z</time>
      </trkpt>
      <trkpt lat="54.175375029444695" lon="27.747595002874732">
        <ele>289.97000000000003</ele>
        <time>2013-08-17T12:48:14Z</time>
      </trkpt>
      <trkpt lat="54.175535039976239" lon="27.748571997508407">
        <ele>293.81999999999999</ele>
        <time>2013-08-17T12:48:30Z</time>
      </trkpt>
      <trkpt lat="54.175611985847354" lon="27.749525019899011">
        <ele>297.18000000000001</ele>
        <time>2013-08-17T12:48:46Z</time>
      </trkpt>
      <trkpt lat="54.175521964207292" lon="27.750429008156061">
        <ele>298.63</ele>
        <time>2013-08-17T12:48:59Z</time>
      </trkpt>
      <trkpt lat="54.175510983914137" lon="27.750498997047544">
        <ele>299.11000000000001</ele>
        <time>2013-08-17T12:49:00Z</time>
      </trkpt>
      <trkpt lat="54.175330018624663" lon="27.751551009714603">
        <ele>301.02999999999997</ele>
        <time>2013-08-17T12:49:15Z</time>
      </trkpt>
      <trkpt lat="54.175112005323172" lon="27.752797985449433">
        <ele>302.94999999999999</ele>
        <time>2013-08-17T12:49:32Z</time>
      </trkpt>
      <trkpt lat="54.174931962043047" lon="27.753788977861404">
        <ele>303.43000000000001</ele>
        <time>2013-08-17T12:49:45Z</time>
      </trkpt>
      <trkpt lat="54.174800030887127" lon="27.754621971398592">
        <ele>301.99000000000001</ele>
        <time>2013-08-17T12:49:55Z</time>
      </trkpt>
      <trkpt lat="54.174612024798989" lon="27.755742967128754">
        <ele>295.74000000000001</ele>
        <time>2013-08-17T12:50:08Z</time>
      </trkpt>
      <trkpt lat="54.174381019547582" lon="27.75697804056108">
        <ele>289.97000000000003</ele>
        <time>2013-08-17T12:50:19Z</time>
      </trkpt>
      <trkpt lat="54.174082959070802" lon="27.758716028183699">
        <ele>282.76999999999998</ele>
        <time>2013-08-17T12:50:33Z</time>
      </trkpt>
      <trkpt lat="54.173719016835093" lon="27.760586030781269">
        <ele>277</ele>
        <time>2013-08-17T12:50:47Z</time>
      </trkpt>
      <trkpt lat="54.173469990491867" lon="27.761879023164511">
        <ele>273.63</ele>
        <time>2013-08-17T12:50:59Z</time>
      </trkpt>
      <trkpt lat="54.173364965245128" lon="27.762504983693361">
        <ele>271.70999999999998</ele>
        <time>2013-08-17T12:51:06Z</time>
      </trkpt>
      <trkpt lat="54.173319032415748" lon="27.763127004727721">
        <ele>279.39999999999998</ele>
        <time>2013-08-17T12:51:16Z</time>
      </trkpt>
      <trkpt lat="54.173314003273845" lon="27.763134967535734">
        <ele>279.88</ele>
        <time>2013-08-17T12:52:34Z</time>
      </trkpt>
      <trkpt lat="54.173322971910238" lon="27.763207973912358">
        <ele>283.25</ele>
        <time>2013-08-17T12:53:28Z</time>
      </trkpt>
      <trkpt lat="54.173377035185695" lon="27.763326996937394">
        <ele>284.20999999999998</ele>
        <time>2013-08-17T12:53:33Z</time>
      </trkpt>
      <trkpt lat="54.173691021278501" lon="27.763994028791785">
        <ele>285.17000000000002</ele>
        <time>2013-08-17T12:53:48Z</time>
      </trkpt>
      <trkpt lat="54.174028979614377" lon="27.76467103511095">
        <ele>289.00999999999999</ele>
        <time>2013-08-17T12:54:02Z</time>
      </trkpt>
      <trkpt lat="54.1745700314641" lon="27.765618022531271">
        <ele>289.97000000000003</ele>
        <time>2013-08-17T12:54:18Z</time>
      </trkpt>
      <trkpt lat="54.175191968679428" lon="27.766771959140897">
        <ele>291.89999999999998</ele>
        <time>2013-08-17T12:54:38Z</time>
      </trkpt>
      <trkpt lat="54.175251983106136" lon="27.766887964680791">
        <ele>291.89999999999998</ele>
        <time>2013-08-17T12:54:40Z</time>
      </trkpt>
      <trkpt lat="54.175948016345501" lon="27.768192021176219">
        <ele>290.94</ele>
        <time>2013-08-17T12:55:00Z</time>
      </trkpt>
      <trkpt lat="54.176619993522763" lon="27.769480990245938">
        <ele>285.64999999999998</ele>
        <time>2013-08-17T12:55:13Z</time>
      </trkpt>
      <trkpt lat="54.17751400731504" lon="27.771223001182079">
        <ele>277.48000000000002</ele>
        <time>2013-08-17T12:55:27Z</time>
      </trkpt>
      <trkpt lat="54.17813996784389" lon="27.772496966645122">
        <ele>276.51999999999998</ele>
        <time>2013-08-17T12:55:39Z</time>
      </trkpt>
      <trkpt lat="54.178554033860564" lon="27.773284027352929">
        <ele>277</ele>
        <time>2013-08-17T12:55:50Z</time>
      </trkpt>
      <trkpt lat="54.179285019636154" lon="27.774035967886448">
        <ele>277</ele>
        <time>2013-08-17T12:56:07Z</time>
      </trkpt>
      <trkpt lat="54.180047018453479" lon="27.774665029719472">
        <ele>277.48000000000002</ele>
        <time>2013-08-17T12:56:24Z</time>
      </trkpt>
      <trkpt lat="54.180118013173342" lon="27.774712974205613">
        <ele>277.48000000000002</ele>
        <time>2013-08-17T12:56:26Z</time>
      </trkpt>
      <trkpt lat="54.180151037871838" lon="27.774894023314118">
        <ele>277.95999999999998</ele>
        <time>2013-08-17T12:56:30Z</time>
      </trkpt>
      <trkpt lat="54.180097980424762" lon="27.775118993595243">
        <ele>277.95999999999998</ele>
        <time>2013-08-17T12:56:34Z</time>
      </trkpt>
      <trkpt lat="54.179997984319925" lon="27.775593996047974">
        <ele>277.95999999999998</ele>
        <time>2013-08-17T12:56:41Z</time>
      </trkpt>
      <trkpt lat="54.179981974884868" lon="27.775745037943125">
        <ele>278.44</ele>
        <time>2013-08-17T12:56:43Z</time>
      </trkpt>
      <trkpt lat="54.179979041218758" lon="27.776117026805878">
        <ele>277.95999999999998</ele>
        <time>2013-08-17T12:56:48Z</time>
      </trkpt>
      <trkpt lat="54.179921038448811" lon="27.777168033644557">
        <ele>277.48000000000002</ele>
        <time>2013-08-17T12:57:03Z</time>
      </trkpt>
      <trkpt lat="54.179889019578695" lon="27.777773039415479">
        <ele>277.48000000000002</ele>
        <time>2013-08-17T12:57:13Z</time>
      </trkpt>
      <trkpt lat="54.179823976010084" lon="27.778749028220773">
        <ele>277.48000000000002</ele>
        <time>2013-08-17T12:57:28Z</time>
      </trkpt>
      <trkpt lat="54.179691039025784" lon="27.779628960415721">
        <ele>276.51999999999998</ele>
        <time>2013-08-17T12:57:44Z</time>
      </trkpt>
      <trkpt lat="54.179670000448823" lon="27.779684029519558">
        <ele>277</ele>
        <time>2013-08-17T12:57:53Z</time>
      </trkpt>
      <trkpt lat="54.179600011557341" lon="27.780146962031722">
        <ele>277</ele>
        <time>2013-08-17T12:58:07Z</time>
      </trkpt>
      <trkpt lat="54.179462967440486" lon="27.780761020258069">
        <ele>277.95999999999998</ele>
        <time>2013-08-17T12:58:21Z</time>
      </trkpt>
      <trkpt lat="54.179432038217783" lon="27.781262006610632">
        <ele>277.95999999999998</ele>
        <time>2013-08-17T12:58:33Z</time>
      </trkpt>
      <trkpt lat="54.179523987695575" lon="27.781376000493765">
        <ele>277.95999999999998</ele>
        <time>2013-08-17T12:58:45Z</time>
      </trkpt>
      <trkpt lat="54.179521976038814" lon="27.781370971351862">
        <ele>277.48000000000002</ele>
        <time>2013-08-17T13:00:10Z</time>
      </trkpt>
      <trkpt lat="54.179518958553672" lon="27.781369965523481">
        <ele>277</ele>
        <time>2013-08-17T13:01:13Z</time>
      </trkpt>
      <trkpt lat="54.179518036544323" lon="27.781373988837004">
        <ele>277.48000000000002</ele>
        <time>2013-08-17T13:01:56Z</time>
      </trkpt>
      <trkpt lat="54.179747030138969" lon="27.78153601102531">
        <ele>276.04000000000002</ele>
        <time>2013-08-17T13:02:15Z</time>
      </trkpt>
      <trkpt lat="54.180543981492519" lon="27.782067004591227">
        <ele>270.26999999999998</ele>
        <time>2013-08-17T13:02:28Z</time>
      </trkpt>
      <trkpt lat="54.180597960948944" lon="27.782108997926116">
        <ele>270.26999999999998</ele>
        <time>2013-08-17T13:02:29Z</time>
      </trkpt>
      <trkpt lat="54.180617993697524" lon="27.782410997897387">
        <ele>268.82999999999998</ele>
        <time>2013-08-17T13:02:36Z</time>
      </trkpt>
      <trkpt lat="54.180563008412719" lon="27.782521974295378">
        <ele>269.79000000000002</ele>
        <time>2013-08-17T13:02:39Z</time>
      </trkpt>
      <trkpt lat="54.180234018713236" lon="27.783053973689675">
        <ele>270.26999999999998</ele>
        <time>2013-08-17T13:02:51Z</time>
      </trkpt>
      <trkpt lat="54.18009202927351" lon="27.783296965062618">
        <ele>270.26999999999998</ele>
        <time>2013-08-17T13:02:56Z</time>
      </trkpt>
      <trkpt lat="54.179629012942314" lon="27.784105986356735">
        <ele>272.19</ele>
        <time>2013-08-17T13:03:13Z</time>
      </trkpt>
      <trkpt lat="54.179251994937658" lon="27.784602027386427">
        <ele>273.63</ele>
        <time>2013-08-17T13:03:26Z</time>
      </trkpt>
      <trkpt lat="54.178879000246525" lon="27.785264030098915">
        <ele>276.04000000000002</ele>
        <time>2013-08-17T13:03:42Z</time>
      </trkpt>
      <trkpt lat="54.178658975288272" lon="27.786044972017407">
        <ele>278.44</ele>
        <time>2013-08-17T13:03:56Z</time>
      </trkpt>
      <trkpt lat="54.178573982790112" lon="27.786609996110201">
        <ele>277</ele>
        <time>2013-08-17T13:04:03Z</time>
      </trkpt>
      <trkpt lat="54.178443979471922" lon="27.788215968757868">
        <ele>274.11000000000001</ele>
        <time>2013-08-17T13:04:18Z</time>
      </trkpt>
      <trkpt lat="54.17837399058044" lon="27.788861040025949">
        <ele>273.63</ele>
        <time>2013-08-17T13:04:26Z</time>
      </trkpt>
      <trkpt lat="54.178376002237201" lon="27.789263958111405">
        <ele>272.67000000000002</ele>
        <time>2013-08-17T13:04:31Z</time>
      </trkpt>
      <trkpt lat="54.17824499309063" lon="27.790592992678285">
        <ele>268.82999999999998</ele>
        <time>2013-08-17T13:04:45Z</time>
      </trkpt>
      <trkpt lat="54.178194031119347" lon="27.7908840123564">
        <ele>266.89999999999998</ele>
        <time>2013-08-17T13:04:51Z</time>
      </trkpt>
      <trkpt lat="54.178164023905993" lon="27.791019966825843">
        <ele>266.42000000000002</ele>
        <time>2013-08-17T13:05:07Z</time>
      </trkpt>
      <trkpt lat="54.178104009479284" lon="27.79131299816072">
        <ele>265.45999999999998</ele>
        <time>2013-08-17T13:05:12Z</time>
      </trkpt>
      <trkpt lat="54.17803100310266" lon="27.791840974241495">
        <ele>263.54000000000002</ele>
        <time>2013-08-17T13:05:19Z</time>
      </trkpt>
      <trkpt lat="54.178021028637886" lon="27.792030991986394">
        <ele>262.57999999999998</ele>
        <time>2013-08-17T13:05:21Z</time>
      </trkpt>
      <trkpt lat="54.177968977019191" lon="27.792497025802732">
        <ele>260.17000000000002</ele>
        <time>2013-08-17T13:05:25Z</time>
      </trkpt>
      <trkpt lat="54.177842997014523" lon="27.793391961604357">
        <ele>255.37</ele>
        <time>2013-08-17T13:05:31Z</time>
      </trkpt>
      <trkpt lat="54.177540997043252" lon="27.794387983158231">
        <ele>251.03999999999999</ele>
        <time>2013-08-17T13:05:38Z</time>
      </trkpt>
      <trkpt lat="54.177454998716712" lon="27.79464497230947">
        <ele>250.08000000000001</ele>
        <time>2013-08-17T13:05:40Z</time>
      </trkpt>
      <trkpt lat="54.177318038418889" lon="27.796312971040606">
        <ele>245.27000000000001</ele>
        <time>2013-08-17T13:05:52Z</time>
      </trkpt>
      <trkpt lat="54.177283002063632" lon="27.797348974272609">
        <ele>240.94999999999999</ele>
        <time>2013-08-17T13:06:01Z</time>
      </trkpt>
      <trkpt lat="54.177246037870646" lon="27.79790997505188">
        <ele>239.02000000000001</ele>
        <time>2013-08-17T13:06:07Z</time>
      </trkpt>
      <trkpt lat="54.177157022058964" lon="27.798286993056536">
        <ele>239.50999999999999</ele>
        <time>2013-08-17T13:06:11Z</time>
      </trkpt>
      <trkpt lat="54.177120979875326" lon="27.798828966915607">
        <ele>239.50999999999999</ele>
        <time>2013-08-17T13:06:16Z</time>
      </trkpt>
      <trkpt lat="54.177090972661972" lon="27.799329031258821">
        <ele>239.50999999999999</ele>
        <time>2013-08-17T13:06:21Z</time>
      </trkpt>
      <trkpt lat="54.177120979875326" lon="27.80003403313458">
        <ele>239.50999999999999</ele>
        <time>2013-08-17T13:06:29Z</time>
      </trkpt>
      <trkpt lat="54.177317032590508" lon="27.800345001742244">
        <ele>239.50999999999999</ele>
        <time>2013-08-17T13:06:34Z</time>
      </trkpt>
      <trkpt lat="54.177485005930066" lon="27.800711961463094">
        <ele>239.02000000000001</ele>
        <time>2013-08-17T13:06:39Z</time>
      </trkpt>
      <trkpt lat="54.177528005093336" lon="27.801240021362901">
        <ele>237.58000000000001</ele>
        <time>2013-08-17T13:06:44Z</time>
      </trkpt>
      <trkpt lat="54.177662031725049" lon="27.801587032154202">
        <ele>237.58000000000001</ele>
        <time>2013-08-17T13:06:48Z</time>
      </trkpt>
      <trkpt lat="54.177908962592483" lon="27.801950974389911">
        <ele>237.09999999999999</ele>
        <time>2013-08-17T13:06:54Z</time>
      </trkpt>
      <trkpt lat="54.178542969748378" lon="27.80265798792243">
        <ele>235.66</ele>
        <time>2013-08-17T13:07:08Z</time>
      </trkpt>
      <trkpt lat="54.178841030225158" lon="27.803482012823224">
        <ele>235.66</ele>
        <time>2013-08-17T13:07:19Z</time>
      </trkpt>
      <trkpt lat="54.179055020213127" lon="27.804089030250907">
        <ele>236.13999999999999</ele>
        <time>2013-08-17T13:07:27Z</time>
      </trkpt>
      <trkpt lat="54.179199021309614" lon="27.80450401827693">
        <ele>236.62</ele>
        <time>2013-08-17T13:07:33Z</time>
      </trkpt>
      <trkpt lat="54.179309997707605" lon="27.804816998541355">
        <ele>237.09999999999999</ele>
        <time>2013-08-17T13:07:38Z</time>
      </trkpt>
      <trkpt lat="54.179438995197415" lon="27.805225029587746">
        <ele>236.62</ele>
        <time>2013-08-17T13:07:47Z</time>
      </trkpt>
      <trkpt lat="54.179457016289234" lon="27.805222012102604">
        <ele>236.13999999999999</ele>
        <time>2013-08-17T13:07:48Z</time>
      </trkpt>
      <trkpt lat="54.179479982703924" lon="27.80521497130394">
        <ele>236.13999999999999</ele>
        <time>2013-08-17T13:07:49Z</time>
      </trkpt>
      <trkpt lat="54.179502027109265" lon="27.805209020152688">
        <ele>235.66</ele>
        <time>2013-08-17T13:07:50Z</time>
      </trkpt>
      <trkpt lat="54.179517030715942" lon="27.805204996839166">
        <ele>235.66</ele>
        <time>2013-08-17T13:07:51Z</time>
      </trkpt>
      <trkpt lat="54.179533040151" lon="27.805208014324307">
        <ele>235.66</ele>
        <time>2013-08-17T13:07:52Z</time>
      </trkpt>
      <trkpt lat="54.179547959938645" lon="27.805217988789082">
        <ele>235.18000000000001</ele>
        <time>2013-08-17T13:07:53Z</time>
      </trkpt>
      <trkpt lat="54.179563969373703" lon="27.805220000445843">
        <ele>235.18000000000001</ele>
        <time>2013-08-17T13:07:54Z</time>
      </trkpt>
      <trkpt lat="54.179584002122283" lon="27.805213965475559">
        <ele>234.69999999999999</ele>
        <time>2013-08-17T13:07:55Z</time>
      </trkpt>
      <trkpt lat="54.179604034870863" lon="27.805204996839166">
        <ele>234.69999999999999</ele>
        <time>2013-08-17T13:07:56Z</time>
      </trkpt>
      <trkpt lat="54.17962197214365" lon="27.805198961868882">
        <ele>234.69999999999999</ele>
        <time>2013-08-17T13:07:57Z</time>
      </trkpt>
      <trkpt lat="54.179633958265185" lon="27.805202985182405">
        <ele>234.22</ele>
        <time>2013-08-17T13:07:58Z</time>
      </trkpt>
      <trkpt lat="54.179647034034133" lon="27.805206002667546">
        <ele>234.22</ele>
        <time>2013-08-17T13:07:59Z</time>
      </trkpt>
      <trkpt lat="54.179776031523943" lon="27.805312033742666">
        <ele>234.69999999999999</ele>
        <time>2013-08-17T13:08:13Z</time>
      </trkpt>
      <trkpt lat="54.179907962679863" lon="27.805546978488564">
        <ele>236.13999999999999</ele>
        <time>2013-08-17T13:08:31Z</time>
      </trkpt>
      <trkpt lat="54.180234018713236" lon="27.806108985096216">
        <ele>237.09999999999999</ele>
        <time>2013-08-17T13:08:48Z</time>
      </trkpt>
      <trkpt lat="54.180540964007378" lon="27.806708961725235">
        <ele>236.13999999999999</ele>
        <time>2013-08-17T13:09:04Z</time>
      </trkpt>
      <trkpt lat="54.181049996986985" lon="27.807417986914515">
        <ele>238.06</ele>
        <time>2013-08-17T13:09:23Z</time>
      </trkpt>
      <trkpt lat="54.18166296556592" lon="27.808252992108464">
        <ele>239.50999999999999</ele>
        <time>2013-08-17T13:09:44Z</time>
      </trkpt>
      <trkpt lat="54.182002013549209" lon="27.808804018422961">
        <ele>239.99000000000001</ele>
        <time>2013-08-17T13:09:58Z</time>
      </trkpt>
      <trkpt lat="54.182451032102108" lon="27.809659978374839">
        <ele>238.53999999999999</ele>
        <time>2013-08-17T13:10:13Z</time>
      </trkpt>
      <trkpt lat="54.182889992371202" lon="27.810019981116056">
        <ele>238.06</ele>
        <time>2013-08-17T13:10:27Z</time>
      </trkpt>
      <trkpt lat="54.182851016521454" lon="27.809966001659632">
        <ele>238.53999999999999</ele>
        <time>2013-08-17T13:10:29Z</time>
      </trkpt>
      <trkpt lat="54.182869959622622" lon="27.810013024136424">
        <ele>236.62</ele>
        <time>2013-08-17T13:10:42Z</time>
      </trkpt>
      <trkpt lat="54.183011027052999" lon="27.810223996639252">
        <ele>237.09999999999999</ele>
        <time>2013-08-17T13:11:05Z</time>
      </trkpt>
      <trkpt lat="54.18318796902895" lon="27.810460031032562">
        <ele>236.13999999999999</ele>
        <time>2013-08-17T13:11:12Z</time>
      </trkpt>
      <trkpt lat="54.183502960950136" lon="27.810464976355433">
        <ele>235.66</ele>
        <time>2013-08-17T13:11:24Z</time>
      </trkpt>
      <trkpt lat="54.183651991188526" lon="27.810480985790491">
        <ele>235.66</ele>
        <time>2013-08-17T13:11:35Z</time>
      </trkpt>
      <trkpt lat="54.183656014502048" lon="27.810484003275633">
        <ele>235.66</ele>
        <time>2013-08-17T13:11:42Z</time>
      </trkpt>
    </trkseg>
  </trk>

</gpx>
